[[{"header":{"parameterUnit":"m.s-1","parameterCategory":1,"la1":31.0,"la2":29.5877,"lo1":-88.7671,"lo2":-86.6584,"dy":0.0162,"dx":0.0185,"nx":115,"ny":88,"refTime":"2024-11-28T06:00:00:Z","depth":0,"parameterNumber":2,"parameterNumberName":"U-component_of_WINDS"},"data":[0.0,0.0,0.0,0.0,0.0,0.0,0.0,0.0,0.0,0.0,0.0,0.0,0.0,0.0,0.0,0.0,0.0,0.0,0.0,0.0,0.0,0.0,0.0,0.0,0.0,0.0,0.0,0.0,0.0,0.0,0.0,0.0,0.0,0.0,0.0,0.0,0.0,0.0,0.0,0.0,0.0,0.0,0.0,0.0,0.0,0.0,0.0,0.0,0.0,0.0,0.0,0.0,0.0,0.0,0.0,0.0,0.0,0.0,0.0,0.0,0.0,0.0,0.0,0.0,0.0,0.0,0.0,0.0,0.0,0.0,0.0,0.0,0.0,0.0,0.0,0.0,0.0,0.0,0.0,0.0,0.0,0.0,0.0,0.0,0.0,0.0,0.0,0.0,0.0,0.0,0.0,0.0,0.0,0.0,0.0,0.0,0.0,0.0,0.0,0.0,0.0,0.0,0.0,0.0,0.0,0.0,0.0,0.0,0.0,0.0,0.0,0.0,0.0,0.0,0.0,0.0,0.0,0.0,0.0,0.0,0.0,0.0,0.0,0.0,0.0,0.0,0.0,0.0,0.0,0.0,0.0,0.0,0.0,0.0,0.0,0.0,0.0,0.0,0.0,0.0,0.0,0.0,0.0,0.0,0.0,0.0,0.0,0.0,0.0,0.0,0.0,0.0,0.0,0.0,0.0,0.0,0.0,0.0,0.0,0.0,0.0,0.0,0.0,0.0,0.0,0.0,0.0,0.0,0.0,0.0,0.0,0.0,0.0,0.0,0.0,0.0,0.0,0.0,0.0,0.0,0.0,0.0,0.0,0.0,0.0,0.0,0.0,0.0,0.0,0.0,0.0,0.0,0.0,0.0,0.0,0.0,0.0,0.0,0.0,0.0,0.0,0.0,0.0,0.0,0.0,0.0,0.0,0.0,0.0,0.0,0.0,0.0,0.0,0.0,0.0,0.0,0.0,0.0,0.0,0.0,0.0,0.0,0.0,0.0,0.0,0.0,0.0,0.0,0.0,0.0,0.0,0.0,0.0,0.0,0.0,0.0,0.0,0.0,0.0,0.0,0.0,0.0,0.0,0.0,0.0,0.0,0.0,0.0,0.0,0.0,0.0,0.0,0.0,0.0,0.0,0.0,0.0,0.0,0.0,0.0,0.0,0.0,0.0,0.0,0.0,0.0,0.0,0.0,0.0,0.0,0.0,0.0,0.0,0.0,0.0,0.0,0.0,0.0,0.0,0.0,0.0,0.0,0.0,0.0,0.0,0.0,0.0,0.0,0.0,0.0,0.0,0.0,0.0,0.0,0.0,0.0,0.0,0.0,0.0,0.0,0.0,0.0,0.0,0.0,0.0,0.0,0.0,0.0,0.0,0.0,0.0,0.0,0.0,0.0,0.0,0.0,0.0,0.0,0.0,0.0,0.0,0.0,0.0,0.0,0.0,0.0,0.0,0.0,0.0,0.0,0.0,0.0,0.0,0.0,0.0,0.0,0.0,0.0,0.0,0.0,0.0,0.0,0.0,0.0,0.0,0.0,0.0,0.0,0.0,0.0,0.0,0.0,0.0,0.0,0.0,0.0,0.0,0.0,0.0,0.0,0.0,0.0,0.0,0.0,0.0,0.0,0.0,0.0,0.0,0.0,0.0,0.0,0.0,0.0,0.0,0.0,0.0,0.0,0.0,0.0,0.0,0.0,0.0,0.0,0.0,0.0,0.0,0.0,0.0,0.0,0.0,0.0,0.0,0.0,0.0,0.0,0.0,0.0,0.0,0.0,0.0,0.0,0.0,0.0,0.0,0.0,0.0,0.0,0.0,0.0,0.0,0.0,0.0,0.0,0.0,0.0,0.0,0.0,0.0,0.0,0.0,0.0,0.0,0.0,0.0,0.0,0.0,0.0,0.0,0.0,0.0,0.0,0.0,0.0,0.0,0.0,0.0,0.0,0.0,0.0,0.0,0.0,0.0,0.0,0.0,0.0,0.0,0.0,0.0,0.0,0.0,0.0,0.0,0.0,0.0,0.0,0.0,0.0,0.0,0.0,0.0,0.0,0.0,0.0,0.0,0.0,0.0,0.0,0.0,0.0,0.0,0.0,0.0,0.0,0.0,0.0,0.0,0.0,0.0,0.0,0.0,0.0,0.0,0.0,0.0,0.0,0.0,0.0,0.0,0.0,0.0,0.0,0.0,0.0,0.0,0.0,0.0,0.0,0.0,0.0,0.0,0.0,0.0,0.0,0.0,0.0,0.0,0.0,0.0,0.0,0.0,0.0,0.0,0.0,0.0,0.0,0.0,0.0,0.0,0.0,0.0,0.0,0.0,0.0,0.0,0.0,0.0,0.0,0.0,0.0,0.0,0.0,0.0,0.0,0.0,0.0,0.0,0.0,0.0,0.0,0.0,0.0,0.0,0.0,0.0,0.0,0.0,0.0,0.0,0.0,0.0,0.0,0.0,0.0,0.0,0.0,0.0,0.0,0.0,0.0,0.0,0.0,0.0,0.0,0.0,0.0,0.0,0.0,0.0,0.0,0.0,0.0,0.0,0.0,0.0,0.0,0.0,0.0,0.0,0.0,0.0,0.0,0.0,0.0,0.0,0.0,0.0,0.0,0.0,0.0,0.0,0.0,0.0,0.0,0.0,0.0,0.0,0.0,0.0,0.0,0.0,0.0,0.0,0.0,0.0,0.0,0.0,0.0,0.0,0.0,0.0,0.0,0.0,0.0,0.0,0.0,0.0,0.0,0.0,0.0,0.0,0.0,0.0,0.0,0.0,0.0,0.0,0.0,0.0,0.0,0.0,0.0,0.0,0.0,0.0,0.0,0.0,0.0,0.0,0.0,0.0,0.0,0.0,0.0,0.0,0.0,0.0,0.0,0.0,0.0,0.0,0.0,0.0,0.0,0.0,0.0,0.0,0.0,0.0,0.0,0.0,0.0,0.0,0.0,0.0,0.0,0.0,0.0,0.0,0.0,0.0,0.0,0.0,0.0,0.0,0.0,0.0,0.0,0.0,0.0,0.0,0.0,0.0,0.0,0.0,0.0,0.0,0.0,0.0,0.0,0.0,0.0,0.0,0.0,0.0,0.0,0.0,0.0,0.0,0.0,0.0,0.0,0.0,0.0,0.0,0.0,0.0,0.0,0.0,0.0,0.0,0.0,0.0,0.0,0.0,0.0,0.0,0.0,0.0,0.0,0.0,0.0,0.0,0.0,0.0,0.0,0.0,0.0,0.0,0.0,0.0,0.0,0.0,0.0,0.0,0.0,0.0,0.0,0.0,0.0,0.0,0.0,0.0,0.0,0.0,0.0,0.0,0.0,0.0,0.0,0.0,0.0,0.0,0.0,0.0,0.0,0.0,0.0,0.0,0.0,0.0,0.0,0.0,0.0,0.0,0.0,0.0,0.0,0.0,0.0,0.0,0.0,0.0,0.0,0.0,0.0,0.0,0.0,0.0,0.0,0.0,0.0,0.0,0.0,0.0,0.0,0.0,0.0,0.0,0.0,0.0,0.0,0.0,0.0,0.0,0.0,0.0,0.0,0.0,0.0,0.0,0.0,0.0,0.0,0.0,0.0,0.0,0.0,0.0,0.0,0.0,0.0,0.0,0.0,0.0,0.0,0.0,0.0,0.0,0.0,0.0,0.0,0.0,0.0,0.0,0.0,0.0,0.0,0.0,0.0,0.0,0.0,0.0,0.0,0.0,0.0,0.0,0.0,0.0,0.0,0.0,0.0,0.0,0.0,0.0,0.0,0.0,0.0,0.0,0.0,0.0,0.0,0.0,0.0,0.0,0.0,0.0,0.0,0.0,0.0,0.0,0.0,0.0,0.0,0.0,0.0,0.0,0.0,0.0,0.0,0.0,0.0,0.0,0.0,0.0,0.0,0.0,0.0,0.0,0.0,0.0,0.0,0.0,0.0,0.0,0.0,0.0,0.0,0.0,0.0,0.0,0.0,0.0,0.0,0.0,0.0,0.0,0.0,0.0,0.0,0.0,0.0,0.0,0.0,0.0,0.0,0.0,0.0,0.0,0.0,0.0,0.0,0.0,0.0,0.0,0.0,0.0,0.0,0.0,0.0,0.0,0.0,0.0,0.0,0.0,0.0,0.0,0.0,0.0,0.0,0.0,0.0,0.0,0.0,0.0,0.0,0.0,0.0,0.0,0.0,0.0,0.0,0.0,0.0,0.0,0.0,0.0,0.0,0.0,0.0,0.0,0.0,0.0,0.0,0.0,0.0,0.0,0.0,0.0,0.0,0.0,0.0,0.0,0.0,0.0,0.0,5.7424,0.0,0.0,0.0,0.0,0.0,0.0,0.0,0.0,0.0,0.0,0.0,0.0,0.0,0.0,0.0,0.0,0.0,0.0,0.0,0.0,0.0,0.0,0.0,0.0,0.0,0.0,0.0,0.0,0.0,0.0,0.0,0.0,0.0,0.0,0.0,0.0,0.0,0.0,0.0,0.0,0.0,0.0,0.0,0.0,0.0,0.0,0.0,0.0,0.0,0.0,0.0,0.0,0.0,0.0,0.0,0.0,0.0,0.0,0.0,0.0,0.0,0.0,0.0,0.0,0.0,0.0,0.0,0.0,0.0,0.0,0.0,0.0,0.0,0.0,0.0,0.0,0.0,0.0,0.0,0.0,0.0,0.0,0.0,0.0,0.0,0.0,0.0,0.0,0.0,0.0,0.0,0.0,0.0,0.0,0.0,0.0,0.0,0.0,0.0,0.0,0.0,0.0,0.0,0.0,0.0,0.0,0.0,0.0,0.0,0.0,6.0102,6.0062,5.8896,5.8042,5.7617,0.0,0.0,0.0,0.0,0.0,0.0,0.0,0.0,0.0,0.0,0.0,0.0,0.0,0.0,0.0,0.0,0.0,0.0,0.0,0.0,0.0,0.0,0.0,0.0,0.0,0.0,0.0,0.0,0.0,0.0,0.0,0.0,0.0,0.0,0.0,0.0,0.0,0.0,0.0,0.0,0.0,0.0,0.0,0.0,0.0,0.0,0.0,0.0,0.0,0.0,0.0,0.0,0.0,0.0,0.0,0.0,0.0,0.0,0.0,0.0,0.0,0.0,0.0,0.0,0.0,0.0,0.0,0.0,0.0,0.0,0.0,0.0,0.0,0.0,0.0,0.0,0.0,0.0,0.0,0.0,0.0,0.0,0.0,0.0,0.0,0.0,0.0,0.0,0.0,0.0,0.0,0.0,0.0,0.0,0.0,0.0,0.0,0.0,0.0,0.0,0.0,0.0,0.0,0.0,0.0,0.0,0.0,0.0,0.0,0.0,0.0,0.0,5.9672,5.8545,5.7344,0.0,0.0,0.0,0.0,0.0,0.0,0.0,0.0,0.0,0.0,0.0,0.0,0.0,0.0,0.0,0.0,0.0,0.0,0.0,0.0,0.0,0.0,0.0,0.0,0.0,0.0,0.0,0.0,0.0,0.0,0.0,0.0,0.0,0.0,0.0,0.0,0.0,0.0,0.0,0.0,0.0,0.0,0.0,0.0,0.0,0.0,0.0,0.0,0.0,0.0,0.0,0.0,0.0,0.0,0.0,0.0,0.0,0.0,0.0,0.0,0.0,0.0,0.0,0.0,0.0,0.0,0.0,0.0,0.0,0.0,0.0,0.0,0.0,0.0,0.0,0.0,0.0,0.0,0.0,0.0,0.0,0.0,0.0,0.0,0.0,0.0,0.0,0.0,0.0,0.0,0.0,0.0,0.0,0.0,0.0,0.0,0.0,0.0,0.0,0.0,0.0,0.0,0.0,0.0,0.0,0.0,0.0,0.0,0.0,0.0,6.0838,6.239,6.0837,0.0,5.6643,0.0,0.0,0.0,0.0,0.0,0.0,0.0,0.0,0.0,0.0,0.0,0.0,0.0,0.0,0.0,0.0,0.0,0.0,0.0,0.0,0.0,0.0,0.0,0.0,0.0,0.0,0.0,0.0,0.0,0.0,0.0,0.0,0.0,0.0,0.0,0.0,0.0,0.0,0.0,0.0,0.0,0.0,0.0,0.0,0.0,0.0,0.0,0.0,0.0,0.0,0.0,0.0,0.0,0.0,0.0,0.0,0.0,0.0,0.0,0.0,0.0,0.0,0.0,0.0,0.0,0.0,0.0,0.0,0.0,0.0,0.0,0.0,0.0,0.0,0.0,0.0,0.0,0.0,0.0,0.0,0.0,0.0,0.0,0.0,0.0,0.0,0.0,0.0,0.0,0.0,0.0,0.0,0.0,0.0,0.0,0.0,0.0,0.0,0.0,0.0,0.0,0.0,0.0,0.0,0.0,0.0,0.0,0.0,0.0,0.0,0.0,6.2663,6.0525,5.8116,0.0,0.0,0.0,0.0,0.0,0.0,0.0,0.0,0.0,0.0,0.0,0.0,0.0,0.0,0.0,0.0,0.0,0.0,0.0,0.0,0.0,0.0,0.0,0.0,0.0,0.0,0.0,0.0,0.0,0.0,0.0,0.0,0.0,0.0,0.0,0.0,0.0,0.0,0.0,0.0,0.0,0.0,0.0,0.0,0.0,0.0,0.0,0.0,0.0,0.0,0.0,0.0,0.0,0.0,0.0,0.0,0.0,0.0,0.0,0.0,0.0,0.0,0.0,0.0,0.0,0.0,0.0,0.0,0.0,0.0,0.0,0.0,0.0,0.0,0.0,0.0,0.0,0.0,0.0,0.0,0.0,0.0,0.0,0.0,0.0,0.0,0.0,0.0,0.0,0.0,0.0,0.0,0.0,0.0,0.0,0.0,0.0,0.0,0.0,0.0,0.0,0.0,0.0,0.0,0.0,0.0,0.0,0.0,0.0,0.0,6.0746,0.0,6.218,6.0248,5.7844,5.5085,0.0,0.0,0.0,0.0,0.0,0.0,0.0,0.0,0.0,0.0,0.0,0.0,0.0,0.0,0.0,0.0,0.0,0.0,0.0,0.0,0.0,0.0,0.0,0.0,0.0,0.0,0.0,0.0,0.0,0.0,0.0,0.0,0.0,0.0,0.0,0.0,0.0,0.0,0.0,0.0,0.0,0.0,0.0,0.0,0.0,0.0,0.0,0.0,0.0,0.0,0.0,0.0,0.0,0.0,0.0,0.0,0.0,0.0,0.0,0.0,0.0,0.0,0.0,0.0,0.0,0.0,0.0,0.0,0.0,0.0,0.0,0.0,0.0,0.0,0.0,0.0,0.0,0.0,0.0,0.0,0.0,0.0,0.0,0.0,0.0,0.0,0.0,0.0,0.0,0.0,0.0,0.0,0.0,0.0,0.0,0.0,0.0,0.0,0.0,0.0,0.0,0.0,0.0,0.0,0.0,0.0,0.0,0.0,0.0,6.1263,6.1324,6.1364,6.0507,5.8469,0.0,0.0,0.0,0.0,0.0,0.0,0.0,0.0,0.0,0.0,0.0,0.0,0.0,0.0,0.0,0.0,0.0,0.0,0.0,0.0,0.0,0.0,0.0,0.0,0.0,0.0,0.0,0.0,0.0,0.0,0.0,0.0,0.0,0.0,0.0,0.0,0.0,0.0,0.0,0.0,0.0,0.0,0.0,0.0,0.0,0.0,0.0,0.0,0.0,0.0,0.0,0.0,0.0,0.0,0.0,0.0,0.0,0.0,0.0,0.0,0.0,0.0,0.0,0.0,0.0,0.0,0.0,0.0,0.0,0.0,0.0,0.0,0.0,0.0,0.0,0.0,0.0,0.0,0.0,0.0,0.0,0.0,0.0,0.0,0.0,0.0,0.0,0.0,0.0,0.0,0.0,0.0,0.0,0.0,0.0,0.0,0.0,0.0,0.0,0.0,0.0,0.0,0.0,0.0,0.0,0.0,0.0,0.0,0.0,5.8935,6.0008,6.0766,6.1208,5.9498,5.7643,0.0,0.0,0.0,0.0,0.0,0.0,0.0,0.0,0.0,0.0,0.0,0.0,0.0,0.0,0.0,0.0,0.0,0.0,0.0,0.0,0.0,0.0,0.0,0.0,0.0,0.0,0.0,0.0,0.0,0.0,0.0,0.0,0.0,0.0,0.0,0.0,0.0,0.0,0.0,0.0,0.0,0.0,0.0,0.0,0.0,0.0,0.0,0.0,0.0,0.0,0.0,0.0,0.0,0.0,0.0,0.0,0.0,0.0,0.0,0.0,0.0,0.0,0.0,0.0,0.0,0.0,0.0,0.0,0.0,0.0,0.0,0.0,0.0,0.0,0.0,0.0,0.0,0.0,0.0,0.0,0.0,0.0,0.0,0.0,0.0,0.0,0.0,0.0,0.0,0.0,0.0,0.0,0.0,0.0,0.0,0.0,0.0,0.0,0.0,0.0,0.0,0.0,0.0,0.0,0.0,0.0,0.0,0.0,0.0,5.9189,0.0,6.135,0.0,5.9395,5.7461,0.0,0.0,0.0,0.0,0.0,0.0,0.0,0.0,0.0,0.0,0.0,0.0,0.0,0.0,0.0,0.0,0.0,0.0,0.0,0.0,0.0,0.0,0.0,0.0,0.0,0.0,0.0,0.0,0.0,0.0,0.0,0.0,0.0,0.0,0.0,0.0,0.0,0.0,0.0,0.0,0.0,0.0,0.0,0.0,0.0,0.0,0.0,0.0,0.0,0.0,0.0,0.0,0.0,0.0,0.0,0.0,0.0,0.0,0.0,0.0,0.0,0.0,0.0,0.0,0.0,0.0,0.0,0.0,0.0,0.0,0.0,0.0,0.0,0.0,0.0,0.0,0.0,0.0,0.0,0.0,0.0,0.0,0.0,0.0,0.0,0.0,0.0,0.0,0.0,0.0,0.0,0.0,0.0,0.0,0.0,0.0,0.0,0.0,0.0,0.0,0.0,0.0,0.0,0.0,0.0,0.0,0.0,0.0,0.0,6.2365,6.3298,6.2911,6.1394,6.0386,5.7999,0.0,0.0,0.0,0.0,0.0,0.0,0.0,0.0,0.0,0.0,0.0,0.0,0.0,0.0,0.0,0.0,0.0,0.0,0.0,0.0,0.0,0.0,0.0,0.0,0.0,0.0,0.0,0.0,0.0,0.0,0.0,0.0,0.0,0.0,0.0,0.0,0.0,0.0,0.0,0.0,0.0,0.0,0.0,0.0,0.0,0.0,0.0,0.0,0.0,0.0,0.0,0.0,0.0,0.0,0.0,0.0,0.0,0.0,0.0,0.0,0.0,0.0,0.0,0.0,0.0,0.0,0.0,0.0,0.0,0.0,0.0,0.0,0.0,0.0,0.0,0.0,0.0,0.0,0.0,0.0,0.0,0.0,0.0,0.0,0.0,0.0,0.0,0.0,0.0,0.0,0.0,0.0,0.0,0.0,0.0,0.0,0.0,0.0,0.0,0.0,0.0,0.0,0.0,0.0,0.0,0.0,0.0,0.0,0.0,6.085,6.2248,6.2725,6.2122,6.0156,5.8455,0.0,0.0,0.0,0.0,0.0,0.0,0.0,0.0,0.0,0.0,0.0,0.0,0.0,0.0,0.0,0.0,0.0,0.0,0.0,0.0,0.0,0.0,0.0,0.0,0.0,0.0,0.0,0.0,0.0,0.0,0.0,0.0,0.0,0.0,0.0,0.0,0.0,0.0,0.0,0.0,0.0,0.0,0.0,0.0,0.0,0.0,0.0,0.0,0.0,0.0,0.0,0.0,0.0,0.0,0.0,0.0,0.0,0.0,0.0,0.0,0.0,0.0,0.0,0.0,0.0,0.0,0.0,0.0,0.0,0.0,0.0,0.0,0.0,0.0,0.0,0.0,0.0,0.0,0.0,0.0,0.0,0.0,0.0,0.0,0.0,0.0,0.0,0.0,0.0,0.0,0.0,0.0,0.0,0.0,0.0,0.0,0.0,0.0,0.0,0.0,0.0,0.0,0.0,0.0,0.0,0.0,0.0,0.0,0.0,6.439,6.5346,6.5396,6.4425,6.252,6.0426,5.8223,0.0,0.0,0.0,0.0,0.0,0.0,0.0,0.0,0.0,0.0,0.0,0.0,0.0,0.0,0.0,0.0,0.0,0.0,0.0,0.0,0.0,0.0,0.0,0.0,0.0,0.0,0.0,0.0,0.0,0.0,0.0,0.0,0.0,0.0,0.0,0.0,0.0,0.0,0.0,0.0,0.0,0.0,0.0,0.0,0.0,0.0,0.0,0.0,0.0,0.0,0.0,0.0,0.0,0.0,0.0,0.0,0.0,0.0,0.0,0.0,0.0,0.0,0.0,0.0,0.0,0.0,0.0,0.0,0.0,0.0,0.0,0.0,0.0,0.0,0.0,0.0,0.0,0.0,0.0,0.0,0.0,0.0,0.0,0.0,0.0,0.0,0.0,0.0,0.0,0.0,0.0,0.0,0.0,0.0,0.0,0.0,0.0,0.0,0.0,0.0,0.0,0.0,0.0,0.0,0.0,0.0,0.0,0.0,7.1824,7.1935,7.0692,6.8017,6.6815,6.3593,0.0,0.0,0.0,0.0,0.0,0.0,0.0,0.0,0.0,0.0,0.0,0.0,0.0,0.0,0.0,0.0,0.0,0.0,0.0,0.0,0.0,0.0,0.0,0.0,0.0,0.0,0.0,0.0,0.0,0.0,0.0,0.0,0.0,0.0,0.0,0.0,0.0,0.0,0.0,0.0,0.0,0.0,0.0,0.0,0.0,0.0,0.0,0.0,0.0,0.0,0.0,0.0,0.0,0.0,0.0,0.0,0.0,0.0,0.0,0.0,0.0,0.0,0.0,0.0,0.0,0.0,0.0,0.0,0.0,0.0,0.0,0.0,0.0,0.0,0.0,0.0,0.0,0.0,0.0,0.0,0.0,0.0,0.0,0.0,0.0,0.0,0.0,0.0,0.0,0.0,0.0,0.0,0.0,0.0,0.0,0.0,0.0,0.0,0.0,0.0,0.0,0.0,0.0,0.0,0.0,0.0,0.0,0.0,0.0,7.5997,7.7916,7.6732,7.2371,6.8942,6.5539,0.0,0.0,0.0,0.0,0.0,0.0,0.0,0.0,0.0,0.0,0.0,0.0,0.0,0.0,0.0,0.0,0.0,0.0,0.0,0.0,0.0,0.0,0.0,0.0,0.0,0.0,0.0,0.0,0.0,0.0,0.0,0.0,0.0,0.0,0.0,0.0,0.0,0.0,0.0,0.0,0.0,0.0,0.0,0.0,0.0,0.0,0.0,0.0,0.0,0.0,0.0,0.0,0.0,0.0,0.0,0.0,0.0,0.0,0.0,0.0,0.0,0.0,0.0,0.0,0.0,0.0,0.0,0.0,0.0,0.0,0.0,0.0,0.0,0.0,0.0,0.0,0.0,0.0,0.0,0.0,0.0,0.0,0.0,0.0,0.0,0.0,0.0,0.0,0.0,0.0,0.0,0.0,0.0,0.0,0.0,0.0,0.0,0.0,0.0,0.0,0.0,0.0,0.0,0.0,0.0,0.0,0.0,0.0,7.5207,7.9889,8.2729,8.2427,7.8794,7.3492,6.8814,0.0,0.0,0.0,0.0,0.0,0.0,0.0,0.0,0.0,0.0,0.0,0.0,0.0,0.0,0.0,0.0,0.0,0.0,0.0,0.0,0.0,0.0,0.0,0.0,0.0,0.0,0.0,0.0,0.0,0.0,0.0,0.0,0.0,0.0,0.0,0.0,0.0,0.0,0.0,0.0,0.0,0.0,0.0,0.0,0.0,0.0,0.0,0.0,0.0,0.0,0.0,0.0,0.0,0.0,0.0,0.0,0.0,0.0,0.0,0.0,0.0,0.0,0.0,0.0,0.0,0.0,0.0,0.0,0.0,0.0,0.0,0.0,0.0,0.0,0.0,0.0,0.0,0.0,0.0,0.0,0.0,0.0,0.0,0.0,0.0,0.0,0.0,0.0,0.0,0.0,0.0,0.0,0.0,0.0,0.0,0.0,0.0,0.0,0.0,0.0,0.0,0.0,0.0,0.0,0.0,0.0,0.0,0.0,7.8879,8.3051,8.6363,8.7223,8.5446,7.887,7.2526,0.0,0.0,0.0,0.0,0.0,0.0,0.0,0.0,0.0,0.0,0.0,0.0,0.0,0.0,0.0,0.0,0.0,0.0,0.0,0.0,0.0,0.0,0.0,0.0,0.0,0.0,0.0,0.0,0.0,0.0,0.0,0.0,0.0,0.0,0.0,0.0,0.0,0.0,0.0,0.0,0.0,0.0,0.0,0.0,0.0,0.0,0.0,0.0,0.0,0.0,0.0,0.0,0.0,0.0,0.0,0.0,0.0,0.0,0.0,0.0,0.0,0.0,0.0,0.0,0.0,0.0,0.0,0.0,0.0,0.0,0.0,0.0,0.0,0.0,0.0,0.0,0.0,0.0,0.0,0.0,0.0,0.0,0.0,0.0,0.0,0.0,0.0,0.0,0.0,0.0,0.0,0.0,0.0,0.0,0.0,0.0,0.0,0.0,0.0,0.0,0.0,0.0,0.0,0.0,0.0,0.0,0.0,0.0,8.0524,8.4693,8.7508,8.8429,8.7338,8.0035,7.3963,0.0,0.0,0.0,0.0,0.0,0.0,0.0,0.0,0.0,0.0,0.0,0.0,0.0,0.0,0.0,0.0,0.0,0.0,0.0,0.0,0.0,0.0,0.0,0.0,0.0,0.0,0.0,0.0,0.0,0.0,0.0,0.0,0.0,0.0,0.0,0.0,0.0,0.0,0.0,0.0,0.0,0.0,0.0,0.0,0.0,0.0,0.0,0.0,5.787,0.0,0.0,0.0,0.0,0.0,0.0,0.0,0.0,0.0,0.0,0.0,0.0,0.0,0.0,0.0,0.0,0.0,0.0,0.0,0.0,0.0,0.0,0.0,0.0,0.0,0.0,0.0,0.0,0.0,0.0,0.0,0.0,0.0,0.0,0.0,0.0,0.0,0.0,0.0,0.0,0.0,0.0,0.0,0.0,0.0,0.0,0.0,0.0,0.0,0.0,0.0,0.0,0.0,0.0,0.0,0.0,0.0,0.0,0.0,8.2869,8.7,8.8855,8.9549,8.889,8.2782,7.6827,0.0,0.0,0.0,0.0,0.0,0.0,0.0,0.0,0.0,0.0,0.0,0.0,0.0,0.0,0.0,0.0,0.0,0.0,0.0,0.0,0.0,0.0,0.0,0.0,0.0,0.0,0.0,0.0,0.0,0.0,0.0,0.0,0.0,0.0,0.0,0.0,0.0,0.0,0.0,0.0,0.0,0.0,0.0,0.0,0.0,0.0,0.0,0.0,0.0,0.0,0.0,0.0,0.0,0.0,0.0,0.0,0.0,0.0,0.0,0.0,0.0,0.0,0.0,0.0,0.0,0.0,0.0,0.0,0.0,0.0,0.0,0.0,0.0,0.0,0.0,0.0,0.0,0.0,0.0,0.0,0.0,0.0,0.0,0.0,0.0,0.0,0.0,0.0,0.0,0.0,0.0,0.0,0.0,0.0,0.0,0.0,0.0,0.0,0.0,0.0,0.0,0.0,0.0,0.0,0.0,0.0,0.0,8.0703,8.5272,8.921,9.0325,9.0673,9.0323,8.5683,7.9996,0.0,0.0,0.0,0.0,0.0,0.0,0.0,0.0,0.0,0.0,0.0,0.0,0.0,0.0,0.0,0.0,0.0,0.0,0.0,0.0,0.0,0.0,0.0,0.0,0.0,0.0,0.0,0.0,0.0,0.0,0.0,0.0,0.0,0.0,0.0,0.0,0.0,0.0,0.0,5.6707,5.8258,0.0,0.0,0.0,0.0,0.0,0.0,0.0,0.0,5.7628,0.0,0.0,0.0,0.0,0.0,0.0,0.0,0.0,0.0,0.0,0.0,0.0,0.0,0.0,0.0,0.0,0.0,0.0,0.0,0.0,0.0,0.0,0.0,0.0,0.0,0.0,0.0,0.0,0.0,0.0,0.0,0.0,0.0,0.0,0.0,0.0,0.0,0.0,0.0,0.0,0.0,0.0,0.0,0.0,0.0,0.0,0.0,0.0,0.0,0.0,0.0,0.0,0.0,0.0,0.0,0.0,7.8293,8.2725,8.6671,9.0131,9.1753,9.1869,9.0402,8.684,8.1675,7.5024,0.0,0.0,0.0,0.0,0.0,0.0,0.0,0.0,0.0,0.0,0.0,0.0,0.0,0.0,0.0,0.0,0.0,0.0,0.0,0.0,0.0,0.0,0.0,0.0,0.0,0.0,0.0,0.0,0.0,0.0,0.0,0.0,0.0,0.0,0.0,0.0,0.0,0.0,0.0,6.1223,6.1912,0.0,0.0,0.0,0.0,0.0,0.0,0.0,0.0,5.9571,0.0,0.0,0.0,0.0,0.0,0.0,0.0,0.0,0.0,0.0,0.0,0.0,0.0,0.0,0.0,0.0,0.0,0.0,0.0,0.0,0.0,0.0,0.0,0.0,0.0,0.0,0.0,0.0,0.0,0.0,0.0,0.0,0.0,0.0,0.0,0.0,0.0,0.0,0.0,0.0,0.0,0.0,0.0,0.0,0.0,0.0,0.0,0.0,0.0,0.0,0.0,0.0,0.0,0.0,0.0,7.9032,8.4899,8.9193,9.1677,9.2565,9.2582,9.1578,8.71,8.2205,0.0,0.0,0.0,0.0,0.0,0.0,0.0,0.0,0.0,0.0,0.0,0.0,0.0,0.0,0.0,0.0,0.0,0.0,0.0,0.0,0.0,0.0,0.0,0.0,0.0,0.0,0.0,0.0,0.0,0.0,0.0,0.0,0.0,0.0,0.0,0.0,0.0,0.0,0.0,0.0,6.2987,6.3791,6.3759,0.0,0.0,0.0,0.0,0.0,0.0,6.0015,5.9497,0.0,0.0,0.0,0.0,0.0,0.0,0.0,0.0,0.0,0.0,0.0,0.0,0.0,0.0,0.0,0.0,0.0,0.0,0.0,0.0,0.0,0.0,0.0,0.0,0.0,0.0,0.0,0.0,0.0,0.0,0.0,0.0,0.0,0.0,0.0,0.0,0.0,0.0,0.0,0.0,0.0,0.0,0.0,0.0,0.0,0.0,0.0,0.0,0.0,0.0,0.0,0.0,0.0,0.0,0.0,7.9607,8.6699,9.1341,9.3145,9.34,9.3284,9.2718,8.7424,8.2594,0.0,0.0,0.0,0.0,0.0,0.0,0.0,0.0,0.0,0.0,0.0,0.0,0.0,0.0,0.0,0.0,0.0,0.0,0.0,0.0,0.0,0.0,0.0,0.0,0.0,0.0,0.0,0.0,0.0,0.0,0.0,0.0,0.0,0.0,0.0,0.0,0.0,0.0,0.0,0.0,0.0,6.5512,6.5475,6.3444,0.0,0.0,0.0,0.0,6.1946,6.127,0.0,0.0,0.0,0.0,0.0,0.0,0.0,0.0,0.0,0.0,0.0,0.0,0.0,0.0,0.0,0.0,0.0,0.0,0.0,0.0,0.0,0.0,0.0,0.0,0.0,0.0,0.0,0.0,0.0,0.0,0.0,0.0,0.0,0.0,0.0,0.0,0.0,0.0,0.0,0.0,0.0,0.0,0.0,0.0,0.0,0.0,0.0,0.0,0.0,0.0,0.0,0.0,0.0,0.0,0.0,0.0,8.1231,8.7323,9.166,9.3963,9.474,9.4385,9.2793,8.8441,8.3439,0.0,0.0,0.0,0.0,0.0,0.0,0.0,0.0,0.0,0.0,0.0,0.0,0.0,0.0,0.0,0.0,0.0,0.0,0.0,0.0,0.0,0.0,0.0,0.0,0.0,0.0,0.0,0.0,0.0,0.0,0.0,0.0,0.0,0.0,0.0,0.0,0.0,0.0,0.0,0.0,0.0,6.7308,6.7301,6.5742,6.4497,0.0,0.0,0.0,6.5586,6.672,0.0,0.0,0.0,0.0,0.0,0.0,0.0,0.0,0.0,0.0,0.0,0.0,0.0,0.0,0.0,0.0,0.0,0.0,0.0,0.0,0.0,0.0,0.0,0.0,0.0,0.0,0.0,0.0,0.0,0.0,0.0,0.0,0.0,0.0,0.0,0.0,0.0,0.0,0.0,0.0,0.0,0.0,0.0,0.0,0.0,0.0,0.0,0.0,0.0,0.0,0.0,0.0,0.0,0.0,0.0,0.0,8.1615,8.8796,9.3301,9.4817,9.52,9.4748,9.3426,8.7881,8.2514,0.0,0.0,0.0,0.0,0.0,0.0,0.0,0.0,0.0,0.0,0.0,0.0,0.0,0.0,0.0,0.0,0.0,0.0,0.0,0.0,0.0,0.0,0.0,0.0,0.0,0.0,0.0,0.0,0.0,0.0,0.0,0.0,0.0,0.0,0.0,0.0,0.0,0.0,0.0,0.0,0.0,0.0,6.8971,6.8297,0.0,0.0,0.0,6.7502,6.7012,0.0,0.0,0.0,0.0,0.0,0.0,0.0,0.0,0.0,0.0,0.0,0.0,0.0,0.0,0.0,0.0,0.0,0.0,0.0,0.0,0.0,0.0,0.0,0.0,0.0,0.0,0.0,0.0,0.0,0.0,0.0,0.0,0.0,0.0,0.0,0.0,0.0,0.0,0.0,0.0,0.0,0.0,0.0,0.0,0.0,0.0,0.0,0.0,0.0,0.0,0.0,0.0,0.0,0.0,0.0,0.0,0.0,8.2163,9.0034,9.4638,9.5619,9.5617,9.5039,9.3817,8.81,0.0,0.0,0.0,0.0,0.0,0.0,0.0,0.0,0.0,0.0,0.0,0.0,0.0,0.0,0.0,0.0,0.0,0.0,0.0,0.0,0.0,0.0,0.0,0.0,0.0,0.0,0.0,4.9157,0.0,0.0,0.0,0.0,0.0,0.0,0.0,0.0,0.0,0.0,0.0,0.0,0.0,0.0,7.0179,7.0618,7.068,7.068,0.0,0.0,6.9674,6.9433,7.0423,6.9436,0.0,0.0,0.0,0.0,0.0,0.0,0.0,0.0,0.0,0.0,0.0,0.0,0.0,0.0,0.0,0.0,0.0,0.0,0.0,0.0,0.0,0.0,0.0,0.0,0.0,0.0,0.0,0.0,0.0,0.0,0.0,0.0,0.0,0.0,0.0,0.0,0.0,0.0,0.0,0.0,0.0,0.0,0.0,0.0,0.0,0.0,0.0,0.0,0.0,0.0,0.0,0.0,0.0,0.0,0.0,8.3784,9.0586,9.4877,9.6344,9.6378,9.5557,9.3892,9.0308,8.5154,0.0,0.0,0.0,0.0,0.0,0.0,0.0,0.0,0.0,0.0,0.0,0.0,0.0,0.0,0.0,0.0,0.0,0.0,0.0,0.0,0.0,0.0,0.0,0.0,0.0,0.0,0.0,0.0,0.0,0.0,0.0,0.0,0.0,0.0,0.0,0.0,0.0,0.0,0.0,0.0,0.0,7.0697,7.2291,7.2486,7.3244,0.0,0.0,7.2834,7.4253,7.457,7.2617,6.6717,0.0,0.0,0.0,0.0,0.0,0.0,0.0,0.0,0.0,0.0,0.0,0.0,0.0,0.0,0.0,0.0,0.0,0.0,0.0,0.0,0.0,0.0,0.0,0.0,0.0,0.0,0.0,0.0,0.0,0.0,0.0,0.0,0.0,0.0,0.0,0.0,0.0,0.0,0.0,0.0,0.0,0.0,0.0,0.0,0.0,0.0,0.0,0.0,0.0,0.0,0.0,0.0,0.0,8.0449,8.4706,9.1328,9.5279,9.6369,9.6395,9.5537,9.3807,8.9962,8.4703,0.0,0.0,0.0,0.0,0.0,0.0,0.0,0.0,0.0,0.0,0.0,0.0,0.0,0.0,0.0,0.0,0.0,0.0,0.0,0.0,0.0,0.0,0.0,0.0,0.0,0.0,0.0,0.0,5.4092,5.4593,5.4996,0.0,0.0,0.0,0.0,0.0,0.0,0.0,0.0,0.0,0.0,7.4006,7.6273,7.6966,0.0,0.0,7.7117,7.6308,7.5873,7.5313,7.3058,6.7628,6.4977,0.0,0.0,0.0,0.0,0.0,0.0,0.0,0.0,0.0,0.0,0.0,0.0,0.0,0.0,0.0,0.0,0.0,0.0,0.0,0.0,0.0,0.0,0.0,0.0,0.0,0.0,0.0,0.0,0.0,0.0,0.0,0.0,0.0,0.0,0.0,0.0,0.0,0.0,0.0,0.0,0.0,0.0,0.0,0.0,0.0,0.0,0.0,0.0,0.0,0.0,0.0,0.0,8.0907,8.5134,9.1711,9.5522,9.6352,9.6322,9.548,9.3676,9.0096,8.5188,0.0,0.0,0.0,0.0,0.0,0.0,0.0,0.0,0.0,0.0,0.0,0.0,0.0,0.0,0.0,0.0,0.0,0.0,0.0,0.0,0.0,0.0,0.0,0.0,0.0,0.0,0.0,0.0,5.5756,5.5912,5.5949,0.0,0.0,0.0,0.0,0.0,0.0,0.0,0.0,0.0,0.0,7.6741,7.9025,7.9655,7.9737,7.9412,7.8447,7.7372,7.6414,7.5295,7.3107,6.8987,0.0,0.0,0.0,0.0,0.0,0.0,0.0,0.0,0.0,0.0,0.0,0.0,0.0,0.0,0.0,0.0,0.0,0.0,0.0,0.0,0.0,0.0,0.0,0.0,0.0,0.0,0.0,0.0,0.0,0.0,0.0,0.0,0.0,0.0,0.0,0.0,0.0,0.0,0.0,0.0,0.0,0.0,0.0,0.0,0.0,0.0,0.0,0.0,0.0,0.0,0.0,0.0,0.0,0.0,8.5118,9.1712,9.553,9.6256,9.6285,9.5478,9.371,9.1203,8.7327,8.1984,0.0,0.0,0.0,0.0,0.0,0.0,0.0,0.0,0.0,0.0,0.0,0.0,0.0,0.0,0.0,0.0,0.0,0.0,0.0,0.0,0.0,0.0,0.0,0.0,0.0,0.0,5.4699,5.5365,5.5938,0.0,0.0,0.0,0.0,0.0,0.0,0.0,0.0,0.0,0.0,7.439,7.8256,7.9952,7.9551,7.9483,8.0122,7.7409,7.5443,7.6205,7.4826,7.3001,0.0,0.0,0.0,0.0,0.0,0.0,0.0,0.0,0.0,0.0,0.0,0.0,0.0,0.0,0.0,0.0,0.0,0.0,0.0,0.0,0.0,0.0,0.0,0.0,0.0,0.0,0.0,5.9527,5.9463,0.0,0.0,0.0,0.0,0.0,0.0,0.0,0.0,0.0,0.0,0.0,7.0245,7.1674,0.0,0.0,0.0,0.0,0.0,0.0,0.0,0.0,0.0,0.0,0.0,0.0,8.2143,8.5932,9.2481,9.6046,9.6285,9.6283,9.5448,9.3657,9.1693,8.7111,7.9644,0.0,0.0,0.0,0.0,0.0,0.0,0.0,0.0,0.0,0.0,0.0,0.0,0.0,0.0,0.0,0.0,0.0,0.0,0.0,0.0,0.0,0.0,0.0,0.0,0.0,5.5849,0.0,0.0,0.0,0.0,0.0,0.0,0.0,0.0,0.0,0.0,0.0,6.9577,7.2899,7.6295,7.9021,8.068,8.166,8.229,0.0,0.0,0.0,0.0,0.0,0.0,0.0,0.0,0.0,0.0,0.0,0.0,0.0,0.0,6.9369,6.4385,6.3449,6.3716,6.4682,0.0,0.0,0.0,0.0,0.0,0.0,0.0,0.0,0.0,0.0,0.0,0.0,0.0,0.0,0.0,0.0,6.1853,0.0,0.0,0.0,0.0,0.0,0.0,0.0,0.0,7.1724,7.3753,7.4999,7.639,7.6085,0.0,7.3825,7.1094,0.0,0.0,0.0,0.0,0.0,0.0,0.0,0.0,8.3241,8.6748,9.3017,9.6283,9.6281,9.6253,9.5511,9.4026,9.1423,8.6839,8.0085,7.4726,7.0552,0.0,0.0,0.0,0.0,0.0,0.0,0.0,0.0,0.0,0.0,0.0,0.0,0.0,0.0,0.0,0.0,0.0,0.0,0.0,0.0,0.0,0.0,0.0,5.7709,0.0,0.0,0.0,0.0,0.0,0.0,0.0,0.0,0.0,6.7461,7.0253,7.344,7.677,7.9389,8.1266,8.2073,0.0,0.0,0.0,0.0,0.0,0.0,0.0,7.5936,7.574,7.4308,7.3456,7.4277,7.5297,7.5927,7.5656,0.0,0.0,6.9754,6.8817,6.9282,7.0249,7.0632,7.1036,7.1835,7.2228,7.2576,0.0,0.0,0.0,0.0,0.0,0.0,0.0,0.0,6.8022,6.721,0.0,6.5777,0.0,0.0,0.0,0.0,0.0,0.0,0.0,0.0,7.8875,8.0884,8.0196,8.0999,8.0503,7.8813,7.8727,7.7416,7.483,7.0869,0.0,0.0,0.0,0.0,0.0,0.0,8.416,8.7624,9.3316,9.6276,9.6269,9.6146,9.5668,9.4657,9.0488,8.6664,8.3368,7.9145,7.5314,7.1953,6.7143,0.0,0.0,0.0,0.0,0.0,0.0,0.0,0.0,0.0,0.0,0.0,0.0,0.0,0.0,0.0,0.0,0.0,0.0,0.0,0.0,6.0358,0.0,0.0,0.0,0.0,0.0,0.0,0.0,0.0,0.0,0.0,7.0623,7.389,7.7618,8.0816,0.0,0.0,0.0,0.0,8.4207,8.1896,8.0715,8.0157,8.019,7.9323,7.8944,7.9821,0.0,0.0,7.8946,7.8814,7.8727,7.7877,7.9863,8.0285,7.7051,7.568,7.5379,7.616,7.5848,7.5555,7.6295,7.7255,7.7725,7.4514,0.0,0.0,0.0,0.0,7.0101,7.1803,7.4875,7.3065,7.1795,7.0865,6.9677,0.0,0.0,0.0,0.0,0.0,0.0,7.4878,7.9029,8.1152,8.3127,8.504,8.5887,8.5606,8.4356,8.3784,8.2787,8.1436,7.9657,7.5737,6.9937,0.0,0.0,0.0,0.0,8.582,8.9217,9.377,9.6105,9.6034,9.5968,9.5261,9.3759,9.011,8.7393,8.5816,8.2815,7.9362,7.5429,7.2219,0.0,0.0,0.0,0.0,0.0,0.0,0.0,0.0,0.0,0.0,0.0,0.0,0.0,0.0,0.0,0.0,0.0,0.0,0.0,6.0316,6.1743,6.2089,0.0,0.0,0.0,0.0,0.0,0.0,0.0,0.0,0.0,7.852,7.8845,7.9516,0.0,0.0,8.2836,8.198,8.362,8.4902,8.4793,0.0,0.0,0.0,8.314,8.2443,8.3281,8.4409,8.516,8.4875,8.5368,8.5702,8.5411,8.6025,8.617,8.5196,8.287,8.153,8.219,8.2211,8.2315,8.3122,8.3499,8.3535,8.0944,7.6717,7.4399,7.3992,7.4932,7.4524,7.6208,7.9083,7.7543,7.6505,7.5813,7.4821,7.2622,6.9643,6.9412,0.0,0.0,0.0,7.8619,8.2547,8.3965,8.5693,8.7565,8.8251,8.8079,8.7136,8.664,8.6141,8.5599,8.4797,8.1641,7.6352,0.0,0.0,7.944,8.3935,8.773,9.0788,9.4252,9.5973,9.591,9.556,9.4678,9.3221,9.0553,8.8677,8.7796,8.5356,8.2498,7.9326,7.6115,7.2017,0.0,0.0,0.0,0.0,0.0,0.0,0.0,0.0,0.0,0.0,0.0,5.7436,0.0,0.0,0.0,0.0,6.1444,6.3201,6.3778,6.5046,0.0,0.0,0.0,0.0,0.0,0.0,0.0,7.4889,7.8017,8.1033,8.3976,8.3817,8.3641,8.4098,8.4852,8.4948,8.3753,0.0,8.723,8.6769,8.6948,8.7131,8.718,8.6297,8.5792,8.6324,8.7202,8.7875,8.7918,8.8363,8.8673,8.8726,8.8953,8.9169,8.916,8.7705,8.6493,8.6501,8.6436,8.6612,8.7121,8.7156,8.7146,8.6393,8.5305,8.0053,7.829,7.8913,7.9106,8.0103,8.1551,8.1508,8.1049,8.04,8.0304,7.8617,7.5782,7.5238,0.0,0.0,8.0269,8.2465,8.4965,8.71,8.8216,8.8455,8.8877,8.8673,8.7958,8.7922,8.7928,8.7895,8.7221,8.6131,8.4614,8.3099,8.3078,8.4631,8.7176,8.9791,9.2445,9.4775,9.5959,9.5956,9.4928,9.3981,9.3118,9.1459,9.0111,8.9148,8.6953,8.4854,8.2965,7.9021,7.4957,7.0851,0.0,0.0,0.0,0.0,0.0,0.0,0.0,0.0,0.0,0.0,0.0,0.0,0.0,0.0,0.0,6.628,0.0,6.8891,6.9624,0.0,0.0,0.0,7.0823,7.2596,7.5632,7.8265,7.9908,0.0,0.0,0.0,0.0,8.9021,8.909,8.9624,8.9395,8.7825,8.959,9.0449,8.8251,8.8579,8.912,8.9266,8.9068,8.8947,8.8983,8.8927,8.8925,8.8981,8.9086,8.9043,8.9152,8.9601,9.0128,9.0101,9.0637,9.0825,8.9254,8.8908,8.8872,8.8912,8.8992,8.9073,8.8859,8.8039,8.6146,8.4896,8.4107,8.4053,8.4656,8.5566,8.4905,8.3945,8.283,8.2152,8.087,7.9235,7.9751,8.0974,8.2736,8.3852,8.5711,8.8091,8.8569,8.9049,8.9578,8.959,8.9397,8.9049,8.9002,8.9058,8.9147,8.8893,8.8655,8.8457,8.798,8.6989,8.5688,8.9098,9.1858,9.3705,9.5607,9.6599,9.6596,9.446,9.3243,9.3071,9.1351,8.9702,8.8134,8.7719,8.6014,8.2914,8.1327,7.8311,7.3543,6.9075,0.0,0.0,0.0,0.0,0.0,0.0,0.0,0.0,0.0,6.1972,5.8546,0.0,6.4004,0.0,6.9435,7.2545,7.3124,7.3393,0.0,0.0,7.378,7.4703,7.7667,7.9305,8.085,8.2483,8.5492,8.7957,8.9169,9.0633,9.1797,9.2339,9.1544,9.0515,8.9551,9.0938,9.2004,9.1442,9.1869,9.252,9.2351,9.1973,9.1556,9.1597,9.1052,9.0629,9.0594,9.116,9.1586,9.1619,9.1723,9.1873,9.1847,9.2069,9.2058,9.1635,9.1095,9.0594,9.0633,9.1108,9.1582,9.0494,9.0095,8.9724,8.9128,8.8377,8.6889,8.6738,8.7512,8.6616,8.602,8.5669,8.4854,8.4145,8.3575,8.4054,8.4748,8.5537,8.6415,8.7593,8.8971,8.9517,8.999,9.0418,9.0206,9.0042,8.989,8.9513,8.9368,8.9443,8.9804,9.0062,9.0304,9.0944,9.0444,8.8957,9.0924,9.2661,9.3967,9.5257,9.6133,9.6482,9.4026,9.2417,9.1811,9.0072,8.8164,8.6178,8.5753,8.4212,8.1364,8.0313,7.8101,7.4373,7.0451,6.7159,0.0,0.0,0.0,0.0,0.0,0.0,0.0,0.0,0.0,0.0,0.0,6.8014,0.0,0.0,0.0,7.6934,7.7627,7.8438,7.9288,7.9631,8.0666,8.2939,8.4298,8.5377,8.6326,8.8741,9.0703,9.1513,9.2751,9.3869,9.4612,9.3953,9.2948,9.1905,9.2717,9.3405,9.3105,9.3434,9.3674,9.3674,9.329,9.3007,9.3009,9.2633,9.2326,9.2328,9.2706,9.3054,9.3031,9.2991,9.2977,9.2992,9.2975,9.2977,9.2863,9.2574,9.2308,9.2317,9.266,9.2988,9.1665,9.1665,9.1556,9.1548,9.1435,8.8667,8.7863,8.8435,8.7671,8.7633,8.8146,8.7371,8.7158,8.7317,8.7377,8.7341,8.7291,8.8184,8.8691,8.8883,9.0194,9.0922,9.1092,9.0759,9.0614,9.0576,8.9868,8.9498,8.956,9.0377,9.0884,9.1106,9.2489,9.2934,9.243,9.2491,9.3053,9.412,9.4632,9.5318,9.6151,9.3614,9.1548,9.006,8.8226,8.6191,8.3947,8.292,8.1421,7.9302,7.8255,7.6796,7.4709,7.1377,6.9205,0.0,6.644,0.0,0.0,0.0,0.0,0.0,0.0,0.0,0.0,7.1281,7.3051,7.5472,7.8588,8.055,8.0742,8.2083,8.3273,8.4174,8.5545,8.6773,8.7632,8.9115,9.012,9.0208,9.1769,9.3115,9.371,9.4593,9.5393,9.6016,9.6092,9.5545,9.4592,9.477,9.4911,9.4238,9.4158,9.4393,9.4174,9.3924,9.379,9.3842,9.3676,9.3713,9.3597,9.3756,9.3869,9.3864,9.3827,9.376,9.3768,9.3877,9.3911,9.3843,9.4127,9.4196,9.3687,9.3647,9.3753,9.248,9.2409,9.1777,9.1532,9.1482,9.0872,9.0418,9.0029,8.9721,8.902,8.7977,8.7244,8.6943,8.6971,8.6993,8.739,8.8047,8.8868,8.9602,9.0322,9.1127,9.1525,9.1569,9.1386,9.1298,9.1294,9.1148,9.1125,9.1226,9.1304,9.1466,9.1701,9.1939,9.198,0.0,0.0,0.0,0.0,9.5777,9.573,9.6107,9.2793,9.037,8.907,8.71,0.0,8.2554,8.2548,8.1322,7.8623,7.9363,0.0,0.0,0.0,0.0,0.0,0.0,0.0,0.0,0.0,0.0,0.0,7.4709,7.3981,7.2058,7.563,7.8859,8.0708,8.2745,8.4474,8.5822,8.6138,8.6665,8.7626,8.7912,8.8394,8.9346,9.0364,9.1212,9.1979,9.3477,9.4597,9.4747,9.5417,9.6167,9.6866,9.6881,9.7017,9.7334,9.6984,9.6833,9.6704,9.6484,9.6258,9.5738,9.5068,9.4768,9.4649,9.4138,9.3824,9.386,9.4405,9.4763,9.4815,9.4641,9.4674,9.475,9.5208,9.5617,9.5593,9.6644,9.6803,9.4095,9.4044,9.4471,9.3355,0.0,9.2908,9.2757,0.0,9.2757,9.2312,9.1505,9.0593,8.9597,8.8581,8.8199,8.8076,8.8165,8.8515,8.8897,8.9383,9.0104,9.0679,9.1131,9.1841,9.2171,9.2212,9.2141,9.2112,9.2071,9.1699,9.1509,9.161,9.1922,9.2411,9.3039,9.3335,9.3751,9.4207,9.525,9.6313,9.7387,9.6067,9.5694,9.6203,9.3255,9.075,8.891,0.0,0.0,0.0,0.0,0.0,0.0,0.0,0.0,0.0,0.0,0.0,7.5944,7.5248,7.4879,7.5006,7.6283,7.7773,7.9459,8.1146,8.0918,7.8052,8.1364,8.3899,8.4747,8.5973,8.7177,8.8412,8.8479,8.8743,8.9677,9.0101,9.0492,9.1085,9.1837,9.2563,9.3136,9.4584,9.5638,9.5559,9.6631,9.7377,9.7686,9.7683,9.7793,9.8189,9.8053,9.7864,9.7888,9.7815,9.7621,9.7283,9.6884,9.6358,9.6145,9.6057,9.5884,9.5507,9.6174,9.6779,9.677,9.6727,9.6684,9.6744,9.7053,9.7255,9.7188,9.7811,9.7967,9.6072,9.6132,9.648,9.4004,9.4004,9.4004,9.4004,9.4004,9.4004,9.3501,9.2589,0.0,0.0,0.0,8.9594,8.969,8.9818,9.0433,9.0682,9.0747,9.1418,9.1706,9.174,9.2559,9.2931,9.2931,9.2934,9.2931,9.2893,9.2266,9.1931,9.1965,9.2747,9.3559,9.4397,9.5187,9.6003,9.679,9.7209,9.7535,9.7727,9.6039,9.5416,9.6047,9.3664,9.1249,8.8922,8.7927,8.5698,8.2095,8.1891,8.0941,7.9087,7.8946,7.9182,7.9693,7.8728,7.8712,7.9916,8.018,8.0373,8.0624,8.2149,8.3502,8.443,8.6486,8.6935,8.502,8.684,8.8107,8.8263,8.896,8.9638,9.0162,9.0261,9.0549,9.1292,9.1931,9.2308,9.2526,9.3268,9.3848,9.4196,9.5507,9.6475,9.6563,9.7651,9.8547,9.8533,9.8506,9.8577,9.8657,9.8624,9.8535,9.8608,9.855,9.8464,9.8358,9.8218,9.8041,9.7465,9.7935,9.8183,9.7759,9.8057,9.8509,9.8353,9.8548,9.8406,9.8446,9.8487,9.8604,9.8415,9.8568,9.8722,9.8589,9.8618,9.8549,9.4004,9.4004,9.4004,9.4004,9.4004,9.4004,9.3501,9.263,9.1736,9.1262,9.1175,9.1175,9.1178,9.1199,9.1294,9.1359,9.1434,9.2153,9.2521,0.0,9.3426,9.3805,9.3809,9.3809,9.3809,9.3809,9.37,9.3659,9.3734,9.444,9.4935,9.5146,9.5848,9.6606,9.7259,9.7388,9.7683,9.821,9.5952,9.4863,9.5065,9.2463,9.0348,8.8774,8.7689,8.5896,8.345,8.3498,8.2686,8.0885,8.1883,8.252,8.2351,8.2519,8.3127,8.4283,8.4419,8.4904,8.5852,8.626,8.7095,8.859,8.9647,9.0131,8.9984,9.0275,9.0813,9.1507,9.2254,9.256,9.1944,9.2257,9.2646,9.291,9.3049,9.3113,9.3293,9.4056,9.4881,9.5531,9.6434,9.7393,9.7943,9.8296,9.8733,9.9168,9.9287,9.9457,9.9906,9.9753,9.9408,9.9409,9.9335,9.8998,9.8657,9.8312,9.8369,9.8249,9.8364,9.855,9.8349,9.8515,9.87,9.8515,9.8598,9.8535,9.8547,9.902,9.9313,9.9318,9.9758,10.0197,10.0031,10.0071,9.9723,9.53,9.53,9.53,9.5296,9.5296,9.53,9.4849,9.4057,9.3685,9.272,9.1522,9.1484,9.1484,9.1518,9.1962,9.2146,9.2187,9.3013,9.3389,9.3464,9.4252,9.4628,9.4703,9.5112,9.53,9.5296,9.5296,9.53,9.5334,9.5709,9.6085,9.6577,9.7357,9.7827,9.7922,9.7944,9.8005,9.8083,9.672,9.5988,9.5934,9.3887,9.2191,9.1042,9.007,8.8688,8.6758,8.6846,8.638,8.5153,8.5753,8.6194,8.6343,8.6352,8.6509,8.6787,8.6884,8.6998,8.7087,8.8169,8.9407,9.0694,9.142,9.2038,9.2653,9.2453,9.2471,9.2858,9.3231,9.3215,9.2743,9.2988,9.317,9.3217,9.3599,9.4074,9.4671,9.5458,9.6285,9.7142,9.8001,9.8673,9.8949,9.9398,9.972,10.0081,10.006,10.0225,10.0522,10.0317,10.0116,10.0122,10.0095,9.9922,9.9605,9.9579,9.9372,9.9036,9.931,9.9386,9.9171,9.9324,9.9652,9.9695,9.9693,9.9734,9.9698,9.9966,10.0143,10.0155,10.0376,10.0583,10.0436,10.0257,9.9928,9.6362,9.6358,9.6396,9.6407,9.6407,9.6407,9.6036,9.5484,9.545,9.4286,9.2491,9.2153,9.204,9.2119,9.2713,9.3081,9.3306,9.3768,9.4109,9.4327,9.4846,9.5075,9.5067,9.5897,9.6193,9.5957,9.6156,9.6302,9.6182,9.6452,9.7098,9.7962,9.8596,9.8725,9.8399,9.839,9.8217,9.7898,9.7499,9.7127,9.6783,9.5384,9.4165,9.3306,9.262,9.1502,8.9953,8.9945,8.966,8.9003,8.9007,8.9261,8.9639,8.953,8.9299,8.8981,8.9051,8.8907,8.8511,8.983,9.1188,9.2212,9.2865,9.3596,9.4228,9.4204,9.3917,9.3662,9.3756,9.3774,9.3543,9.3668,9.3685,9.3723,9.4452,9.5252,9.5984,9.6757,9.7588,9.8522,9.923,9.9611,9.9846,10.0321,10.0631,10.0551,10.0601,10.0601,10.0601,10.0601,10.0601,10.0601,10.0601,10.0524,10.0601,10.053,10.0266,9.9725,10.0154,10.0168,9.9921,10.0317,10.0634,10.0635,10.0731,10.071,10.0732,10.0717,10.0629,10.0478,10.0465,10.039,10.0155,9.998,9.9877,9.6238,9.6224,9.6384,9.6407,9.6483,9.6445,9.6411,9.6302,9.6299,9.5781,9.4699,9.4068,9.3737,9.3775,9.3809,9.4184,9.4774,9.4293,9.4365,9.494,9.4984,9.4658,9.4335,9.5562,9.5532,9.4662,9.5674,9.6041,9.5668,9.6754,9.7807,9.8694,9.8852,9.8721,9.8423,9.8386,9.8217,9.7905,9.7856,9.7452,9.6617,9.5758,9.4899,9.4107,9.3991,9.3174,9.1539,9.1477,9.1125,9.0414,9.0621,9.0804,9.0887,9.1093,9.1327,9.1486,9.153,9.1719,9.2049,9.2133,9.2572,9.361,9.448,9.4992,9.5141,9.5769,9.5547,9.4569,9.4952,9.5028,9.4477,9.4853,9.5178,9.5265,9.5958,9.6709,9.6917,9.7517,9.8325,9.9224,9.9444,9.9683,10.0327,10.0556,10.0583,10.0607,10.0601,10.0601,10.0601,10.0601,10.0601,10.0598,10.0595,10.0575,10.0566,10.0592,10.0469,10.041,10.0513,10.0472,10.0442,10.046,10.061,10.0662,10.0662,10.0644,10.0627,10.061,10.0527,10.0323,10.0224,10.0126,9.992,9.9771,9.9744,9.7487,9.754,9.7628,9.7757,9.7864,9.7741,9.7491,9.7136,9.6603,9.5931,9.5225,9.4857,9.4444,9.4004,9.4004,9.4184,9.444,9.404,9.3991,9.4351,9.461,9.465,9.4558,9.5519,9.5926,9.591,9.6517,9.6887,9.7175,9.7806,9.8348,9.867,9.8715,9.8548,9.8267,9.8242,9.8116,9.7905,9.7896,9.7747,9.733,9.6554,9.5733,9.4957,9.4437,9.3657,9.262,9.2472,9.2323,9.2009,9.2313,9.2455,9.2459,9.2806,9.2804,9.2437,9.2079,9.2007,9.2231,9.3314,9.4205,9.4643,9.5914,9.6614,9.6477,9.6774,9.6407,9.53,9.5121,9.5024,9.476,9.4935,9.5378,9.6004,9.6459,9.7087,9.8303,9.8655,9.919,9.9957,10.0107,10.0216,10.0524,10.0601,10.0601,10.0601,10.0595,10.0575,10.0592,10.0601,10.0601,10.0563,10.0482,10.0368,10.0345,10.0203,10.0228,10.0334,10.038,10.0363,10.056,10.0598,10.0601,10.0598,10.0601,10.0601,10.0607,10.0462,10.0293,10.0123,9.9829,9.9597,9.9516,9.9387,9.9272,9.8325,9.8345,9.8475,9.8616,9.8748,9.8596,9.8312,9.786,9.7219,9.6469,9.5765,9.5727,9.5273,9.4617,9.4587,9.4722,9.4854,9.4324,9.4125,9.4333,9.4779,9.4885,9.4842,9.596,9.6594,9.6888,9.7229,9.7752,9.8361,9.8513,9.8564,9.86,9.8572,9.8398,9.8129,9.8095,9.8048,9.7913,9.7896,9.7896,9.7817,9.7256,9.655,9.5737,9.4953,9.414,9.3363,9.3326,9.3326,9.333,9.3607,9.3782,9.3804,9.389,9.3645,9.3133,9.2691,9.2511,9.2614,9.4235,9.5322,9.5718,9.7028,9.7706,9.7559,9.7505,9.7041,9.6058,9.5506,9.5304,9.5281,9.5186,9.5632,9.6733,9.7044,9.7816,9.9155,9.9493,9.9808,10.0386,10.0281,10.0389,10.0383,10.0368,10.0314,10.0352,10.0368,10.0389,10.0352,10.0368,10.0363,10.0342,10.012,10.0036,10.0114,9.999,9.9952,10.0006,10.0072,10.0203,10.0441,10.0489,10.0569,10.0551,10.058,10.0592,10.0575,10.0416,10.0069,9.9902,9.9545,9.9221,9.9181,9.9005,9.8947,9.8112,9.8137,9.8329,9.8407,9.8415,9.8407,9.8374,9.8302,9.824,9.7755,9.6982,9.6941,9.6547,9.5827,9.6109,9.662,9.6863,9.5488,9.5141,9.5638,9.5606,9.5275,9.4889,9.6882,9.7255,9.6297,9.7313,9.8038,9.837,9.8395,9.8488,9.8555,9.8518,9.8312,9.8182,9.8149,9.8035,9.7983,9.7933,9.7896,9.7896,9.7855,9.7372,9.6587,9.5774,9.4961,9.4255,9.4144,9.414,9.414,9.4247,9.4405,9.4565,9.4075,9.3878,9.3941,9.3951,9.4044,9.431,9.4997,9.5732,9.6637,9.7632,9.8117,9.8117,9.8117,9.7712,9.6828,9.6465,9.6324,9.6395,9.6073,9.6445,9.7711,9.8398,9.882,9.9364,9.9819,10.0101,10.0165,10.0039,9.993,9.987,9.9827,9.9884,9.989,9.9864,9.988,9.9901,9.9897,9.9898,9.9841,9.9679,9.9525,9.9999,9.9847,9.9731,9.9806,9.9806,9.9934,10.0066,10.0227,10.0395,10.0518,10.0572,10.0586,10.0551,10.0296,9.9919,9.9607,9.9274,9.8986,9.9005,9.8955,9.8893,9.8031,9.8087,9.8073,9.8179,9.837,9.8242,9.8287,9.8345,9.7789,9.7419,9.7162,9.712,9.6934,9.6714,9.7391,9.7228,9.6404,9.5718,9.5555,9.5743,9.5579,9.5384,9.5277,9.6049,9.6459,9.6496,9.6868,9.7531,9.8175,9.8192,9.8225,9.8383,9.8747,9.8882,9.8769,9.8739,9.8696,9.8602,9.8189,9.7896,9.7896,9.7896,9.7743,9.7413,9.6591,9.577,9.4994,9.4957,9.4734,9.4251,9.4338,9.448,9.4742,9.5178,9.5454,9.5529,9.5676,9.5782,9.5803,9.6718,9.7384,9.766,9.8584,9.9027,9.8934,9.8849,9.8478,9.7602,9.7298,9.7314,9.7298,9.6786,9.6727,9.7855,9.8306,9.8745,9.9437,9.9854,9.995,9.992,9.9738,9.9659,9.9711,9.9673,9.9659,9.9772,9.9786,9.9766,9.9803,9.979,9.9774,9.9731,9.9542,9.9343,9.9528,9.9381,9.9244,9.9392,9.9527,9.9768,9.9968,10.0085,10.0215,10.0427,10.0501,10.067,10.0668,10.0212,9.9786,9.9394,9.9037,9.9108,9.8893,9.9171,9.913,9.7928,9.8018,9.7948,9.8178,9.8564,9.8206,9.8265,9.8515,9.7736,9.7363,9.7363,9.7363,9.7363,9.7438,9.7997,9.7657,9.6563,9.6249,9.605,9.5984,9.5866,9.577,9.5844,9.6076,9.6484,9.6963,9.6996,9.7396,9.8,9.804,9.8194,9.8547,9.9013,9.9207,9.9102,9.9081,9.9006,9.8676,9.8156,9.7896,9.7896,9.7896,9.7896,9.7822,9.7293,9.6624,9.5848,9.5774,9.5547,9.5085,9.507,9.5094,9.5186,9.5902,9.6407,9.6434,9.652,9.6538,9.6498,9.7463,9.8046,9.7943,9.8849,9.9401,9.9211,9.9193,9.878,9.8245,9.8079,9.8185,9.8181,9.7678,9.7606,9.8432,9.8574,9.8834,9.9659,9.9711,9.961,9.949,9.9313,9.9294,9.9352,9.9243,9.9236,9.9412,9.9396,9.9433,9.9396,9.948,9.9463,9.9394,9.9272,9.9155,9.9316,9.9362,9.9182,9.9265,9.9429,9.9653,9.9923,10.002,10.0174,10.0361,10.0573,10.0797,10.0608,10.0149,9.9751,9.9366,9.9393,9.9551,9.9555,9.9653,9.977,9.797,9.7979,9.7933,9.8499,9.9017,9.8447,9.8462,9.8939,9.8298,9.7952,9.7965,9.7889,9.7804,9.7889,9.7924,9.7885,9.7742,9.7266,9.6869,9.6663,9.6633,9.6629,9.6661,9.7297,9.7673,9.778,9.7859,9.7912,9.8057,9.8004,9.833,9.9066,9.9159,9.9266,9.9155,9.9174,9.877,9.8209,9.799,9.7887,9.7892,9.7887,9.7896,9.7896,9.7822,9.7446,9.6661,9.6624,9.655,9.6476,9.6447,9.6319,9.6029,9.6393,9.6524,9.6599,9.6432,9.6317,9.6406,9.7119,9.7628,9.7736,9.8388,9.8966,9.8974,9.8947,9.889,9.8796,9.8784,9.8837,9.8807,9.8721,9.8847,9.9579,9.9286,9.9309,9.9558,9.9474,9.9196,9.8982,9.8809,9.8652,9.8608,9.8584,9.8596,9.8697,9.874,9.8752,9.8862,9.906,9.8912,9.8872,9.9206,9.9555,9.9501,9.9468,9.9322,9.9232,9.944,9.9653,10.0048,10.0258,10.0498,10.0703,10.1072,10.1274,10.1271,10.0815,10.038,10.0042,10.0071,10.0144,10.0234,10.0442,10.0797,9.9229,9.8825,9.9336,9.9675,9.9893,9.9633,9.9712,9.9819,9.9081,9.8709,9.8639,9.8156,9.7896,9.7933,9.7896,9.823,9.8681,9.8473,9.8097,9.7599,9.7483,9.7483,9.7562,9.7747,9.7896,9.7896,9.7896,9.7922,9.7965,9.7926,9.834,9.9046,9.9568,9.9773,9.9867,9.9769,9.9331,9.8579,9.8095,9.784,9.7702,9.7831,9.7929,9.7896,9.7896,9.7743,9.7525,9.7483,9.7182,9.6661,9.6587,9.6645,9.6888,9.763,9.8051,9.7949,9.7865,9.7803,9.7737,9.7911,9.8151,9.8251,9.8551,9.8746,9.8877,9.8931,9.8931,9.8931,9.8893,9.8893,9.8893,9.8893,9.9084,9.9175,9.9077,9.9066,9.9178,9.9137,9.902,9.8897,9.8649,9.8541,9.8528,9.8382,9.8378,9.8589,9.8679,9.8716,9.8728,9.9282,9.9565,9.952,9.9899,10.0112,10.0087,10.017,10.0181,10.0027,10.0001,10.006,10.0368,10.0625,10.0823,10.1104,10.1481,10.1701,10.1687,10.14,10.0917,10.0873,10.0952,10.0995,10.1045,10.1302,10.1679,10.0009,9.9638,10.0079,10.0488,10.0674,10.0451,10.0492,10.0595,9.9898,9.9559,9.9448,9.9043,9.8783,9.8783,9.8783,9.9081,9.9522,9.9559,9.9227,9.8704,9.8427,9.8375,9.8268,9.8003,9.7896,9.797,9.8193,9.8338,9.8338,9.8672,9.9152,9.988,10.0286,10.0282,10.0161,10.0232,9.9756,9.8492,9.8471,9.836,9.813,9.8436,9.8678,9.8687,9.8744,9.863,9.8412,9.8338,9.7929,9.7286,9.719,9.7392,9.7693,9.8405,9.8823,9.8681,9.8802,9.8883,9.8768,9.9038,9.927,9.9385,9.9216,9.9179,9.9305,9.9351,9.9347,9.9351,9.9685,9.9836,9.9873,9.9832,9.9832,9.9836,9.9254,9.8968,9.8893,9.8893,9.8858,9.8776,9.8565,9.846,9.8349,9.8548,9.8606,9.8879,9.9235,9.9418,9.9534,9.9987,10.0177,10.035,10.0545,10.066,10.0652,10.0833,10.1045,10.0932,10.0782,10.0838,10.1016,10.1159,10.1327,10.1598,10.1946,10.2264,10.2274,10.1764,10.1314,10.1513,10.1786,10.1773,10.1849,10.2226,10.2563,10.0414,10.0376,10.0414,10.0934,10.1454,10.0855,10.0971,10.1379,10.0711,10.0376,10.0344,10.0158,10.0153,10.0232,10.0046,10.014,10.0312,10.0332,10.0303,9.9962,9.9543,9.9174,9.8835,9.8305,9.8045,9.811,9.8683,9.9063,9.9148,9.9727,10.0612,10.0967,10.0986,10.0722,10.0167,10.0562,9.9773,9.8231,9.8988,9.9192,9.8647,9.9409,9.9888,9.9911,9.9995,9.9819,9.9266,9.9043,9.8672,9.8009,9.8054,9.8241,9.8406,9.8709,9.8758,9.8625,9.9216,9.9345,9.9466,9.9866,10.0399,10.0461,10.0137,10.0021,10.0106,10.0158,10.0177,10.0219,10.0778,10.1229,10.1225,10.1187,10.1183,10.1154,10.0102,9.9381,9.9122,9.9193,9.9285,9.8985,9.8654,9.8524,9.8585,9.8953,9.9308,9.9697,10.0225,10.0416,10.062,10.0732,10.0959,10.1167,10.1368,10.1486,10.1582,10.1588,10.1796,10.1687,10.1608,10.1713,10.1833,10.1994,10.2083,10.2366,10.2445,10.2743,10.2782,10.2385,10.2194,10.2428,10.2554,10.253,10.2639,10.2921,10.3115,10.1714,10.1263,10.1821,10.2192,10.2341,10.2155,10.216,10.2266,10.1523,10.1194,10.1082,10.0562,10.0414,10.0344,10.0372,10.0523,10.0901,10.0976,10.1236,10.1373,10.0754,9.9723,9.8881,9.8615,9.8499,9.8464,9.8976,9.934,9.9771,10.0185,10.0668,10.119,10.1106,10.0905,10.0659,10.0654,10.0044,9.9045,9.9347,9.9662,9.9519,9.9793,10.0077,10.0222,10.0312,10.0269,9.9935,9.9415,9.8746,9.7996,9.8241,9.839,9.8403,9.8564,9.8653,9.8655,9.9046,9.9349,9.9393,10.0019,10.0474,10.0656,10.0648,10.0665,10.0829,10.0969,10.1063,10.1116,10.1304,10.1488,10.145,10.1488,10.1488,10.1375,10.0999,10.0699,10.0624,10.0766,10.0673,10.0463,10.0217,9.9971,9.9889,9.999,10.0252,10.0494,10.0744,10.0976,10.1217,10.1496,10.1768,10.207,10.2293,10.2457,10.2508,10.2481,10.2472,10.2401,10.2438,10.2626,10.2858,10.315,10.3284,10.3435,10.3204,10.3319,10.3457,10.3314,10.3383,10.3189,10.3135,10.3006,10.3119,10.3327,10.3372,10.2415,10.2048,10.2526,10.268,10.268,10.268,10.268,10.2605,10.2229,10.2006,10.1899,10.1523,10.1305,10.1296,10.1215,10.1384,10.1676,10.1624,10.1691,10.1804,10.1343,10.0337,9.9334,9.9136,9.9113,9.9099,9.9661,10.0174,10.056,10.0939,10.1319,10.1536,10.1378,10.1055,10.0617,10.0902,10.0387,9.9639,9.9962,10.0348,10.0121,10.0638,10.0972,10.116,10.1209,10.1194,10.0789,10.0042,9.9225,9.8597,9.8411,9.8362,9.8312,9.8492,9.8645,9.8756,9.945,9.9918,10.0235,10.0859,10.1357,10.1488,10.1449,10.1358,10.1559,10.171,10.1808,10.1897,10.2163,10.2389,10.2389,10.2426,10.2426,10.246,10.2389,10.213,10.1525,10.1337,10.1295,10.1104,10.0935,10.0755,10.0655,10.0833,10.1073,10.1323,10.1667,10.1813,10.2001,10.2284,10.2504,10.2738,10.2917,10.2972,10.3087,10.3127,10.3069,10.2997,10.2997,10.3256,10.3444,10.3778,10.3782,10.3744,10.3782,10.3778,10.3774,10.3771,10.3593,10.346,10.3455,10.3408,10.3425,10.3453,10.3547,10.2699,10.268,10.2643,10.2634,10.2639,10.2648,10.2597,10.2676,10.2588,10.2611,10.2592,10.2615,10.2398,10.2667,10.2135,10.2291,10.2249,10.1995,10.1895,10.1746,10.1443,10.0863,10.0078,9.9827,9.9781,9.9827,10.0754,10.112,10.1375,10.1986,10.2202,10.1995,10.1814,10.1304,10.0874,10.1125,10.0655,10.005,10.0709,10.1096,10.0936,10.1456,10.1877,10.2111,10.2333,10.215,10.1561,10.0859,10.0116,9.941,9.8891,9.8635,9.8461,9.8609,9.9033,9.9509,10.0226,10.087,10.1411,10.2011,10.266,10.2631,10.2204,10.2055,10.2278,10.2403,10.2514,10.2666,10.339,10.3511,10.3553,10.3665,10.359,10.3515,10.3624,10.3023,10.2068,10.1618,10.1554,10.1354,10.1205,10.0995,10.1001,10.1288,10.1805,10.2026,10.2324,10.2469,10.2548,10.268,10.2912,10.309,10.3279,10.3412,10.3574,10.3703,10.3669,10.3594,10.3519,10.3594,10.3594,10.3778,10.3778,10.3778,10.3778,10.3778,10.3774,10.3734,10.3639,10.3509,10.3394,10.3394,10.3403,10.344,10.3534,10.2621,10.2482,10.2436,10.2384,10.2257,10.2201,10.2332,10.2482,10.2477,10.2556,10.2648,10.2547,10.2482,10.2431,10.2271,10.2094,10.1974,10.1886,10.1763,10.1584,10.1539,10.1392,10.098,10.0615,10.0342,10.0413,10.0897,10.1425,10.1873,10.211,10.2309,10.2094,10.1871,10.1625,10.1314,10.132,10.1394,10.1063,10.1357,10.1494,10.1545,10.1823,10.2214,10.2421,10.2612,10.2629,10.2341,10.1672,10.1152,10.088,10.043,9.9797,9.93,9.9704,10.0118,10.0359,10.0885,10.1354,10.1611,10.2229,10.2726,10.2757,10.2734,10.2774,10.2853,10.31,10.3277,10.3418,10.3659,10.3737,10.3795,10.3774,10.3799,10.3791,10.3745,10.3588,10.3235,10.3056,10.2915,10.2743,10.2563,10.2441,10.223,10.2311,10.2592,10.2794,10.2864,10.2983,10.3031,10.3033,10.3085,10.3214,10.3126,10.3228,10.3616,10.3703,10.3665,10.3669,10.3707,10.3778,10.3778,10.3778,10.3778,10.3778,10.3778,10.3778,10.3774,10.3651,10.3547,10.3424,10.3326,10.3284,10.3333,10.3402,10.3551,10.2468,10.2412,10.2318,10.2209,10.2118,10.2118,10.2176,10.2261,10.2271,10.2328,10.2393,10.2272,10.2271,10.2252,10.2061,10.1896,10.1798,10.1694,10.1609,10.1524,10.1509,10.1509,10.1477,10.1205,10.1004,10.1012,10.1318,10.1711,10.2012,10.2077,10.2056,10.1954,10.1763,10.1614,10.1524,10.1509,10.1509,10.1436,10.1514,10.1599,10.1798,10.2003,10.2276,10.2501,10.2657,10.268,10.2601,10.2308,10.1895,10.1625,10.1515,10.1019,10.0073,10.0274,10.0697,10.1076,10.127,10.1714,10.2085,10.2415,10.2717,10.268,10.2821,10.2906,10.2991,10.3206,10.3364,10.3458,10.3509,10.3593,10.3676,10.3693,10.3693,10.3676,10.3618,10.353,10.3467,10.3538,10.3526,10.3301,10.3016,10.293,10.2891,10.2944,10.2918,10.2849,10.2729,10.2851,10.2967,10.2955,10.2983,10.3006,10.286,10.3003,10.3503,10.3624,10.3515,10.3515,10.3519,10.3669,10.3778,10.3778,10.3778,10.3778,10.3778,10.3778,10.3787,10.3606,10.3517,10.3471,10.3403,10.3271,10.3353,10.362,10.3711,10.2347,10.2272,10.2138,10.2046,10.198,10.2012,10.2022,10.2061,10.2065,10.2094,10.2094,10.2085,10.2061,10.2017,10.1847,10.1758,10.1704,10.1609,10.1519,10.1514,10.1509,10.1509,10.1477,10.1466,10.1514,10.1778,10.1763,10.1878,10.1927,10.1901,10.1871,10.1773,10.1614,10.1534,10.1514,10.1509,10.1509,10.1509,10.1509,10.1564,10.1734,10.194,10.2196,10.2547,10.2685,10.2675,10.268,10.2564,10.2378,10.1784,10.2345,10.1895,10.1122,10.0839,10.112,10.1686,10.1755,10.2011,10.242,10.2642,10.268,10.268,10.2721,10.2785,10.2915,10.3009,10.3114,10.3206,10.3305,10.3387,10.353,10.3551,10.3551,10.353,10.3411,10.3284,10.3271,10.342,10.3414,10.3502,10.3445,10.3335,10.3113,10.302,10.2944,10.2905,10.2775,10.2716,10.2838,10.2915,10.2905,10.2952,10.2906,10.3035,10.3497,10.3736,10.3553,10.3477,10.3444,10.3632,10.3778,10.3778,10.3778,10.3778,10.3778,10.3778,10.3762,10.3606,10.3555,10.3534,10.3717,10.3823,10.3881,10.3904,10.4047,10.2219,10.1896,10.1861,10.1763,10.1624,10.1614,10.1755,10.1832,10.1847,10.1949,10.2061,10.193,10.1852,10.1803,10.1644,10.1564,10.1533,10.1524,10.1509,10.1509,10.1509,10.1509,10.1509,10.1514,10.1614,10.1753,10.1857,10.1918,10.1925,10.1812,10.1984,10.1817,10.1751,10.1656,10.1693,10.1546,10.1724,10.1839,10.1766,10.1796,10.172,10.1854,10.2094,10.2468,10.2709,10.2819,10.2786,10.2712,10.2638,10.2526,10.2638,10.2485,10.2201,10.2168,10.2275,10.2359,10.2382,10.2494,10.2642,10.268,10.268,10.268,10.268,10.268,10.2798,10.2902,10.2982,10.3057,10.318,10.3292,10.3323,10.3331,10.3331,10.3314,10.3308,10.3189,10.3092,10.3191,10.3483,10.3785,10.3823,10.3644,10.3264,10.2994,10.2845,10.2802,10.2739,10.268,10.2739,10.2803,10.2832,10.29,10.2995,10.3231,10.3535,10.368,10.3703,10.3553,10.3557,10.3669,10.3778,10.3778,10.3778,10.3778,10.3778,10.3778,10.3726,10.3606,10.3618,10.3614,10.398,10.4453,10.4525,10.4638,10.5047,10.2573,10.2419,10.2309,10.1962,10.1629,10.1976,10.1921,10.1676,10.1649,10.1704,10.1748,10.1694,10.1649,10.1624,10.1564,10.1509,10.1509,10.1509,10.1509,10.1509,10.1509,10.1509,10.1509,10.1509,10.1559,10.1771,10.2007,10.2334,10.2404,10.2304,10.2473,10.2832,10.2783,10.2752,10.2752,10.282,10.271,10.2674,10.2674,10.249,10.2122,10.2077,10.216,10.2449,10.3048,10.3335,10.3385,10.3381,10.3385,10.3274,10.2935,10.2754,10.268,10.268,10.268,10.268,10.268,10.268,10.268,10.268,10.268,10.268,10.268,10.268,10.273,10.2794,10.2857,10.2897,10.3022,10.3141,10.3141,10.3141,10.3141,10.3119,10.3066,10.2969,10.2963,10.3266,10.3605,10.3912,10.3505,10.3227,10.3144,10.2912,10.2758,10.268,10.268,10.268,10.268,10.2717,10.2758,10.2845,10.29,10.2936,10.3234,10.3572,10.3687,10.359,10.3632,10.374,10.3778,10.3778,10.3778,10.3778,10.3778,10.3779,10.3754,10.3655,10.3693,10.3793,10.4372,10.4846,10.5118,10.5413,10.5851,10.314,10.2943,10.2955,10.238,10.1729,10.2338,10.2233,10.1614,10.1514,10.1524,10.1509,10.1514,10.1519,10.1509,10.1514,10.1509,10.1509,10.1509,10.1509,10.1509,10.1509,10.1509,10.1504,10.1682,10.1844,10.2038,10.2626,10.2939,10.2836,10.2949,10.3313,10.3533,10.3812,10.388,10.377,10.3623,10.388,10.388,10.3843,10.3476,10.2838,10.2517,10.2439,10.2703,10.3664,10.4203,10.424,10.3984,10.3906,10.3683,10.3232,10.268,10.268,10.268,10.268,10.268,10.268,10.268,10.268,10.268,10.268,10.268,10.268,10.268,10.2717,10.2693,10.2698,10.2744,10.2839,10.2946,10.2946,10.2946,10.2946,10.2924,10.2825,10.2721,10.2893,10.3116,10.3343,10.3376,10.2977,10.3014,10.3163,10.2865,10.2717,10.268,10.268,10.268,10.268,10.268,10.273,10.2822,10.2812,10.2649,10.2876,10.3364,10.3509,10.3477,10.3628,10.3782,10.3778,10.3778,10.3778,10.3774,10.3743,10.3705,10.3718,10.3888,10.413,10.4439,10.4892,10.5417,10.5988,10.6402,10.6819,10.3538,10.2814,10.3486,10.2899,10.1766,10.2412,10.2265,10.1546,10.1509,10.1509,10.1509,10.1509,10.1509,10.1509,10.1509,10.1509,10.1509,10.1509,10.1509,10.1509,10.1509,10.1509,10.1619,10.2265,10.2375,10.2558,10.3324,10.3261,10.327,10.3575,10.3812,10.4069,10.4179,10.3953,10.4252,10.4284,10.388,10.3953,10.3953,10.3581,10.3023,10.3122,10.3254,10.3588,10.4364,10.5057,10.4978,10.4611,10.4277,10.4091,10.3232,10.2749,10.268,10.268,10.268,10.268,10.268,10.2717,10.2717,10.2828,10.2749,10.2754,10.268,10.268,10.268,10.268,10.268,10.2717,10.2758,10.2776,10.2785,10.2767,10.2753,10.2762,10.2711,10.268,10.2786,10.2861,10.3121,10.3121,10.2828,10.32,10.3497,10.3051,10.268,10.268,10.2717,10.2717,10.268,10.268,10.268,10.2762,10.2904,10.2759,10.285,10.3302,10.3459,10.3457,10.359,10.3778,10.3778,10.3778,10.3778,10.3783,10.3714,10.3805,10.3975,10.4242,10.4601,10.5005,10.5342,10.6174,10.7052,10.7442,10.7652,10.4886,10.4095,10.4425,10.366,10.238,10.3036,10.2674,10.1656,10.1509,10.1509,10.1509,10.1509,10.1509,10.1509,10.1509,10.1509,10.1509,10.1509,10.1509,10.1509,10.1509,10.1546,10.1688,10.2265,10.2705,10.3104,10.3875,10.4457,10.4237,10.4389,10.4761,10.5207,10.5285,10.539,10.5133,10.5285,10.5353,10.5243,10.4908,10.442,10.4124,10.4045,10.4081,10.4137,10.5263,10.5763,10.5763,10.561,10.5354,10.5131,10.4198,10.3455,10.3311,10.3088,10.2861,10.3423,10.346,10.3195,10.2856,10.3195,10.3121,10.2786,10.2712,10.268,10.268,10.268,10.268,10.268,10.268,10.268,10.268,10.268,10.268,10.2717,10.2754,10.2791,10.2791,10.2717,10.2791,10.2717,10.2791,10.3274,10.3608,10.3195,10.2828,10.268,10.2717,10.2754,10.2717,10.268,10.268,10.2684,10.2873,10.2985,10.3136,10.3426,10.3572,10.3612,10.3665,10.3778,10.3778,10.3778,10.3778,10.3774,10.3758,10.393,10.4168,10.43,10.4374,10.5049,10.5792,10.6581,10.733,10.7863,10.8017,10.6009,10.5448,10.5411,10.4499,10.3109,10.3848,10.3444,10.2165,10.1903,10.1829,10.1724,10.1619,10.1509,10.1509,10.1509,10.1509,10.1509,10.1509,10.1509,10.1546,10.1688,10.1829,10.2233,10.2742,10.3398,10.3319,10.4798,10.5306,10.5411,10.549,10.5757,10.6386,10.6129,10.624,10.635,10.624,10.6166,10.6124,10.5416,10.5039,10.4975,10.4896,10.4923,10.5242,10.5956,10.6692,10.6687,10.639,10.6315,10.6018,10.4723,10.398,10.4128,10.365,10.3608,10.4166,10.4463,10.4314,10.3864,10.3715,10.3608,10.3195,10.2749,10.268,10.268,10.268,10.268,10.268,10.268,10.268,10.268,10.268,10.268,10.2791,10.294,10.2977,10.3093,10.3339,10.3594,10.3794,10.3757,10.3418,10.3529,10.3232,10.2972,10.2754,10.2717,10.2791,10.2944,10.3023,10.3362,10.3515,10.3329,10.3516,10.3648,10.3753,10.3822,10.3771,10.3787,10.3778,10.3778,10.3778,10.3778,10.3774,10.3795,10.3826,10.3971,10.3993,10.4211,10.5494,10.6564,10.6912,10.7486,10.8028,10.819,10.6381,10.6313,10.6271,10.5322,10.3848,10.4677,10.4499,10.3476,10.2889,10.2595,10.2412,10.1939,10.1693,10.1619,10.1761,10.1761,10.1614,10.1509,10.1729,10.1944,10.2196,10.2558,10.303,10.3838,10.475,10.4861,10.5637,10.6088,10.6234,10.6082,10.6234,10.6386,10.6386,10.6386,10.6386,10.6386,10.6386,10.6271,10.5678,10.5264,10.5352,10.5482,10.5701,10.5953,10.6781,10.7504,10.7467,10.6873,10.6538,10.6501,10.5169,10.4611,10.4871,10.4314,10.4351,10.4983,10.5577,10.5466,10.5164,10.4574,10.4012,10.3715,10.3232,10.268,10.268,10.268,10.268,10.2754,10.2828,10.2786,10.2749,10.2717,10.2717,10.3051,10.3348,10.3683,10.3933,10.4443,10.4685,10.4927,10.4755,10.4263,10.4087,10.3901,10.3158,10.2861,10.2786,10.2824,10.3594,10.3863,10.4425,10.4583,10.4184,10.4139,10.4286,10.4263,10.4017,10.3918,10.3921,10.3837,10.3778,10.3778,10.3778,10.3787,10.3762,10.3755,10.3901,10.4466,10.5223,10.6499,10.7266,10.7325,10.747,10.7842,10.7898,10.6386,10.6386,10.6386,10.571,10.4677,10.4971,10.4645,10.3958,10.3586,10.3104,10.2742,10.2852,10.271,10.2453,10.2815,10.2967,10.2972,10.2967,10.2931,10.3041,10.3298,10.3439,10.3875,10.442,10.5075,10.5301,10.5972,10.6386,10.6344,10.6386,10.6386,10.6386,10.6386,10.6386,10.6386,10.6386,10.6386,10.6344,10.6088,10.5899,10.5998,10.6281,10.6528,10.6637,10.7107,10.7555,10.7541,10.7318,10.717,10.6836,10.5949,10.5795,10.5721,10.5127,10.5201,10.5795,10.632,10.6469,10.6501,10.58,10.5094,10.3943,10.3237,10.2717,10.2712,10.268,10.3051,10.3125,10.3014,10.2935,10.3423,10.3088,10.2861,10.339,10.3836,10.424,10.4746,10.5285,10.5512,10.5624,10.534,10.4955,10.482,10.4723,10.3827,10.3009,10.2935,10.3051,10.3887,10.456,10.5039,10.5238,10.483,10.4871,10.5013,10.4613,10.4155,10.4084,10.4046,10.3891,10.3762,10.3778,10.3774,10.3775,10.3842,10.39,10.4322,10.5216,10.6003,10.6596,10.7061,10.7384,10.7585,10.7819,10.7785,10.6386,10.6386,10.6386,10.6051,10.5521,10.5484,10.5165,10.4656,10.4357,10.3801,10.3109,10.366,10.3623,10.3361,10.3549,10.3806,10.3738,10.377,10.3806,10.3917,10.4032,10.421,10.4541,10.5013,10.5637,10.5642,10.5972,10.6386,10.6386,10.6386,10.6386,10.6386,10.6386,10.6386,10.6386,10.6386,10.6386,10.6386,10.6386,10.6386,10.6408,10.6657,10.6894,10.695,10.7303,10.7502,10.7587,10.7504,10.7541,10.7281,10.6836,10.6576,10.6353,10.6204,10.6097,10.6464,10.6798,10.7058,10.7207,10.6761,10.5652,10.4207,10.3571,10.3047,10.2786,10.2717,10.3014,10.3757,10.3423,10.3348,10.3984,10.3497,10.3307,10.3794,10.4319,10.476,10.5461,10.6009,10.6121,10.6241,10.6009,10.5962,10.541,10.5275,10.4723,10.4161,10.4495,10.4379,10.4421,10.5006,10.5349,10.547,10.5325,10.5517,10.5734,10.4948,10.4253,10.4325,10.4189,10.3896,10.3775,10.3762,10.3778,10.3799,10.3882,10.4061,10.4571,10.5222,10.576,10.6288,10.6929,10.7705,10.7844,10.8055,10.7911,10.6386,10.6386,10.6386,10.6344,10.6271,10.6344,10.6271,10.5977,10.5374,10.464,10.3948,10.4063,10.4027,10.3953,10.4179,10.4325,10.4284,10.421,10.4173,10.4399,10.4871,10.5044,10.5343,10.5789,10.6088,10.6308,10.6386,10.6386,10.6386,10.6386,10.6386,10.6386,10.6386,10.6386,10.6386,10.6386,10.6386,10.6386,10.6386,10.6386,10.6439,10.6637,10.6806,10.6973,10.7156,10.7384,10.752,10.7553,10.7563,10.7458,10.6984,10.691,10.7207,10.6724,10.6761,10.7356,10.7467,10.7541,10.7541,10.6836,10.58,10.4579,10.4091,10.3534,10.2972,10.2824,10.32,10.4054,10.3906,10.3943,10.4054,10.4017,10.4091,10.4426,10.4983,10.5466,10.6199,10.6682,10.6798,10.6798,10.7133,10.7207,10.6385,10.5795,10.5429,10.5354,10.5944,10.5865,10.5377,10.5457,10.5824,10.6143,10.6109,10.6232,10.621,10.5036,10.4428,10.448,10.4305,10.3909,10.3762,10.3807,10.3778,10.3778,10.3857,10.394,10.4504,10.5121,10.5667,10.63,10.7445,10.8133,10.8237,10.8248,10.8135,10.6386,10.6386,10.6386,10.6386,10.6386,10.6386,10.6386,10.635,10.6051,10.5453,10.4934,10.5238,10.5165,10.5013,10.5238,10.5427,10.5463,10.5574,10.5537,10.5537,10.5789,10.5935,10.6088,10.6161,10.6386,10.6386,10.6386,10.6386,10.6386,10.6386,10.6386,10.6386,10.6386,10.6386,10.6386,10.6386,10.6386,10.6386,10.6386,10.6386,10.6413,10.6585,10.6741,10.6838,10.7014,10.7176,10.7357,10.7413,10.7467,10.7568,10.7146,10.7304,10.7574,10.7133,10.7318,10.7578,10.7616,10.7616,10.7578,10.7207,10.6761,10.5689,10.469,10.4054,10.3608,10.2977,10.3534,10.4277,10.4388,10.4686,10.5317,10.4983,10.5057,10.5577,10.6097,10.6469,10.6984,10.7244,10.743,10.7356,10.7541,10.7207,10.6576,10.639,10.6097,10.5837,10.6246,10.6278,10.5865,10.6042,10.6321,10.6911,10.7104,10.7137,10.6725,10.5331,10.4731,10.4831,10.4382,10.3797,10.3721,10.3766,10.3778,10.3778,10.3778,10.3853,10.442,10.5017,10.566,10.6413,10.7479,10.8132,10.8125,10.8246,10.8327,10.6386,10.6386,10.6386,10.6386,10.6386,10.6386,10.6386,10.6386,10.6381,10.6051,10.5752,10.6156,10.6088,10.5825,10.6088,10.6386,10.6386,10.6381,10.6381,10.6386,10.6381,10.6308,10.6344,10.6386,10.6386,10.6386,10.6386,10.6386,10.6386,10.6386,10.6386,10.6386,10.6386,10.6386,10.6386,10.6386,10.6386,10.6386,10.6386,10.6386,10.6423,10.6518,10.6622,10.6725,10.6837,10.6993,10.7143,10.7205,10.7306,10.7457,10.7529,10.7558,10.7587,10.7616,10.7616,10.7616,10.7616,10.7616,10.7578,10.7578,10.7165,10.6757,10.5498,10.4797,10.4463,10.4017,10.45,10.4983,10.4946,10.5429,10.6023,10.5689,10.5912,10.6432,10.6543,10.691,10.7318,10.7578,10.7616,10.7616,10.7467,10.7096,10.6836,10.691,10.684,10.6617,10.6469,10.639,10.6306,10.6288,10.6363,10.6735,10.6854,10.6455,10.6084,10.5443,10.5041,10.5159,10.447,10.3626,10.3688,10.3736,10.3778,10.3778,10.3778,10.3895,10.4312,10.4867,10.5601,10.6444,10.7435,10.7841,10.7972,10.8217,10.8433,10.6386,10.6386,10.6386,10.6386,10.6386,10.6386,10.6386,10.6386,10.6386,10.6386,10.6344,10.6344,10.6271,10.6344,10.6386,10.6386,10.6386,10.6386,10.6386,10.6386,10.6386,10.6386,10.6386,10.6386,10.6386,10.6386,10.6386,10.6386,10.6386,10.6386,10.6386,10.6386,10.6386,10.6386,10.6386,10.6533,10.6497,10.646,10.6386,10.6386,10.6408,10.6408,10.6512,10.6611,10.6699,10.6828,10.6923,10.7009,10.7138,10.7262,10.7345,10.742,10.7544,10.7611,10.7616,10.7616,10.7616,10.7616,10.7616,10.7616,10.7574,10.7318,10.6761,10.606,10.5391,10.4983,10.5243,10.5758,10.5944,10.6167,10.6432,10.6432,10.6506,10.6617,10.6617,10.6984,10.743,10.7616,10.7616,10.7537,10.743,10.7207,10.7096,10.7133,10.7021,10.6952,10.6729,10.6687,10.6473,10.5942,10.5972,10.5954,10.5911,10.5382,10.5048,10.4964,10.4777,10.4702,10.4095,10.3438,10.3552,10.3695,10.3778,10.3778,10.3778,10.3932,10.4195,10.4804,10.5597,10.6477,10.7123,10.7903,10.8126,10.834,10.8565,10.6386,10.6386,10.6386,10.6386,10.6386,10.6381,10.6386,10.6386,10.6386,10.6386,10.6386,10.6386,10.6386,10.6386,10.6386,10.6386,10.6386,10.6386,10.6386,10.6418,10.6497,10.6423,10.6423,10.6423,10.6381,10.6386,10.6386,10.6386,10.6386,10.6386,10.6386,10.6386,10.6386,10.6386,10.657,10.6937,10.6717,10.657,10.646,10.646,10.6423,10.6386,10.645,10.6486,10.6507,10.6632,10.6751,10.6802,10.6938,10.7237,10.7301,10.7413,10.7592,10.7616,10.7616,10.7616,10.7616,10.7616,10.7616,10.7616,10.7616,10.7616,10.7318,10.6877,10.6204,10.5758,10.5758,10.6241,10.6576,10.6687,10.6947,10.7058,10.7063,10.7058,10.7021,10.7244,10.7616,10.7616,10.7611,10.7537,10.7393,10.7207,10.7133,10.7021,10.691,10.6947,10.6984,10.691,10.6673,10.6114,10.5668,10.5669,10.5345,10.4936,10.4755,10.4699,10.4419,10.4132,10.3626,10.3353,10.3506,10.3654,10.3766,10.3778,10.3778,10.3853,10.3966,10.4596,10.5167,10.5847,10.651,10.7462,10.8259,10.8425,10.8609,10.6386,10.6386,10.6386,10.6386,10.6371,10.6291,10.6212,10.627,10.6339,10.6386,10.6386,10.6386,10.6386,10.6386,10.6386,10.6386,10.6386,10.6386,10.6386,10.646,10.6675,10.6607,10.657,10.6643,10.668,10.6533,10.6386,10.6386,10.6386,10.6386,10.6386,10.6386,10.6386,10.6381,10.6497,10.6717,10.6754,10.668,10.6643,10.6612,10.6497,10.6386,10.6386,10.6386,10.6386,10.6471,10.6559,10.6585,10.6823,10.7123,10.7193,10.7345,10.7534,10.7616,10.7616,10.7616,10.7616,10.7616,10.7616,10.7616,10.7616,10.7616,10.7616,10.7356,10.7021,10.6613,10.6687,10.691,10.6947,10.7021,10.7356,10.7616,10.7578,10.7578,10.7578,10.7578,10.7616,10.7616,10.7578,10.7537,10.7356,10.7096,10.6947,10.6873,10.691,10.717,10.717,10.6979,10.6775,10.6357,10.5781,10.5451,10.5062,10.4653,10.4583,10.449,10.4132,10.3889,10.3497,10.3324,10.3493,10.3638,10.373,10.3775,10.3778,10.3853,10.3891,10.4067,10.4559,10.5234,10.5772,10.6325,10.7292,10.822,10.8416,10.6386,10.6381,10.6397,10.6296,10.6275,10.6073,10.6008,10.6008,10.6243,10.6355,10.6344,10.6344,10.6349,10.6365,10.6339,10.6318,10.6307,10.6302,10.6296,10.6402,10.6864,10.6864,10.6717,10.7016,10.6754,10.6497,10.6386,10.6386,10.6386,10.6413,10.6407,10.6439,10.6565,10.6617,10.6632,10.6989,10.7005,10.657,10.69,10.7126,10.657,10.6386,10.6386,10.6386,10.6386,10.6402,10.6434,10.6534,10.6664,10.6968,10.7179,10.7417,10.7481,10.7801,10.7801,10.7616,10.7616,10.7801,10.7764,10.7727,10.7764,10.7727,10.7616,10.7541,10.7318,10.7207,10.7244,10.7281,10.7281,10.7318,10.7541,10.7616,10.7616,10.7616,10.7616,10.7616,10.7616,10.7616,10.7574,10.7574,10.7504,10.7281,10.7281,10.7244,10.7207,10.7462,10.7425,10.7202,10.6882,10.6539,10.607,10.5503,10.509,10.483,10.4774,10.4574,10.3943,10.3579,10.352,10.35,10.3841,10.3826,10.3768,10.3771,10.3778,10.3778,10.3837,10.408,10.4372,10.4801,10.5191,10.5228,10.6102,10.7324,10.7947,10.6386,10.6365,10.6201,10.5894,10.5651,10.5883,10.5889,10.571,10.5987,10.6073,10.6089,10.61,10.6175,10.6307,10.6174,10.6089,10.6126,10.6084,10.6084,10.6243,10.6653,10.68,10.6455,10.6754,10.6633,10.6497,10.6386,10.6334,10.6339,10.6407,10.6605,10.6958,10.7028,10.7035,10.7084,10.7506,10.745,10.6712,10.6974,10.7084,10.6497,10.6386,10.6386,10.6386,10.6386,10.6386,10.657,10.6995,10.7399,10.7814,10.7902,10.7852,10.7647,10.82,10.8173,10.7759,10.7616,10.7876,10.8061,10.7987,10.8024,10.8136,10.8061,10.7764,10.7574,10.7616,10.7616,10.7616,10.7616,10.7616,10.7616,10.7616,10.7616,10.7616,10.7616,10.7616,10.7616,10.7616,10.7616,10.7616,10.7616,10.7616,10.7616,10.7616,10.7616,10.7611,10.7574,10.743,10.7096,10.678,10.6488,10.5935,10.5377,10.5131,10.5108,10.4932,10.4458,10.4356,10.4433,10.4347,10.4231,10.4392,10.4492,10.3929,10.3736,10.3867,10.4034,10.433,10.4592,10.4607,10.4687,10.4721,10.5107,10.6175,10.6848,10.6323,10.6175,10.5938,10.588,10.5946,10.5777,10.5785,10.5934,10.5666,10.5598,10.5703,10.5796,10.5922,10.6035,10.5894,10.5845,10.5845,10.584,10.5938,10.6077,10.642,10.6574,10.6585,10.6638,10.6506,10.6411,10.612,10.6035,10.6237,10.6119,10.6287,10.7,10.7278,10.7474,10.7616,10.8037,10.7832,10.7005,10.7194,10.6864,10.646,10.6418,10.6381,10.6386,10.6386,10.6386,10.6643,10.7152,10.7736,10.8345,10.8695,10.8642,10.8511,10.8581,10.8363,10.7876,10.7653,10.7839,10.8136,10.8284,10.8279,10.846,10.8549,10.8247,10.8173,10.8136,10.7653,10.7616,10.7616,10.7616,10.7616,10.7616,10.7616,10.7616,10.7616,10.7616,10.7616,10.7616,10.7616,10.7616,10.7616,10.7616,10.7616,10.7616,10.7616,10.7616,10.7616,10.7616,10.7318,10.7096,10.6803,10.6464,10.5976,10.5725,10.5767,10.5535,10.5131,10.515,10.528,10.5045,10.4879,10.5159,10.5186,10.4701,10.4276,10.4138,10.4313,10.4378,10.4009,10.3759,10.3933,10.4175,10.4662,10.5002,10.5455,10.6238,10.5938,10.5686,10.6002,10.652,10.5702,10.5768,10.6231,10.5442,10.5113,10.5312,10.5439,10.5517,10.5583,10.555,10.555,10.5587,10.5592,10.573,10.6041,10.6609,10.6567,10.6695,10.6895,10.6553,10.6286,10.6023,10.6081,10.6241,10.6324,10.6657,10.698,10.7269,10.7597,10.8003,10.8021,10.7722,10.7539,10.7378,10.679,10.6565,10.6455,10.6381,10.6386,10.6386,10.6386,10.6643,10.7116,10.7715,10.8515,10.9281,10.9485,10.929,10.9144,10.8619,10.8173,10.769,10.7777,10.7944,10.8302,10.8511,10.8733,10.8795,10.8698,10.8507,10.821,10.7727,10.7616,10.7616,10.7616,10.7616,10.7616,10.7616,10.7616,10.7616,10.7616,10.7616,10.7616,10.7616,10.7611,10.7606,10.7606,10.7606,10.7606,10.7606,10.7606,10.7611,10.7616,10.7574,10.743,10.7244,10.7049,10.6779,10.6593,10.6527,10.6296,10.5949,10.574,10.5791,10.5577,10.5514,10.5714,10.5765,10.5515,10.5154,10.4686,10.4242,10.4099,10.3641,10.3259,10.3253,10.3575,10.3713,10.4044,10.4134,10.6094,10.5681,10.5442,10.5711,10.6118,10.5537,10.5756,10.629,10.5585,10.5244,10.5222,10.5125,10.5233,10.5567,10.5419,10.5357,10.5352,10.5352,10.5492,10.5748,10.6121,10.623,10.6359,10.6488,10.6353,10.6201,10.6221,10.6562,10.6525,10.7053,10.7784,10.8278,10.8541,10.873,10.8902,10.8841,10.8729,10.8391,10.7844,10.7383,10.7163,10.6937,10.6455,10.6386,10.6386,10.6386,10.6607,10.7194,10.7615,10.8413,10.9526,10.9987,10.9912,10.9589,10.9176,10.8433,10.7913,10.7925,10.8091,10.8172,10.8394,10.8641,10.8569,10.821,10.8061,10.7955,10.7653,10.7616,10.7616,10.7616,10.7616,10.7616,10.7616,10.7616,10.7616,10.7616,10.7616,10.7616,10.7616,10.7601,10.7592,10.7582,10.7573,10.7573,10.7573,10.7582,10.7606,10.7606,10.7616,10.7616,10.7616,10.749,10.7364,10.7448,10.7374,10.7174,10.691,10.6617,10.6274,10.6,10.5967,10.6229,10.6189,10.5664,10.5449,10.5079,10.4614,10.4111,10.3688,10.3356,10.2933,10.29,10.3062,10.3308,10.3648]},{"header":{"parameterUnit":"m.s-1","parameterCategory":1,"la1":31.0,"la2":29.5877,"lo1":-88.7671,"lo2":-86.6584,"dy":0.0162,"dx":0.0185,"nx":115,"ny":88,"refTime":"2024-11-28T06:00:00:Z","depth":0,"parameterNumber":3,"parameterNumberName":"V-component_of_WINDS"},"data":[0.0,0.0,0.0,0.0,0.0,0.0,0.0,0.0,0.0,0.0,0.0,0.0,0.0,0.0,0.0,0.0,0.0,0.0,0.0,0.0,0.0,0.0,0.0,0.0,0.0,0.0,0.0,0.0,0.0,0.0,0.0,0.0,0.0,0.0,0.0,0.0,0.0,0.0,0.0,0.0,0.0,0.0,0.0,0.0,0.0,0.0,0.0,0.0,0.0,0.0,0.0,0.0,0.0,0.0,0.0,0.0,0.0,0.0,0.0,0.0,0.0,0.0,0.0,0.0,0.0,0.0,0.0,0.0,0.0,0.0,0.0,0.0,0.0,0.0,0.0,0.0,0.0,0.0,0.0,0.0,0.0,0.0,0.0,0.0,0.0,0.0,0.0,0.0,0.0,0.0,0.0,0.0,0.0,0.0,0.0,0.0,0.0,0.0,0.0,0.0,0.0,0.0,0.0,0.0,0.0,0.0,0.0,0.0,0.0,0.0,0.0,0.0,0.0,0.0,0.0,0.0,0.0,0.0,0.0,0.0,0.0,0.0,0.0,0.0,0.0,0.0,0.0,0.0,0.0,0.0,0.0,0.0,0.0,0.0,0.0,0.0,0.0,0.0,0.0,0.0,0.0,0.0,0.0,0.0,0.0,0.0,0.0,0.0,0.0,0.0,0.0,0.0,0.0,0.0,0.0,0.0,0.0,0.0,0.0,0.0,0.0,0.0,0.0,0.0,0.0,0.0,0.0,0.0,0.0,0.0,0.0,0.0,0.0,0.0,0.0,0.0,0.0,0.0,0.0,0.0,0.0,0.0,0.0,0.0,0.0,0.0,0.0,0.0,0.0,0.0,0.0,0.0,0.0,0.0,0.0,0.0,0.0,0.0,0.0,0.0,0.0,0.0,0.0,0.0,0.0,0.0,0.0,0.0,0.0,0.0,0.0,0.0,0.0,0.0,0.0,0.0,0.0,0.0,0.0,0.0,0.0,0.0,0.0,0.0,0.0,0.0,0.0,0.0,0.0,0.0,0.0,0.0,0.0,0.0,0.0,0.0,0.0,0.0,0.0,0.0,0.0,0.0,0.0,0.0,0.0,0.0,0.0,0.0,0.0,0.0,0.0,0.0,0.0,0.0,0.0,0.0,0.0,0.0,0.0,0.0,0.0,0.0,0.0,0.0,0.0,0.0,0.0,0.0,0.0,0.0,0.0,0.0,0.0,0.0,0.0,0.0,0.0,0.0,0.0,0.0,0.0,0.0,0.0,0.0,0.0,0.0,0.0,0.0,0.0,0.0,0.0,0.0,0.0,0.0,0.0,0.0,0.0,0.0,0.0,0.0,0.0,0.0,0.0,0.0,0.0,0.0,0.0,0.0,0.0,0.0,0.0,0.0,0.0,0.0,0.0,0.0,0.0,0.0,0.0,0.0,0.0,0.0,0.0,0.0,0.0,0.0,0.0,0.0,0.0,0.0,0.0,0.0,0.0,0.0,0.0,0.0,0.0,0.0,0.0,0.0,0.0,0.0,0.0,0.0,0.0,0.0,0.0,0.0,0.0,0.0,0.0,0.0,0.0,0.0,0.0,0.0,0.0,0.0,0.0,0.0,0.0,0.0,0.0,0.0,0.0,0.0,0.0,0.0,0.0,0.0,0.0,0.0,0.0,0.0,0.0,0.0,0.0,0.0,0.0,0.0,0.0,0.0,0.0,0.0,0.0,0.0,0.0,0.0,0.0,0.0,0.0,0.0,0.0,0.0,0.0,0.0,0.0,0.0,0.0,0.0,0.0,0.0,0.0,0.0,0.0,0.0,0.0,0.0,0.0,0.0,0.0,0.0,0.0,0.0,0.0,0.0,0.0,0.0,0.0,0.0,0.0,0.0,0.0,0.0,0.0,0.0,0.0,0.0,0.0,0.0,0.0,0.0,0.0,0.0,0.0,0.0,0.0,0.0,0.0,0.0,0.0,0.0,0.0,0.0,0.0,0.0,0.0,0.0,0.0,0.0,0.0,0.0,0.0,0.0,0.0,0.0,0.0,0.0,0.0,0.0,0.0,0.0,0.0,0.0,0.0,0.0,0.0,0.0,0.0,0.0,0.0,0.0,0.0,0.0,0.0,0.0,0.0,0.0,0.0,0.0,0.0,0.0,0.0,0.0,0.0,0.0,0.0,0.0,0.0,0.0,0.0,0.0,0.0,0.0,0.0,0.0,0.0,0.0,0.0,0.0,0.0,0.0,0.0,0.0,0.0,0.0,0.0,0.0,0.0,0.0,0.0,0.0,0.0,0.0,0.0,0.0,0.0,0.0,0.0,0.0,0.0,0.0,0.0,0.0,0.0,0.0,0.0,0.0,0.0,0.0,0.0,0.0,0.0,0.0,0.0,0.0,0.0,0.0,0.0,0.0,0.0,0.0,0.0,0.0,0.0,0.0,0.0,0.0,0.0,0.0,0.0,0.0,0.0,0.0,0.0,0.0,0.0,0.0,0.0,0.0,0.0,0.0,0.0,0.0,0.0,0.0,0.0,0.0,0.0,0.0,0.0,0.0,0.0,0.0,0.0,0.0,0.0,0.0,0.0,0.0,0.0,0.0,0.0,0.0,0.0,0.0,0.0,0.0,0.0,0.0,0.0,0.0,0.0,0.0,0.0,0.0,0.0,0.0,0.0,0.0,0.0,0.0,0.0,0.0,0.0,0.0,0.0,0.0,0.0,0.0,0.0,0.0,0.0,0.0,0.0,0.0,0.0,0.0,0.0,0.0,0.0,0.0,0.0,0.0,0.0,0.0,0.0,0.0,0.0,0.0,0.0,0.0,0.0,0.0,0.0,0.0,0.0,0.0,0.0,0.0,0.0,0.0,0.0,0.0,0.0,0.0,0.0,0.0,0.0,0.0,0.0,0.0,0.0,0.0,0.0,0.0,0.0,0.0,0.0,0.0,0.0,0.0,0.0,0.0,0.0,0.0,0.0,0.0,0.0,0.0,0.0,0.0,0.0,0.0,0.0,0.0,0.0,0.0,0.0,0.0,0.0,0.0,0.0,0.0,0.0,0.0,0.0,0.0,0.0,0.0,0.0,0.0,0.0,0.0,0.0,0.0,0.0,0.0,0.0,0.0,0.0,0.0,0.0,0.0,0.0,0.0,0.0,0.0,0.0,0.0,0.0,0.0,0.0,0.0,0.0,0.0,0.0,0.0,0.0,0.0,0.0,0.0,0.0,0.0,0.0,0.0,0.0,0.0,0.0,0.0,0.0,0.0,0.0,0.0,0.0,0.0,0.0,0.0,0.0,0.0,0.0,0.0,0.0,0.0,0.0,0.0,0.0,0.0,0.0,0.0,0.0,0.0,0.0,0.0,0.0,0.0,0.0,0.0,0.0,0.0,0.0,0.0,0.0,0.0,0.0,0.0,0.0,0.0,0.0,0.0,0.0,0.0,0.0,0.0,0.0,0.0,0.0,0.0,0.0,0.0,0.0,0.0,0.0,0.0,0.0,0.0,0.0,0.0,0.0,0.0,0.0,0.0,0.0,0.0,0.0,0.0,0.0,0.0,0.0,0.0,0.0,0.0,0.0,0.0,0.0,0.0,0.0,0.0,0.0,0.0,0.0,0.0,0.0,0.0,0.0,0.0,0.0,0.0,0.0,0.0,0.0,0.0,0.0,0.0,0.0,0.0,0.0,0.0,0.0,0.0,0.0,0.0,0.0,0.0,0.0,0.0,0.0,0.0,0.0,0.0,0.0,0.0,0.0,0.0,0.0,0.0,0.0,0.0,0.0,0.0,0.0,0.0,0.0,0.0,0.0,0.0,0.0,0.0,0.0,0.0,0.0,0.0,0.0,0.0,0.0,0.0,0.0,0.0,0.0,0.0,0.0,0.0,0.0,0.0,0.0,0.0,0.0,0.0,0.0,0.0,0.0,0.0,0.0,0.0,0.0,0.0,0.0,0.0,0.0,0.0,0.0,0.0,0.0,0.0,0.0,0.0,0.0,0.0,0.0,0.0,0.0,0.0,0.0,0.0,0.0,0.0,0.0,0.0,0.0,0.0,0.0,0.0,0.0,0.0,0.0,0.0,0.0,0.0,0.0,0.0,0.0,0.0,0.0,0.0,0.0,0.0,0.0,0.0,0.0,0.0,0.0,0.0,0.0,0.0,0.0,0.0,0.0,0.0,0.0,0.0,0.0,0.0,0.0,0.0,0.0,0.0,0.0,0.0,0.0,0.0,0.0,0.0,0.0,0.0,0.0,0.0,0.0,0.0,0.0,0.0,0.0,0.0,0.0,0.0,0.0,0.0,0.598,0.0,0.0,0.0,0.0,0.0,0.0,0.0,0.0,0.0,0.0,0.0,0.0,0.0,0.0,0.0,0.0,0.0,0.0,0.0,0.0,0.0,0.0,0.0,0.0,0.0,0.0,0.0,0.0,0.0,0.0,0.0,0.0,0.0,0.0,0.0,0.0,0.0,0.0,0.0,0.0,0.0,0.0,0.0,0.0,0.0,0.0,0.0,0.0,0.0,0.0,0.0,0.0,0.0,0.0,0.0,0.0,0.0,0.0,0.0,0.0,0.0,0.0,0.0,0.0,0.0,0.0,0.0,0.0,0.0,0.0,0.0,0.0,0.0,0.0,0.0,0.0,0.0,0.0,0.0,0.0,0.0,0.0,0.0,0.0,0.0,0.0,0.0,0.0,0.0,0.0,0.0,0.0,0.0,0.0,0.0,0.0,0.0,0.0,0.0,0.0,0.0,0.0,0.0,0.0,0.0,0.0,0.0,0.0,0.0,0.0,0.6284,0.6288,0.6174,0.6076,0.6008,0.0,0.0,0.0,0.0,0.0,0.0,0.0,0.0,0.0,0.0,0.0,0.0,0.0,0.0,0.0,0.0,0.0,0.0,0.0,0.0,0.0,0.0,0.0,0.0,0.0,0.0,0.0,0.0,0.0,0.0,0.0,0.0,0.0,0.0,0.0,0.0,0.0,0.0,0.0,0.0,0.0,0.0,0.0,0.0,0.0,0.0,0.0,0.0,0.0,0.0,0.0,0.0,0.0,0.0,0.0,0.0,0.0,0.0,0.0,0.0,0.0,0.0,0.0,0.0,0.0,0.0,0.0,0.0,0.0,0.0,0.0,0.0,0.0,0.0,0.0,0.0,0.0,0.0,0.0,0.0,0.0,0.0,0.0,0.0,0.0,0.0,0.0,0.0,0.0,0.0,0.0,0.0,0.0,0.0,0.0,0.0,0.0,0.0,0.0,0.0,0.0,0.0,0.0,0.0,0.0,0.0,0.0,0.0,0.0,0.0,0.0,0.0,0.6264,0.6153,0.5995,0.0,0.0,0.0,0.0,0.0,0.0,0.0,0.0,0.0,0.0,0.0,0.0,0.0,0.0,0.0,0.0,0.0,0.0,0.0,0.0,0.0,0.0,0.0,0.0,0.0,0.0,0.0,0.0,0.0,0.0,0.0,0.0,0.0,0.0,0.0,0.0,0.0,0.0,0.0,0.0,0.0,0.0,0.0,0.0,0.0,0.0,0.0,0.0,0.0,0.0,0.0,0.0,0.0,0.0,0.0,0.0,0.0,0.0,0.0,0.0,0.0,0.0,0.0,0.0,0.0,0.0,0.0,0.0,0.0,0.0,0.0,0.0,0.0,0.0,0.0,0.0,0.0,0.0,0.0,0.0,0.0,0.0,0.0,0.0,0.0,0.0,0.0,0.0,0.0,0.0,0.0,0.0,0.0,0.0,0.0,0.0,0.0,0.0,0.0,0.0,0.0,0.0,0.0,0.0,0.0,0.0,0.0,0.0,0.0,0.0,0.6378,0.6566,0.6394,0.0,0.5938,0.0,0.0,0.0,0.0,0.0,0.0,0.0,0.0,0.0,0.0,0.0,0.0,0.0,0.0,0.0,0.0,0.0,0.0,0.0,0.0,0.0,0.0,0.0,0.0,0.0,0.0,0.0,0.0,0.0,0.0,0.0,0.0,0.0,0.0,0.0,0.0,0.0,0.0,0.0,0.0,0.0,0.0,0.0,0.0,0.0,0.0,0.0,0.0,0.0,0.0,0.0,0.0,0.0,0.0,0.0,0.0,0.0,0.0,0.0,0.0,0.0,0.0,0.0,0.0,0.0,0.0,0.0,0.0,0.0,0.0,0.0,0.0,0.0,0.0,0.0,0.0,0.0,0.0,0.0,0.0,0.0,0.0,0.0,0.0,0.0,0.0,0.0,0.0,0.0,0.0,0.0,0.0,0.0,0.0,0.0,0.0,0.0,0.0,0.0,0.0,0.0,0.0,0.0,0.0,0.0,0.0,0.0,0.0,0.0,0.0,0.0,0.6586,0.637,0.6116,0.0,0.0,0.0,0.0,0.0,0.0,0.0,0.0,0.0,0.0,0.0,0.0,0.0,0.0,0.0,0.0,0.0,0.0,0.0,0.0,0.0,0.0,0.0,0.0,0.0,0.0,0.0,0.0,0.0,0.0,0.0,0.0,0.0,0.0,0.0,0.0,0.0,0.0,0.0,0.0,0.0,0.0,0.0,0.0,0.0,0.0,0.0,0.0,0.0,0.0,0.0,0.0,0.0,0.0,0.0,0.0,0.0,0.0,0.0,0.0,0.0,0.0,0.0,0.0,0.0,0.0,0.0,0.0,0.0,0.0,0.0,0.0,0.0,0.0,0.0,0.0,0.0,0.0,0.0,0.0,0.0,0.0,0.0,0.0,0.0,0.0,0.0,0.0,0.0,0.0,0.0,0.0,0.0,0.0,0.0,0.0,0.0,0.0,0.0,0.0,0.0,0.0,0.0,0.0,0.0,0.0,0.0,0.0,0.0,0.0,0.651,0.0,0.669,0.639,0.6096,0.5812,0.0,0.0,0.0,0.0,0.0,0.0,0.0,0.0,0.0,0.0,0.0,0.0,0.0,0.0,0.0,0.0,0.0,0.0,0.0,0.0,0.0,0.0,0.0,0.0,0.0,0.0,0.0,0.0,0.0,0.0,0.0,0.0,0.0,0.0,0.0,0.0,0.0,0.0,0.0,0.0,0.0,0.0,0.0,0.0,0.0,0.0,0.0,0.0,0.0,0.0,0.0,0.0,0.0,0.0,0.0,0.0,0.0,0.0,0.0,0.0,0.0,0.0,0.0,0.0,0.0,0.0,0.0,0.0,0.0,0.0,0.0,0.0,0.0,0.0,0.0,0.0,0.0,0.0,0.0,0.0,0.0,0.0,0.0,0.0,0.0,0.0,0.0,0.0,0.0,0.0,0.0,0.0,0.0,0.0,0.0,0.0,0.0,0.0,0.0,0.0,0.0,0.0,0.0,0.0,0.0,0.0,0.0,0.0,0.0,0.6811,0.697,0.6966,0.6535,0.6129,0.0,0.0,0.0,0.0,0.0,0.0,0.0,0.0,0.0,0.0,0.0,0.0,0.0,0.0,0.0,0.0,0.0,0.0,0.0,0.0,0.0,0.0,0.0,0.0,0.0,0.0,0.0,0.0,0.0,0.0,0.0,0.0,0.0,0.0,0.0,0.0,0.0,0.0,0.0,0.0,0.0,0.0,0.0,0.0,0.0,0.0,0.0,0.0,0.0,0.0,0.0,0.0,0.0,0.0,0.0,0.0,0.0,0.0,0.0,0.0,0.0,0.0,0.0,0.0,0.0,0.0,0.0,0.0,0.0,0.0,0.0,0.0,0.0,0.0,0.0,0.0,0.0,0.0,0.0,0.0,0.0,0.0,0.0,0.0,0.0,0.0,0.0,0.0,0.0,0.0,0.0,0.0,0.0,0.0,0.0,0.0,0.0,0.0,0.0,0.0,0.0,0.0,0.0,0.0,0.0,0.0,0.0,0.0,0.0,0.6178,0.6431,0.6688,0.6948,0.6418,0.6138,0.0,0.0,0.0,0.0,0.0,0.0,0.0,0.0,0.0,0.0,0.0,0.0,0.0,0.0,0.0,0.0,0.0,0.0,0.0,0.0,0.0,0.0,0.0,0.0,0.0,0.0,0.0,0.0,0.0,0.0,0.0,0.0,0.0,0.0,0.0,0.0,0.0,0.0,0.0,0.0,0.0,0.0,0.0,0.0,0.0,0.0,0.0,0.0,0.0,0.0,0.0,0.0,0.0,0.0,0.0,0.0,0.0,0.0,0.0,0.0,0.0,0.0,0.0,0.0,0.0,0.0,0.0,0.0,0.0,0.0,0.0,0.0,0.0,0.0,0.0,0.0,0.0,0.0,0.0,0.0,0.0,0.0,0.0,0.0,0.0,0.0,0.0,0.0,0.0,0.0,0.0,0.0,0.0,0.0,0.0,0.0,0.0,0.0,0.0,0.0,0.0,0.0,0.0,0.0,0.0,0.0,0.0,0.0,0.0,0.6376,0.0,0.6736,0.0,0.6644,0.6364,0.0,0.0,0.0,0.0,0.0,0.0,0.0,0.0,0.0,0.0,0.0,0.0,0.0,0.0,0.0,0.0,0.0,0.0,0.0,0.0,0.0,0.0,0.0,0.0,0.0,0.0,0.0,0.0,0.0,0.0,0.0,0.0,0.0,0.0,0.0,0.0,0.0,0.0,0.0,0.0,0.0,0.0,0.0,0.0,0.0,0.0,0.0,0.0,0.0,0.0,0.0,0.0,0.0,0.0,0.0,0.0,0.0,0.0,0.0,0.0,0.0,0.0,0.0,0.0,0.0,0.0,0.0,0.0,0.0,0.0,0.0,0.0,0.0,0.0,0.0,0.0,0.0,0.0,0.0,0.0,0.0,0.0,0.0,0.0,0.0,0.0,0.0,0.0,0.0,0.0,0.0,0.0,0.0,0.0,0.0,0.0,0.0,0.0,0.0,0.0,0.0,0.0,0.0,0.0,0.0,0.0,0.0,0.0,0.0,0.7149,0.7238,0.7185,0.7046,0.7256,0.6817,0.0,0.0,0.0,0.0,0.0,0.0,0.0,0.0,0.0,0.0,0.0,0.0,0.0,0.0,0.0,0.0,0.0,0.0,0.0,0.0,0.0,0.0,0.0,0.0,0.0,0.0,0.0,0.0,0.0,0.0,0.0,0.0,0.0,0.0,0.0,0.0,0.0,0.0,0.0,0.0,0.0,0.0,0.0,0.0,0.0,0.0,0.0,0.0,0.0,0.0,0.0,0.0,0.0,0.0,0.0,0.0,0.0,0.0,0.0,0.0,0.0,0.0,0.0,0.0,0.0,0.0,0.0,0.0,0.0,0.0,0.0,0.0,0.0,0.0,0.0,0.0,0.0,0.0,0.0,0.0,0.0,0.0,0.0,0.0,0.0,0.0,0.0,0.0,0.0,0.0,0.0,0.0,0.0,0.0,0.0,0.0,0.0,0.0,0.0,0.0,0.0,0.0,0.0,0.0,0.0,0.0,0.0,0.0,0.0,0.6983,0.7135,0.7433,0.786,0.7528,0.7275,0.0,0.0,0.0,0.0,0.0,0.0,0.0,0.0,0.0,0.0,0.0,0.0,0.0,0.0,0.0,0.0,0.0,0.0,0.0,0.0,0.0,0.0,0.0,0.0,0.0,0.0,0.0,0.0,0.0,0.0,0.0,0.0,0.0,0.0,0.0,0.0,0.0,0.0,0.0,0.0,0.0,0.0,0.0,0.0,0.0,0.0,0.0,0.0,0.0,0.0,0.0,0.0,0.0,0.0,0.0,0.0,0.0,0.0,0.0,0.0,0.0,0.0,0.0,0.0,0.0,0.0,0.0,0.0,0.0,0.0,0.0,0.0,0.0,0.0,0.0,0.0,0.0,0.0,0.0,0.0,0.0,0.0,0.0,0.0,0.0,0.0,0.0,0.0,0.0,0.0,0.0,0.0,0.0,0.0,0.0,0.0,0.0,0.0,0.0,0.0,0.0,0.0,0.0,0.0,0.0,0.0,0.0,0.0,0.0,0.7657,0.7888,0.812,0.833,0.8135,0.788,0.7552,0.0,0.0,0.0,0.0,0.0,0.0,0.0,0.0,0.0,0.0,0.0,0.0,0.0,0.0,0.0,0.0,0.0,0.0,0.0,0.0,0.0,0.0,0.0,0.0,0.0,0.0,0.0,0.0,0.0,0.0,0.0,0.0,0.0,0.0,0.0,0.0,0.0,0.0,0.0,0.0,0.0,0.0,0.0,0.0,0.0,0.0,0.0,0.0,0.0,0.0,0.0,0.0,0.0,0.0,0.0,0.0,0.0,0.0,0.0,0.0,0.0,0.0,0.0,0.0,0.0,0.0,0.0,0.0,0.0,0.0,0.0,0.0,0.0,0.0,0.0,0.0,0.0,0.0,0.0,0.0,0.0,0.0,0.0,0.0,0.0,0.0,0.0,0.0,0.0,0.0,0.0,0.0,0.0,0.0,0.0,0.0,0.0,0.0,0.0,0.0,0.0,0.0,0.0,0.0,0.0,0.0,0.0,0.0,0.8978,0.9341,0.9209,0.8568,0.9028,0.8655,0.0,0.0,0.0,0.0,0.0,0.0,0.0,0.0,0.0,0.0,0.0,0.0,0.0,0.0,0.0,0.0,0.0,0.0,0.0,0.0,0.0,0.0,0.0,0.0,0.0,0.0,0.0,0.0,0.0,0.0,0.0,0.0,0.0,0.0,0.0,0.0,0.0,0.0,0.0,0.0,0.0,0.0,0.0,0.0,0.0,0.0,0.0,0.0,0.0,0.0,0.0,0.0,0.0,0.0,0.0,0.0,0.0,0.0,0.0,0.0,0.0,0.0,0.0,0.0,0.0,0.0,0.0,0.0,0.0,0.0,0.0,0.0,0.0,0.0,0.0,0.0,0.0,0.0,0.0,0.0,0.0,0.0,0.0,0.0,0.0,0.0,0.0,0.0,0.0,0.0,0.0,0.0,0.0,0.0,0.0,0.0,0.0,0.0,0.0,0.0,0.0,0.0,0.0,0.0,0.0,0.0,0.0,0.0,0.0,0.991,1.0593,1.0603,0.991,0.9613,0.9129,0.0,0.0,0.0,0.0,0.0,0.0,0.0,0.0,0.0,0.0,0.0,0.0,0.0,0.0,0.0,0.0,0.0,0.0,0.0,0.0,0.0,0.0,0.0,0.0,0.0,0.0,0.0,0.0,0.0,0.0,0.0,0.0,0.0,0.0,0.0,0.0,0.0,0.0,0.0,0.0,0.0,0.0,0.0,0.0,0.0,0.0,0.0,0.0,0.0,0.0,0.0,0.0,0.0,0.0,0.0,0.0,0.0,0.0,0.0,0.0,0.0,0.0,0.0,0.0,0.0,0.0,0.0,0.0,0.0,0.0,0.0,0.0,0.0,0.0,0.0,0.0,0.0,0.0,0.0,0.0,0.0,0.0,0.0,0.0,0.0,0.0,0.0,0.0,0.0,0.0,0.0,0.0,0.0,0.0,0.0,0.0,0.0,0.0,0.0,0.0,0.0,0.0,0.0,0.0,0.0,0.0,0.0,0.0,0.962,1.0573,1.1431,1.1619,1.1085,1.0359,0.9681,0.0,0.0,0.0,0.0,0.0,0.0,0.0,0.0,0.0,0.0,0.0,0.0,0.0,0.0,0.0,0.0,0.0,0.0,0.0,0.0,0.0,0.0,0.0,0.0,0.0,0.0,0.0,0.0,0.0,0.0,0.0,0.0,0.0,0.0,0.0,0.0,0.0,0.0,0.0,0.0,0.0,0.0,0.0,0.0,0.0,0.0,0.0,0.0,0.0,0.0,0.0,0.0,0.0,0.0,0.0,0.0,0.0,0.0,0.0,0.0,0.0,0.0,0.0,0.0,0.0,0.0,0.0,0.0,0.0,0.0,0.0,0.0,0.0,0.0,0.0,0.0,0.0,0.0,0.0,0.0,0.0,0.0,0.0,0.0,0.0,0.0,0.0,0.0,0.0,0.0,0.0,0.0,0.0,0.0,0.0,0.0,0.0,0.0,0.0,0.0,0.0,0.0,0.0,0.0,0.0,0.0,0.0,0.0,1.0166,1.1095,1.1958,1.2295,1.2032,1.1106,1.0213,0.0,0.0,0.0,0.0,0.0,0.0,0.0,0.0,0.0,0.0,0.0,0.0,0.0,0.0,0.0,0.0,0.0,0.0,0.0,0.0,0.0,0.0,0.0,0.0,0.0,0.0,0.0,0.0,0.0,0.0,0.0,0.0,0.0,0.0,0.0,0.0,0.0,0.0,0.0,0.0,0.0,0.0,0.0,0.0,0.0,0.0,0.0,0.0,0.0,0.0,0.0,0.0,0.0,0.0,0.0,0.0,0.0,0.0,0.0,0.0,0.0,0.0,0.0,0.0,0.0,0.0,0.0,0.0,0.0,0.0,0.0,0.0,0.0,0.0,0.0,0.0,0.0,0.0,0.0,0.0,0.0,0.0,0.0,0.0,0.0,0.0,0.0,0.0,0.0,0.0,0.0,0.0,0.0,0.0,0.0,0.0,0.0,0.0,0.0,0.0,0.0,0.0,0.0,0.0,0.0,0.0,0.0,0.0,1.0836,1.1773,1.2238,1.2416,1.2323,1.1237,1.0374,0.0,0.0,0.0,0.0,0.0,0.0,0.0,0.0,0.0,0.0,0.0,0.0,0.0,0.0,0.0,0.0,0.0,0.0,0.0,0.0,0.0,0.0,0.0,0.0,0.0,0.0,0.0,0.0,0.0,0.0,0.0,0.0,0.0,0.0,0.0,0.0,0.0,0.0,0.0,0.0,0.0,0.0,0.0,0.0,0.0,0.0,0.0,0.0,0.8399,0.0,0.0,0.0,0.0,0.0,0.0,0.0,0.0,0.0,0.0,0.0,0.0,0.0,0.0,0.0,0.0,0.0,0.0,0.0,0.0,0.0,0.0,0.0,0.0,0.0,0.0,0.0,0.0,0.0,0.0,0.0,0.0,0.0,0.0,0.0,0.0,0.0,0.0,0.0,0.0,0.0,0.0,0.0,0.0,0.0,0.0,0.0,0.0,0.0,0.0,0.0,0.0,0.0,0.0,0.0,0.0,0.0,0.0,0.0,1.1278,1.2203,1.2475,1.2585,1.2505,1.1623,1.0765,0.0,0.0,0.0,0.0,0.0,0.0,0.0,0.0,0.0,0.0,0.0,0.0,0.0,0.0,0.0,0.0,0.0,0.0,0.0,0.0,0.0,0.0,0.0,0.0,0.0,0.0,0.0,0.0,0.0,0.0,0.0,0.0,0.0,0.0,0.0,0.0,0.0,0.0,0.0,0.0,0.0,0.0,0.0,0.0,0.0,0.0,0.0,0.0,0.0,0.0,0.0,0.0,0.0,0.0,0.0,0.0,0.0,0.0,0.0,0.0,0.0,0.0,0.0,0.0,0.0,0.0,0.0,0.0,0.0,0.0,0.0,0.0,0.0,0.0,0.0,0.0,0.0,0.0,0.0,0.0,0.0,0.0,0.0,0.0,0.0,0.0,0.0,0.0,0.0,0.0,0.0,0.0,0.0,0.0,0.0,0.0,0.0,0.0,0.0,0.0,0.0,0.0,0.0,0.0,0.0,0.0,0.0,1.0972,1.1581,1.2476,1.2682,1.2731,1.2694,1.203,1.1232,0.0,0.0,0.0,0.0,0.0,0.0,0.0,0.0,0.0,0.0,0.0,0.0,0.0,0.0,0.0,0.0,0.0,0.0,0.0,0.0,0.0,0.0,0.0,0.0,0.0,0.0,0.0,0.0,0.0,0.0,0.0,0.0,0.0,0.0,0.0,0.0,0.0,0.0,0.0,0.7395,0.7589,0.0,0.0,0.0,0.0,0.0,0.0,0.0,0.0,0.8163,0.0,0.0,0.0,0.0,0.0,0.0,0.0,0.0,0.0,0.0,0.0,0.0,0.0,0.0,0.0,0.0,0.0,0.0,0.0,0.0,0.0,0.0,0.0,0.0,0.0,0.0,0.0,0.0,0.0,0.0,0.0,0.0,0.0,0.0,0.0,0.0,0.0,0.0,0.0,0.0,0.0,0.0,0.0,0.0,0.0,0.0,0.0,0.0,0.0,0.0,0.0,0.0,0.0,0.0,0.0,0.0,1.1003,1.1178,1.1723,1.2655,1.2908,1.2924,1.2693,1.2217,1.1638,1.0961,0.0,0.0,0.0,0.0,0.0,0.0,0.0,0.0,0.0,0.0,0.0,0.0,0.0,0.0,0.0,0.0,0.0,0.0,0.0,0.0,0.0,0.0,0.0,0.0,0.0,0.0,0.0,0.0,0.0,0.0,0.0,0.0,0.0,0.0,0.0,0.0,0.0,0.0,0.0,0.7806,0.7962,0.0,0.0,0.0,0.0,0.0,0.0,0.0,0.0,0.8372,0.0,0.0,0.0,0.0,0.0,0.0,0.0,0.0,0.0,0.0,0.0,0.0,0.0,0.0,0.0,0.0,0.0,0.0,0.0,0.0,0.0,0.0,0.0,0.0,0.0,0.0,0.0,0.0,0.0,0.0,0.0,0.0,0.0,0.0,0.0,0.0,0.0,0.0,0.0,0.0,0.0,0.0,0.0,0.0,0.0,0.0,0.0,0.0,0.0,0.0,0.0,0.0,0.0,0.0,0.0,1.1074,1.1708,1.2312,1.2884,1.3022,1.3179,1.3304,1.2605,1.2068,0.0,0.0,0.0,0.0,0.0,0.0,0.0,0.0,0.0,0.0,0.0,0.0,0.0,0.0,0.0,0.0,0.0,0.0,0.0,0.0,0.0,0.0,0.0,0.0,0.0,0.0,0.0,0.0,0.0,0.0,0.0,0.0,0.0,0.0,0.0,0.0,0.0,0.0,0.0,0.0,0.8179,0.8354,0.8881,0.0,0.0,0.0,0.0,0.0,0.0,0.8576,0.8337,0.0,0.0,0.0,0.0,0.0,0.0,0.0,0.0,0.0,0.0,0.0,0.0,0.0,0.0,0.0,0.0,0.0,0.0,0.0,0.0,0.0,0.0,0.0,0.0,0.0,0.0,0.0,0.0,0.0,0.0,0.0,0.0,0.0,0.0,0.0,0.0,0.0,0.0,0.0,0.0,0.0,0.0,0.0,0.0,0.0,0.0,0.0,0.0,0.0,0.0,0.0,0.0,0.0,0.0,0.0,1.1199,1.21,1.2748,1.3104,1.3256,1.3513,1.387,1.309,1.2632,0.0,0.0,0.0,0.0,0.0,0.0,0.0,0.0,0.0,0.0,0.0,0.0,0.0,0.0,0.0,0.0,0.0,0.0,0.0,0.0,0.0,0.0,0.0,0.0,0.0,0.0,0.0,0.0,0.0,0.0,0.0,0.0,0.0,0.0,0.0,0.0,0.0,0.0,0.0,0.0,0.0,0.8752,0.902,0.8881,0.0,0.0,0.0,0.0,0.9405,0.8909,0.0,0.0,0.0,0.0,0.0,0.0,0.0,0.0,0.0,0.0,0.0,0.0,0.0,0.0,0.0,0.0,0.0,0.0,0.0,0.0,0.0,0.0,0.0,0.0,0.0,0.0,0.0,0.0,0.0,0.0,0.0,0.0,0.0,0.0,0.0,0.0,0.0,0.0,0.0,0.0,0.0,0.0,0.0,0.0,0.0,0.0,0.0,0.0,0.0,0.0,0.0,0.0,0.0,0.0,0.0,0.0,1.1428,1.186,1.2436,1.3179,1.3816,1.408,1.3894,1.3674,1.3297,0.0,0.0,0.0,0.0,0.0,0.0,0.0,0.0,0.0,0.0,0.0,0.0,0.0,0.0,0.0,0.0,0.0,0.0,0.0,0.0,0.0,0.0,0.0,0.0,0.0,0.0,0.0,0.0,0.0,0.0,0.0,0.0,0.0,0.0,0.0,0.0,0.0,0.0,0.0,0.0,0.0,0.8871,0.8926,0.9084,0.8966,0.0,0.0,0.0,0.9893,0.9702,0.0,0.0,0.0,0.0,0.0,0.0,0.0,0.0,0.0,0.0,0.0,0.0,0.0,0.0,0.0,0.0,0.0,0.0,0.0,0.0,0.0,0.0,0.0,0.0,0.0,0.0,0.0,0.0,0.0,0.0,0.0,0.0,0.0,0.0,0.0,0.0,0.0,0.0,0.0,0.0,0.0,0.0,0.0,0.0,0.0,0.0,0.0,0.0,0.0,0.0,0.0,0.0,0.0,0.0,0.0,0.0,1.1504,1.2615,1.3398,1.3827,1.444,1.4808,1.4915,1.4214,1.3635,0.0,0.0,0.0,0.0,0.0,0.0,0.0,0.0,0.0,0.0,0.0,0.0,0.0,0.0,0.0,0.0,0.0,0.0,0.0,0.0,0.0,0.0,0.0,0.0,0.0,0.0,0.0,0.0,0.0,0.0,0.0,0.0,0.0,0.0,0.0,0.0,0.0,0.0,0.0,0.0,0.0,0.0,0.9406,0.9713,0.0,0.0,0.0,1.0286,1.0389,0.0,0.0,0.0,0.0,0.0,0.0,0.0,0.0,0.0,0.0,0.0,0.0,0.0,0.0,0.0,0.0,0.0,0.0,0.0,0.0,0.0,0.0,0.0,0.0,0.0,0.0,0.0,0.0,0.0,0.0,0.0,0.0,0.0,0.0,0.0,0.0,0.0,0.0,0.0,0.0,0.0,0.0,0.0,0.0,0.0,0.0,0.0,0.0,0.0,0.0,0.0,0.0,0.0,0.0,0.0,0.0,0.0,1.181,1.333,1.4236,1.4544,1.5064,1.5465,1.5673,1.4805,0.0,0.0,0.0,0.0,0.0,0.0,0.0,0.0,0.0,0.0,0.0,0.0,0.0,0.0,0.0,0.0,0.0,0.0,0.0,0.0,0.0,0.0,0.0,0.0,0.0,0.0,0.0,0.7244,0.0,0.0,0.0,0.0,0.0,0.0,0.0,0.0,0.0,0.0,0.0,0.0,0.0,0.0,0.9795,0.9758,1.016,1.016,0.0,0.0,1.0811,1.1084,1.0564,1.0029,0.0,0.0,0.0,0.0,0.0,0.0,0.0,0.0,0.0,0.0,0.0,0.0,0.0,0.0,0.0,0.0,0.0,0.0,0.0,0.0,0.0,0.0,0.0,0.0,0.0,0.0,0.0,0.0,0.0,0.0,0.0,0.0,0.0,0.0,0.0,0.0,0.0,0.0,0.0,0.0,0.0,0.0,0.0,0.0,0.0,0.0,0.0,0.0,0.0,0.0,0.0,0.0,0.0,0.0,0.0,1.2603,1.3601,1.4484,1.5219,1.575,1.5924,1.5699,1.5569,1.5111,0.0,0.0,0.0,0.0,0.0,0.0,0.0,0.0,0.0,0.0,0.0,0.0,0.0,0.0,0.0,0.0,0.0,0.0,0.0,0.0,0.0,0.0,0.0,0.0,0.0,0.0,0.0,0.0,0.0,0.0,0.0,0.0,0.0,0.0,0.0,0.0,0.0,0.0,0.0,0.0,0.0,0.9759,0.9628,1.0218,1.0436,0.0,0.0,1.1078,1.2114,1.1613,1.0944,1.0502,0.0,0.0,0.0,0.0,0.0,0.0,0.0,0.0,0.0,0.0,0.0,0.0,0.0,0.0,0.0,0.0,0.0,0.0,0.0,0.0,0.0,0.0,0.0,0.0,0.0,0.0,0.0,0.0,0.0,0.0,0.0,0.0,0.0,0.0,0.0,0.0,0.0,0.0,0.0,0.0,0.0,0.0,0.0,0.0,0.0,0.0,0.0,0.0,0.0,0.0,0.0,0.0,0.0,1.1922,1.2777,1.4427,1.545,1.5803,1.6361,1.651,1.6198,1.5736,1.4971,0.0,0.0,0.0,0.0,0.0,0.0,0.0,0.0,0.0,0.0,0.0,0.0,0.0,0.0,0.0,0.0,0.0,0.0,0.0,0.0,0.0,0.0,0.0,0.0,0.0,0.0,0.0,0.0,0.831,0.8395,0.8074,0.0,0.0,0.0,0.0,0.0,0.0,0.0,0.0,0.0,0.0,1.0349,1.0497,1.0902,0.0,0.0,1.1224,1.2129,1.2367,1.1918,1.1418,1.0995,1.0255,0.0,0.0,0.0,0.0,0.0,0.0,0.0,0.0,0.0,0.0,0.0,0.0,0.0,0.0,0.0,0.0,0.0,0.0,0.0,0.0,0.0,0.0,0.0,0.0,0.0,0.0,0.0,0.0,0.0,0.0,0.0,0.0,0.0,0.0,0.0,0.0,0.0,0.0,0.0,0.0,0.0,0.0,0.0,0.0,0.0,0.0,0.0,0.0,0.0,0.0,0.0,0.0,1.2295,1.308,1.5,1.6132,1.638,1.6781,1.6836,1.6491,1.5874,1.5141,0.0,0.0,0.0,0.0,0.0,0.0,0.0,0.0,0.0,0.0,0.0,0.0,0.0,0.0,0.0,0.0,0.0,0.0,0.0,0.0,0.0,0.0,0.0,0.0,0.0,0.0,0.0,0.0,0.8792,0.8809,0.8572,0.0,0.0,0.0,0.0,0.0,0.0,0.0,0.0,0.0,0.0,1.0817,1.1128,1.1416,1.1395,1.0896,1.1844,1.2644,1.2691,1.2273,1.1855,1.1632,0.0,0.0,0.0,0.0,0.0,0.0,0.0,0.0,0.0,0.0,0.0,0.0,0.0,0.0,0.0,0.0,0.0,0.0,0.0,0.0,0.0,0.0,0.0,0.0,0.0,0.0,0.0,0.0,0.0,0.0,0.0,0.0,0.0,0.0,0.0,0.0,0.0,0.0,0.0,0.0,0.0,0.0,0.0,0.0,0.0,0.0,0.0,0.0,0.0,0.0,0.0,0.0,0.0,0.0,1.3684,1.5232,1.6321,1.6932,1.6991,1.6849,1.6524,1.612,1.5828,1.5716,0.0,0.0,0.0,0.0,0.0,0.0,0.0,0.0,0.0,0.0,0.0,0.0,0.0,0.0,0.0,0.0,0.0,0.0,0.0,0.0,0.0,0.0,0.0,0.0,0.0,0.0,0.9207,0.9009,0.8891,0.0,0.0,0.0,0.0,0.0,0.0,0.0,0.0,0.0,0.0,1.0424,1.0987,1.127,1.159,1.1779,1.1729,1.1914,1.2339,1.3223,1.2711,1.2257,0.0,0.0,0.0,0.0,0.0,0.0,0.0,0.0,0.0,0.0,0.0,0.0,0.0,0.0,0.0,0.0,0.0,0.0,0.0,0.0,0.0,0.0,0.0,0.0,0.0,0.0,0.0,1.0404,1.0318,0.0,0.0,0.0,0.0,0.0,0.0,0.0,0.0,0.0,0.0,0.0,1.145,1.1663,0.0,0.0,0.0,0.0,0.0,0.0,0.0,0.0,0.0,0.0,0.0,0.0,1.3481,1.4272,1.5839,1.6774,1.6991,1.7004,1.7018,1.7042,1.671,1.6354,1.5876,0.0,0.0,0.0,0.0,0.0,0.0,0.0,0.0,0.0,0.0,0.0,0.0,0.0,0.0,0.0,0.0,0.0,0.0,0.0,0.0,0.0,0.0,0.0,0.0,0.0,0.9667,0.0,0.0,0.0,0.0,0.0,0.0,0.0,0.0,0.0,0.0,0.0,0.9866,1.0641,1.1179,1.17,1.2226,1.2011,1.1748,0.0,0.0,0.0,0.0,0.0,0.0,0.0,0.0,0.0,0.0,0.0,0.0,0.0,0.0,1.1949,1.0729,1.0404,1.0225,0.9865,0.0,0.0,0.0,0.0,0.0,0.0,0.0,0.0,0.0,0.0,0.0,0.0,0.0,0.0,0.0,0.0,1.1377,0.0,0.0,0.0,0.0,0.0,0.0,0.0,0.0,1.1099,1.1774,1.2624,1.2837,1.2999,0.0,1.2997,1.2516,0.0,0.0,0.0,0.0,0.0,0.0,0.0,0.0,1.4023,1.4602,1.6179,1.7004,1.7018,1.7175,1.7325,1.7413,1.7306,1.6941,1.6259,1.5362,1.4715,0.0,0.0,0.0,0.0,0.0,0.0,0.0,0.0,0.0,0.0,0.0,0.0,0.0,0.0,0.0,0.0,0.0,0.0,0.0,0.0,0.0,0.0,0.0,1.0143,0.0,0.0,0.0,0.0,0.0,0.0,0.0,0.0,0.0,0.9763,1.0108,1.072,1.1698,1.2142,1.2531,1.293,0.0,0.0,0.0,0.0,0.0,0.0,0.0,1.34,1.3387,1.2956,1.2612,1.268,1.3425,1.389,1.3415,0.0,0.0,1.2015,1.1699,1.1526,1.1175,1.1256,1.145,1.1649,1.1167,1.0958,0.0,0.0,0.0,0.0,0.0,0.0,0.0,0.0,1.4779,1.4094,0.0,1.2907,0.0,0.0,0.0,0.0,0.0,0.0,0.0,0.0,1.2647,1.3195,1.3521,1.3691,1.381,1.3952,1.3992,1.3781,1.3373,1.2666,0.0,0.0,0.0,0.0,0.0,0.0,1.4213,1.4811,1.6284,1.7044,1.7083,1.7549,1.7771,1.7651,1.782,1.762,1.6973,1.6563,1.5987,1.5263,1.4224,0.0,0.0,0.0,0.0,0.0,0.0,0.0,0.0,0.0,0.0,0.0,0.0,0.0,0.0,0.0,0.0,0.0,0.0,0.0,0.0,1.0643,0.0,0.0,0.0,0.0,0.0,0.0,0.0,0.0,0.0,0.0,1.0811,1.1146,1.1838,1.2879,0.0,0.0,0.0,0.0,1.369,1.3051,1.3733,1.4427,1.4682,1.421,1.3887,1.4086,0.0,0.0,1.3876,1.4607,1.4858,1.3863,1.4071,1.4156,1.3597,1.3047,1.272,1.2788,1.2523,1.2379,1.2693,1.2387,1.2169,1.9683,0.0,0.0,0.0,0.0,1.5331,1.559,1.6171,1.5854,1.5066,1.3955,1.3721,0.0,0.0,0.0,0.0,0.0,0.0,1.2163,1.3158,1.3489,1.4459,1.5953,1.61,1.6531,1.721,1.7082,1.689,1.6672,1.6399,1.4893,1.2332,0.0,0.0,0.0,0.0,1.5157,1.6133,1.7075,1.7771,1.8151,1.8288,1.8449,1.8597,1.8512,1.8339,1.8057,1.752,1.6858,1.6011,1.533,0.0,0.0,0.0,0.0,0.0,0.0,0.0,0.0,0.0,0.0,0.0,0.0,0.0,0.0,0.0,0.0,0.0,0.0,0.0,1.0652,1.0887,1.0948,0.0,0.0,0.0,0.0,0.0,0.0,0.0,0.0,0.0,1.2887,1.2587,1.2594,0.0,0.0,1.3839,1.3983,1.4357,1.4505,1.4213,0.0,0.0,0.0,1.4835,1.4514,1.4708,1.4611,1.4621,1.4894,1.5245,1.5377,1.5,1.512,1.5194,1.5094,1.4566,1.4067,1.3915,1.4023,1.411,1.4026,1.3903,1.392,2.2246,1.9595,1.9198,1.8577,1.786,1.7377,1.755,1.8121,1.7847,1.7125,1.6082,1.5861,1.493,1.3488,1.3031,0.0,0.0,0.0,1.3929,1.4822,1.5538,1.6281,1.7095,1.7855,1.8496,1.8981,1.8873,1.8777,1.8695,1.8339,1.7028,1.4798,0.0,0.0,1.4656,1.5699,1.6445,1.6878,1.7695,1.8262,1.8589,1.8751,1.898,1.9284,1.9067,1.8874,1.8699,1.8155,1.7512,1.6839,1.6537,1.5709,0.0,0.0,0.0,0.0,0.0,0.0,0.0,0.0,0.0,0.0,0.0,1.0119,0.0,0.0,0.0,0.0,1.1007,1.1384,1.1264,1.1497,0.0,0.0,0.0,0.0,0.0,0.0,0.0,1.2805,1.3055,1.3492,1.4359,1.4132,1.3997,1.4344,1.4568,1.4704,1.4733,0.0,1.5258,1.4946,1.5282,1.5596,1.5765,1.5374,1.5091,1.5221,1.5192,1.5198,1.5404,1.5581,1.5623,1.5545,1.561,1.5735,1.5784,1.5489,1.5166,1.4888,1.5035,1.5163,1.497,1.5001,1.506,2.4518,2.377,2.1801,2.0989,2.0926,2.0182,2.0065,2.0392,2.0405,1.9821,1.8839,1.8736,1.7879,1.6411,1.5393,0.0,0.0,1.6331,1.631,1.6756,1.8216,1.8412,1.7632,1.9246,1.9988,1.9966,1.9945,1.9921,1.9889,1.9324,1.8824,1.8444,1.8244,1.76,1.663,1.765,1.7924,1.7368,1.8288,1.8748,1.8761,1.9125,1.9468,1.9779,1.9505,1.9269,1.9102,1.8532,1.8073,1.7753,1.7688,1.6886,1.5191,0.0,0.0,0.0,0.0,0.0,0.0,0.0,0.0,0.0,0.0,0.0,0.0,0.0,0.0,0.0,1.1696,0.0,1.2186,1.2306,0.0,0.0,0.0,1.2478,1.277,1.2869,1.3229,1.4045,0.0,0.0,0.0,0.0,1.5672,1.5734,1.5854,1.5801,1.5486,1.5822,1.5898,1.5313,1.5482,1.5789,1.6079,1.5855,1.5646,1.5665,1.5755,1.5767,1.5677,1.5758,1.5776,1.5607,1.5761,1.5917,1.5849,1.5956,1.6015,1.57,1.5639,1.5621,1.5615,1.5617,1.5606,2.5414,2.5011,2.3954,2.2897,2.1911,2.2117,2.2128,2.2042,2.2255,2.1441,1.9934,1.9747,1.8717,1.7079,1.6906,1.7165,1.7704,1.7716,1.7986,1.8436,1.9192,1.992,2.0591,2.1393,2.2186,2.2926,2.2953,2.2734,2.2382,2.2589,2.2258,2.1428,2.1732,2.017,1.6923,1.8393,1.9316,1.9451,1.99,2.012,2.0133,2.0226,2.0125,1.9809,1.9821,1.9861,1.9892,1.9058,1.8626,1.8714,1.7937,1.6914,1.5674,1.4899,0.0,0.0,0.0,0.0,0.0,0.0,0.0,0.0,0.0,1.0936,1.0348,0.0,1.1556,0.0,1.2253,1.2833,1.2925,1.2972,0.0,0.0,1.303,1.3193,1.3706,1.3861,1.4097,1.4509,1.499,1.541,1.5735,1.5981,1.6354,1.6867,1.6438,1.5973,1.5816,1.6048,1.608,1.5661,1.5941,1.6301,1.6362,1.6256,1.6144,1.6138,1.608,1.6006,1.5974,1.6138,1.6201,1.6013,1.6096,1.6148,1.6066,1.6157,1.6219,1.6145,1.6062,1.5974,1.5981,1.5988,1.5994,2.5949,2.5781,2.5371,2.46,2.3642,2.3307,2.3115,2.3091,2.312,2.2622,2.1795,2.1353,2.0481,1.9331,1.9164,1.9456,2.0031,2.005,2.0159,2.0438,2.1362,2.1903,2.2125,2.3132,2.3916,2.448,2.4378,2.4168,2.3888,2.405,2.3685,2.2908,2.3401,2.2184,1.9429,2.0483,2.1126,2.1195,2.1691,2.189,2.1763,2.1465,2.0965,2.0275,2.0355,2.0114,1.9512,1.9441,1.8995,1.8131,1.8173,1.7505,1.5904,1.5377,1.4706,0.0,0.0,0.0,0.0,0.0,0.0,0.0,0.0,0.0,0.0,0.0,1.2213,0.0,0.0,0.0,1.3587,1.3709,1.3831,1.3958,1.4041,1.4246,1.4624,1.4793,1.497,1.521,1.5685,1.6032,1.6162,1.6341,1.675,1.7469,1.7162,1.6795,1.6632,1.6753,1.668,1.6129,1.6291,1.6504,1.6504,1.6659,1.6687,1.6452,1.6334,1.6279,1.6267,1.6373,1.6421,1.6325,1.6554,1.6852,1.6986,1.6865,1.6852,1.7041,1.6884,1.6601,1.633,1.6182,1.6122,2.6257,2.6257,2.6213,2.5954,2.5491,2.4212,2.3748,2.3877,2.3709,2.3699,2.3748,2.3016,2.2439,2.1973,2.157,2.1878,2.2702,2.2524,2.2434,2.247,2.3799,2.3951,2.3135,2.4558,2.5236,2.5225,2.5002,2.4873,2.4798,2.4626,2.4246,2.3708,2.4135,2.3818,2.2778,2.3181,2.3187,2.2773,2.3471,2.3627,2.3181,2.2704,2.1939,2.0934,2.1054,2.0494,1.9104,1.9728,1.9278,1.7502,1.8404,1.8127,1.62,1.6069,1.558,0.0,1.3376,0.0,0.0,0.0,0.0,0.0,0.0,0.0,0.0,1.2579,1.2891,1.3329,1.3879,1.4226,1.426,1.4531,1.4754,1.4819,1.5144,1.5374,1.5452,1.5588,1.5739,1.5919,1.6285,1.6524,1.6524,1.6693,1.7102,1.7823,1.8054,1.8005,1.7785,1.7685,1.735,1.6683,1.6682,1.6923,1.6817,1.7103,1.7185,1.6679,1.6491,1.6511,1.6491,1.6492,1.6525,1.6551,1.698,1.7563,1.8147,1.7783,1.7604,1.7963,1.7724,1.7352,1.6875,1.6433,1.6281,2.6532,2.6498,2.629,2.6152,2.6043,2.5762,2.5354,2.4861,2.5238,2.4988,2.4218,2.3492,2.3106,2.2999,2.2916,2.3097,2.3515,2.3617,2.3747,2.3925,2.4844,2.5167,2.5005,2.5666,2.5977,2.599,2.5935,2.5727,2.5366,2.567,2.5379,2.4518,2.4985,2.5131,0.0,0.0,0.0,0.0,2.4993,2.4549,2.3198,2.358,2.2964,2.1217,2.2032,0.0,2.1206,1.9937,1.9524,2.0025,1.8471,0.0,0.0,0.0,0.0,0.0,0.0,0.0,0.0,0.0,0.0,0.0,1.3383,1.3014,1.2675,1.3336,1.3916,1.4231,1.4602,1.4919,1.5145,1.56,1.5757,1.5488,1.5885,1.6071,1.5855,1.5934,1.607,1.6218,1.6496,1.6667,1.672,1.7187,1.7864,1.8582,1.912,1.9436,1.9444,1.8591,1.7701,1.7092,1.7651,1.8017,1.7609,1.758,1.7484,1.6822,1.6573,1.6557,1.6576,1.6633,1.6629,1.6558,1.7087,1.7774,1.8417,1.8103,1.783,1.796,1.8076,1.8078,1.7891,1.7099,1.6711,2.6741,0.0,2.66,2.6557,0.0,2.6557,2.6266,2.582,2.5884,2.5388,2.4527,2.4149,2.3857,2.3675,2.4028,2.4262,2.4408,2.4882,2.5147,2.5273,2.578,2.6049,2.6047,2.6299,2.6399,2.6401,2.6281,2.6091,2.5877,2.6209,2.6062,2.5406,2.5802,2.6055,2.6167,2.7074,2.7191,2.6536,2.6473,2.6061,2.537,2.5356,2.4741,2.346,0.0,0.0,0.0,0.0,0.0,0.0,0.0,0.0,0.0,0.0,0.0,1.6587,1.5919,1.5394,1.4962,1.4537,1.4436,1.4772,1.5097,1.4826,1.3774,1.4335,1.4805,1.4943,1.5413,1.5777,1.5975,1.6474,1.6761,1.6659,1.6941,1.6976,1.6561,1.6348,1.6282,1.6409,1.6744,1.7065,1.728,1.7719,1.8405,1.9279,1.9694,1.9938,1.9949,1.9435,1.8774,1.8225,1.9027,1.9404,1.869,1.8695,1.8539,1.7982,1.7817,1.7676,1.7351,1.7391,1.7337,1.6941,1.7409,1.8288,1.9408,1.9057,1.8629,1.918,1.9248,1.9265,1.9382,1.8469,1.7677,2.6886,2.6886,2.6886,2.6886,2.6886,2.6886,2.6797,2.6577,0.0,0.0,0.0,2.4965,2.4768,2.4448,2.5013,2.5282,2.534,2.5984,2.6256,2.6279,2.6541,2.6661,2.6661,2.6648,2.6661,2.665,2.643,2.632,2.6343,2.6595,2.6593,2.6359,2.6579,2.685,2.7226,2.8319,2.8732,2.8355,2.7865,2.7628,2.7697,2.7218,2.657,2.5761,2.6097,2.5372,2.3492,2.3918,2.3126,2.088,2.1407,2.0824,1.8777,1.9766,1.983,1.8507,1.7695,1.7175,1.693,1.6096,1.5676,1.5815,1.6713,1.6653,1.5195,1.5447,1.5684,1.57,1.6237,1.6651,1.6825,1.7353,1.7716,1.7784,1.7974,1.7878,1.7358,1.6997,1.6865,1.6914,1.7351,1.7704,1.8088,1.8429,1.8946,1.9823,2.0153,2.0196,2.0198,1.9967,1.9614,1.9447,2.0134,2.0551,1.9704,1.9606,1.9696,1.8987,1.9023,1.8974,1.8491,1.8381,1.8091,1.719,1.7876,1.9058,2.0253,1.9856,1.9669,2.0596,2.0432,2.0268,2.0717,1.9994,1.9142,2.6886,2.6886,2.6886,2.6886,2.6886,2.6886,2.6797,2.6575,2.6291,2.6102,2.5983,2.5983,2.597,2.5895,2.599,2.6048,2.607,2.6397,2.653,0.0,2.6776,2.6871,2.6858,2.6858,2.6858,2.6858,2.6813,2.6815,2.6836,2.7066,2.718,2.7156,2.7399,2.7873,2.8564,2.8819,2.9196,2.9748,2.9121,2.8536,2.8131,2.8241,2.7676,2.6401,2.7019,2.6736,2.5389,2.4684,2.426,2.4151,2.266,2.1954,2.2283,2.1497,2.0365,1.9035,1.8788,1.8216,1.7101,1.6853,1.6856,1.7145,1.7845,1.7813,1.6716,1.6642,1.6742,1.6857,1.7111,1.739,1.7703,1.8338,1.8586,1.8257,1.8561,1.864,1.8134,1.8096,1.8148,1.8286,1.8554,1.8738,1.8983,1.9413,1.9821,2.0232,2.0623,2.0956,2.0908,2.0097,1.9633,2.0027,2.0775,2.0859,2.0198,1.9932,1.9846,1.9251,1.9273,1.9338,1.9145,1.9108,1.8767,1.762,1.8678,1.9614,1.9952,1.9977,2.0107,2.0474,2.0466,2.0656,2.1262,2.1071,2.0828,2.7327,2.7327,2.7327,2.734,2.734,2.7327,2.7198,2.6984,2.6864,2.6546,2.6189,2.6179,2.6179,2.6202,2.6356,2.6422,2.6421,2.6657,2.6765,2.6786,2.7012,2.712,2.7142,2.7273,2.7327,2.734,2.734,2.7327,2.7351,2.7458,2.7566,2.7693,2.7946,2.8572,2.9486,2.9551,3.0021,3.0955,2.9946,2.9404,2.9445,2.9321,2.8985,2.8473,2.8696,2.8403,2.7511,2.6837,2.6358,2.6097,2.5185,2.436,2.3679,2.3795,2.3218,2.1676,2.1285,2.0811,2.0093,1.9194,1.8635,1.8581,1.9497,1.9786,1.914,1.8154,1.7648,1.7708,1.8043,1.833,1.85,1.9064,1.934,1.9111,1.9389,1.9407,1.9019,1.9069,1.9111,1.9006,1.9091,1.932,1.9738,2.0082,2.0458,2.0831,2.1126,2.1289,2.1395,2.0852,2.0468,2.0826,2.1147,2.1211,2.0817,2.0755,2.0599,2.029,2.0318,2.0333,2.0219,2.0053,1.9808,1.959,1.9802,1.9994,2.0369,2.0424,2.0531,2.0861,2.095,2.1294,2.1979,2.1882,2.1369,2.7873,2.7886,2.7755,2.7716,2.7716,2.7716,2.7595,2.7394,2.737,2.7036,2.6494,2.6397,2.6365,2.6374,2.6571,2.6704,2.6769,2.686,2.6944,2.7034,2.7351,2.7403,2.7288,2.7654,2.7753,2.7586,2.7743,2.7799,2.7651,2.7842,2.8,2.8105,2.8301,2.898,3.0069,3.0096,3.0659,3.1661,3.0727,3.0348,3.0661,3.0289,3.0128,3.0247,3.008,2.9731,2.9187,2.8832,2.831,2.7663,2.7385,2.6546,2.5096,2.5765,2.558,2.4103,2.3536,2.3006,2.235,2.1398,2.0555,2.0087,2.0933,2.142,2.1106,1.993,1.9001,1.8883,1.9008,1.9118,1.9271,1.963,1.9927,1.9935,2.0076,2.007,1.9814,1.9933,1.9965,1.9681,1.9724,2.0012,2.0427,2.0639,2.0874,2.1258,2.1398,2.1398,2.1398,2.1398,2.1398,2.1398,2.1398,2.1381,2.1398,2.1354,2.1284,2.1197,2.1246,2.1177,2.1025,2.0852,2.086,2.1047,2.058,2.049,2.1153,2.1035,2.1074,2.1601,2.1842,2.2184,2.3223,2.2939,2.1971,2.8436,2.8346,2.7937,2.7716,2.7737,2.7726,2.7702,2.7657,2.767,2.7493,2.7155,2.6946,2.6823,2.6834,2.6858,2.6965,2.7176,2.701,2.7045,2.7308,2.7854,2.7716,2.7148,2.7967,2.793,2.7284,2.8,2.8136,2.7602,2.8344,2.8638,2.8387,2.8404,2.8994,2.9988,3.0109,3.0659,3.1767,3.1663,3.1517,3.1305,3.1042,3.0777,3.0563,3.0539,3.0274,2.9743,2.9681,2.9499,2.9159,2.8247,2.7653,2.7381,2.6686,2.573,2.4714,2.4552,2.368,2.186,2.2345,2.2358,2.1706,2.1758,2.1972,2.202,2.1904,2.1469,2.083,1.998,1.9806,1.9961,2.0256,2.0421,2.0385,2.0506,2.0542,2.0504,2.0686,2.083,2.0921,2.0826,2.1018,2.1182,2.1231,2.1294,2.137,2.1398,2.1398,2.1398,2.1398,2.1398,2.1411,2.1425,2.1521,2.1562,2.1439,2.1642,2.1543,2.1436,2.1442,2.1393,2.131,2.1357,2.1296,2.1296,2.1192,2.1274,2.1357,2.1741,2.2485,2.2923,2.3346,2.4378,2.4659,2.3946,2.9442,2.94,2.8832,2.8392,2.8163,2.8446,2.8329,2.7868,2.7743,2.7536,2.7305,2.7172,2.7053,2.6886,2.6886,2.6965,2.7066,2.7327,2.7493,2.7654,2.8292,2.843,2.8192,2.8663,2.8799,2.8581,2.9005,2.9131,2.8986,2.9058,2.9015,2.8891,2.8875,2.944,3.0498,3.0578,3.098,3.1767,3.1794,3.1745,3.1639,3.1372,3.112,3.0853,3.0684,3.0431,3.008,3.0032,2.9984,2.9812,2.8857,2.8266,2.8254,2.7229,2.6392,2.5825,2.5063,2.4277,2.341,2.278,2.225,2.1918,2.2144,2.2583,2.3329,2.3429,2.3451,2.354,2.2617,2.2006,2.2108,2.2218,2.2034,2.1572,2.1509,2.1385,2.0937,2.097,2.1083,2.1232,2.1278,2.133,2.1381,2.1398,2.1398,2.1398,2.1425,2.1521,2.1439,2.1398,2.1398,2.1576,2.2492,2.3172,2.2922,2.3191,2.3082,2.2617,2.2412,2.2307,2.159,2.1411,2.1398,2.1411,2.1398,2.1398,2.137,2.2042,2.2622,2.336,2.4587,2.5352,2.5824,2.6471,2.6295,3.031,3.0243,2.9682,2.9211,2.8899,2.9279,2.9136,2.8596,2.8423,2.8204,2.7969,2.7959,2.784,2.7578,2.7262,2.7217,2.7465,2.7744,2.8007,2.8265,2.8949,2.9137,2.901,2.9495,2.969,2.9665,2.9885,3.0046,3.0057,2.9693,2.9386,2.9265,2.9359,2.9937,3.0808,3.0915,3.1194,3.174,3.1794,3.1794,3.1783,3.1615,3.1386,3.1107,3.0866,3.0588,3.0322,3.0309,3.0309,3.0297,2.943,2.8868,2.8665,2.77,2.7004,2.6664,2.5787,2.5113,2.4883,2.3933,2.3284,2.3145,2.3378,2.3894,2.4649,2.4862,2.5097,2.5458,2.5103,2.4481,2.3288,2.3512,2.3166,2.2069,2.2112,2.2063,2.1246,2.1347,2.1742,2.1839,2.2318,2.2371,2.2398,2.2466,2.2526,2.2535,2.2466,2.2371,2.2176,2.1921,2.139,2.1486,2.3374,2.4565,2.4411,2.4424,2.4415,2.4024,2.3578,2.3191,2.2138,2.1919,2.1549,2.1631,2.1494,2.1439,2.1521,2.2247,2.3592,2.4287,2.5556,2.6935,2.7083,2.7864,2.8212,3.0861,3.0781,3.0297,3.0042,3.0015,3.0042,3.0017,2.9849,2.9918,2.977,2.9491,2.9493,2.9445,2.9126,2.8184,2.8105,2.8664,2.8356,2.8563,2.9211,2.9844,2.9726,2.9124,3.0213,3.0329,2.9728,3.0406,3.0574,3.0163,3.0082,2.9774,2.9281,2.9812,3.035,3.0898,3.1005,3.1234,3.1778,3.1806,3.1794,3.1794,3.1795,3.1638,3.1398,3.1119,3.084,3.0611,3.0575,3.0588,3.0588,2.9999,2.9497,2.8982,2.8173,2.746,2.6965,2.6788,2.6316,2.5643,2.6094,2.6366,2.5866,2.5619,2.6076,2.6076,2.6076,2.6082,2.6058,2.6795,2.5979,2.3337,2.3829,2.3461,2.1816,2.2322,2.2403,2.139,2.2415,2.2938,2.3182,2.3887,2.4337,2.4583,2.476,2.4528,2.4501,2.461,2.4542,2.4128,2.2776,2.1876,2.2134,2.3543,2.5161,2.5673,2.5793,2.53,2.4841,2.4682,2.4324,2.3606,2.2909,2.2343,2.1782,2.1535,2.1466,2.1631,2.2608,2.4219,2.5471,2.6891,2.7932,2.7864,2.8185,2.8401,3.1247,3.0941,3.1114,3.0779,3.0163,3.0446,3.0431,3.0111,2.9926,2.9799,2.9705,2.9707,2.965,2.9568,2.9355,2.9219,2.9244,2.935,2.9614,2.993,3.0451,3.0547,3.0369,3.0775,3.0906,3.0787,3.1037,3.1015,3.066,3.0607,3.05,3.0387,3.0662,3.1148,3.1631,3.1725,3.186,3.2023,3.1904,3.1794,3.1794,3.1794,3.1759,3.1637,3.1384,3.1132,3.0865,3.0853,3.0781,3.0624,3.0099,2.952,2.8937,2.8165,2.7639,2.7378,2.6716,2.6478,2.6695,2.6015,2.5795,2.6125,2.5682,2.5841,2.635,2.6515,2.669,2.7225,2.7584,2.6802,2.5659,2.5764,2.5833,2.4753,2.4724,2.4577,2.3887,2.3987,2.4256,2.4378,2.4954,2.5267,2.5222,2.5212,2.5267,2.4977,2.4923,2.5004,2.4855,2.4087,2.3652,2.4001,2.557,2.723,2.7441,2.7386,2.6999,2.6298,2.5783,2.4832,2.4015,2.3524,2.2964,2.1834,2.1491,2.2001,2.2375,2.3496,2.5082,2.6894,2.8325,2.836,2.8401,2.8422,2.8425,3.1568,3.1287,3.1633,3.1427,3.0856,3.1082,3.1027,3.0752,3.0494,3.0378,3.0378,3.0378,3.0378,3.0401,3.0575,3.0484,3.0186,3.0275,3.0385,3.0595,3.0961,3.1132,3.1156,3.1202,3.1335,3.1505,3.153,3.1309,3.0958,3.1088,3.1122,3.1042,3.1382,3.1801,3.2126,3.2193,3.2169,3.2047,3.1878,3.1794,3.1794,3.1794,3.1794,3.1769,3.1627,3.141,3.1143,3.1119,3.106,3.0838,3.0504,2.9912,2.9087,2.8194,2.7716,2.7624,2.7179,2.7113,2.7685,2.67,2.6343,2.7018,2.6515,2.6417,2.7121,2.7188,2.751,2.7968,2.8124,2.7749,2.7329,2.7534,2.7355,2.626,2.6182,2.5963,2.5108,2.5222,2.5616,2.6078,2.6596,2.6664,2.6447,2.6853,2.688,2.6376,2.6285,2.6295,2.6285,2.6118,2.6027,2.6139,2.7196,2.8052,2.82,2.8038,2.7958,2.7368,2.7064,2.5917,2.4856,2.4301,2.3314,2.2135,2.2081,2.2693,2.3516,2.4593,2.6161,2.8024,2.85,2.8516,2.8503,2.8443,2.8461,3.1818,3.1791,3.1806,3.196,3.2009,3.1869,3.1948,3.1998,3.182,3.162,3.158,3.1688,3.1572,3.1688,3.1581,3.1701,3.1508,3.0945,3.0906,3.1291,3.1383,3.1397,3.1422,3.1614,3.1721,3.1771,3.1782,3.1489,3.1035,3.146,3.1594,3.1473,3.195,3.2254,3.2217,3.2284,3.2137,3.1969,3.1883,3.182,3.1807,3.182,3.1794,3.1794,3.1769,3.1662,3.1422,3.141,3.1386,3.1361,3.1323,3.0702,2.9402,2.8324,2.7735,2.7899,2.8193,2.8445,2.8557,2.8624,2.8557,2.8603,2.8459,2.8145,2.8118,2.8212,2.8269,2.8315,2.8355,2.8312,2.8274,2.8293,2.7558,2.5579,2.6241,2.6305,2.5661,2.5986,2.7029,2.7945,2.8552,2.909,2.9238,2.9319,2.9279,2.8797,2.8649,2.8608,2.8509,2.8244,2.8333,2.8191,2.8301,2.8503,2.8546,2.8522,2.8465,2.8352,2.8191,2.7578,2.6413,2.5608,2.3983,2.2931,2.4601,2.5251,2.5264,2.6263,2.6838,2.8215,2.84,2.8716,2.8683,2.8668,2.8561,3.2242,3.2095,3.2291,3.2386,3.2472,3.2388,3.2398,3.2448,3.2193,3.2073,3.2035,3.1878,3.1794,3.1806,3.1794,3.1902,3.2034,3.1788,3.1681,3.1697,3.1674,3.1674,3.1685,3.1745,3.1794,3.1794,3.1794,3.1714,3.158,3.17,3.1819,3.2048,3.2712,3.284,3.2554,3.2854,3.2935,3.2596,3.2065,3.1967,3.2262,3.1994,3.1819,3.1794,3.1794,3.1759,3.1673,3.1674,3.1591,3.1422,3.1398,3.0835,2.9665,2.8688,2.8362,2.8709,2.8858,2.9203,2.9561,2.9657,2.954,2.9205,2.9017,2.8767,2.8455,2.8412,2.8412,2.8412,2.8401,2.8401,2.8401,2.8401,2.8017,2.7402,2.7607,2.7648,2.7242,2.7537,2.7956,2.8387,2.9236,2.9599,2.9507,2.999,3.0268,2.9438,2.9274,2.9285,2.9245,2.9438,2.9168,2.8625,2.8719,2.8825,2.8773,2.8767,2.8727,2.8697,2.8645,2.8441,2.7481,2.683,2.5123,2.4799,2.6496,2.734,2.7395,2.7556,2.7987,2.8434,2.8873,2.9005,2.8974,2.8928,2.8886,3.2495,3.2374,3.2533,3.2666,3.2726,3.2654,3.2652,3.2716,3.2459,3.2364,3.2327,3.2181,3.2097,3.2097,3.2097,3.2193,3.2352,3.2364,3.2375,3.2339,3.2055,3.1964,3.1914,3.1843,3.1794,3.1818,3.189,3.1952,3.1952,3.206,3.2351,3.289,3.3403,3.3539,3.3286,3.3689,3.3756,3.3224,3.2918,3.2881,3.2953,3.2653,3.242,3.2393,3.2218,3.2062,3.1976,3.1952,3.1819,3.1522,3.1184,3.0547,2.9839,2.8959,2.8644,2.9128,2.9545,2.9952,3.0462,3.0648,3.0424,2.9912,2.9522,2.9099,2.8666,2.8503,2.8517,2.8503,2.8614,2.8657,2.8668,2.867,2.867,2.8657,2.8417,2.8422,2.8401,2.8401,2.8522,2.8805,2.9518,2.9868,3.0098,3.0644,3.0854,2.9965,2.9734,2.9803,2.9823,2.9944,2.9718,2.9546,2.9574,2.9459,2.9069,2.9003,2.8974,2.8942,2.8899,2.8558,2.7925,2.7994,2.7077,2.6971,2.8078,2.854,2.8649,2.8296,2.8454,2.8899,2.9367,2.9408,2.943,2.9388,2.9349,3.2641,3.2629,3.2641,3.2811,3.298,3.28,3.2823,3.2955,3.2738,3.2629,3.2604,3.2543,3.2557,3.2567,3.2507,3.2598,3.2699,3.2766,3.3105,3.3265,3.2915,3.2538,3.2442,3.2178,3.2093,3.2144,3.2153,3.2247,3.2365,3.2478,3.304,3.3707,3.3897,3.4068,3.4246,3.4657,3.4431,3.3869,3.4069,3.4079,3.3862,3.3563,3.3362,3.3293,3.2792,3.2448,3.2254,3.2181,3.206,3.1697,3.0784,3.0182,2.991,2.9034,2.8727,2.9317,3.0067,3.0714,3.1242,3.1533,3.14,3.0804,3.0123,2.942,2.8986,2.8808,2.874,2.8737,2.8913,2.9042,2.9056,2.9045,2.9059,2.902,2.8719,2.8541,2.8452,2.8487,2.8733,2.9203,2.9765,3.0327,3.0788,3.1571,3.1356,3.0763,3.0507,3.0551,3.0553,3.0587,3.1047,3.09,3.0508,2.9836,2.9368,2.9205,2.9189,2.9143,2.9136,2.8911,2.863,2.878,2.8896,2.89,2.8907,2.9431,2.9578,2.9117,2.9077,2.9537,2.9801,2.9885,2.9932,2.9938,2.969,3.3064,3.2933,3.3114,3.3235,3.3283,3.3223,3.3209,3.3259,3.3018,3.2895,3.2859,3.269,3.2641,3.2604,3.2643,3.2935,3.341,3.3557,3.4011,3.4581,3.4339,3.3852,3.3415,3.2981,3.2957,3.3185,3.2637,3.2532,3.3096,3.2839,3.3119,3.3904,3.4398,3.4621,3.4736,3.5227,3.5197,3.474,3.4466,3.4392,3.4207,3.3769,3.3288,3.2851,3.2699,3.2579,3.2471,3.2302,3.2085,3.1738,3.071,3.0096,3.0055,2.9386,2.9222,2.9897,3.0621,3.1354,3.1861,3.2212,3.2071,3.1495,3.0861,3.0267,2.9717,2.9236,2.9054,2.9009,2.9063,2.9131,2.912,2.9131,2.9131,2.9099,2.8991,2.8905,2.8883,2.8954,2.9135,2.9714,3.0266,3.0803,3.133,3.1662,3.1609,3.0964,3.0815,3.0857,3.087,3.0894,3.1205,3.1419,3.1091,3.0273,2.9681,2.9492,2.9383,2.9348,2.9359,2.9412,2.9312,2.9426,2.9525,2.9568,2.938,2.9687,2.9773,2.9564,2.9889,3.0138,3.0458,3.0619,3.0652,3.0637,3.0069,3.3308,3.3173,3.3344,3.3378,3.3378,3.3378,3.3378,3.3354,3.3247,3.3175,3.3125,3.3018,3.2931,3.2959,3.3207,3.3569,3.4051,3.4327,3.486,3.5489,3.5623,3.507,3.4264,3.3758,3.3825,3.3987,3.3301,3.3245,3.3571,3.3422,3.3763,3.4467,3.5047,3.5383,3.5568,3.5933,3.5981,3.5636,3.5429,3.5273,3.4857,3.4438,3.3938,3.3373,3.3099,3.2895,3.2748,3.2521,3.2255,3.1784,3.0822,3.019,3.035,2.9628,2.9659,3.0502,3.1163,3.1759,3.2432,3.2786,3.2643,3.2106,3.1577,3.0943,3.0279,2.9766,2.9569,2.9263,2.9325,2.939,2.939,2.94,2.94,2.9425,2.939,2.93,2.9142,2.9088,2.9375,2.9888,3.0453,3.1044,3.1631,3.1974,3.1732,3.1325,3.1401,3.1325,3.1246,3.1256,3.1339,3.164,3.1189,3.0181,2.9788,2.9647,2.957,2.9534,2.9534,2.9623,2.9677,2.9788,2.9774,2.9764,2.9774,2.9788,2.9803,2.9955,3.0287,3.06,3.1029,3.1184,3.1127,3.1305,3.0718,3.3446,3.3502,3.349,3.3518,3.3628,3.36,3.363,3.3516,3.3534,3.3464,3.3396,3.345,3.3487,3.3544,3.4034,3.4428,3.4553,3.5057,3.5583,3.6124,3.6391,3.6043,3.498,3.4632,3.4647,3.4632,3.4217,3.3988,3.4089,3.4232,3.4569,3.5057,3.5695,3.62,3.6357,3.6697,3.662,3.6338,3.6469,3.6204,3.5604,3.5182,3.4676,3.4104,3.3559,3.3237,3.303,3.2786,3.2545,3.2315,3.0988,3.0627,3.0794,2.9913,3.013,3.1107,3.1691,3.2243,3.2859,3.3161,3.3186,3.2637,3.2302,3.1735,3.0873,3.0455,3.0077,2.9697,2.9723,2.9727,2.9724,2.9756,2.9735,2.9713,2.9759,2.9587,2.9373,2.9243,2.9465,3.0007,3.064,3.1194,3.183,3.2347,3.2527,3.1695,3.1788,3.1848,3.1857,3.196,3.2001,3.2087,3.1206,2.9928,2.9791,2.9767,2.9742,2.972,2.9699,2.972,2.972,2.9788,2.9788,2.9788,2.9788,2.9788,2.9803,3.0082,3.0546,3.0983,3.1364,3.1364,3.1336,3.1748,3.1576,3.3684,3.4104,3.4119,3.4397,3.4774,3.4817,3.4551,3.4104,3.4118,3.388,3.36,3.3908,3.4104,3.4133,3.4732,3.5247,3.5595,3.5845,3.6192,3.6692,3.6816,3.6763,3.6178,3.5691,3.5641,3.5558,3.4526,3.4306,3.469,3.4599,3.462,3.5247,3.5887,3.6346,3.675,3.6846,3.6873,3.6753,3.686,3.6596,3.599,3.5434,3.4899,3.4285,3.3712,3.3408,3.3283,3.3066,3.2897,3.2596,3.1952,3.1361,3.125,3.1138,3.1252,3.1658,3.2324,3.2779,3.3,3.3247,3.3362,3.314,3.27,3.2312,3.206,3.1122,3.0669,3.0327,3.006,2.993,2.987,2.9803,2.9856,2.9884,2.9902,3.0025,3.0258,3.0313,3.0515,3.109,3.1678,3.233,3.2863,3.2612,3.2501,3.2118,3.2156,3.2301,3.2408,3.2532,3.2626,3.2605,3.09,2.9722,2.9788,2.9767,2.9756,2.9742,2.9753,2.9788,2.9788,2.9788,2.9788,2.9788,2.9788,2.9788,2.9803,3.0365,3.0856,3.1266,3.159,3.1592,3.17,3.2138,3.1921,3.4021,3.4313,3.4592,3.4913,3.5178,3.5178,3.5011,3.476,3.4732,3.4564,3.4369,3.4608,3.4732,3.4788,3.5345,3.5818,3.6095,3.6387,3.6622,3.6858,3.6899,3.6899,3.6872,3.6477,3.6342,3.6205,3.5459,3.5161,3.5126,3.5179,3.5359,3.5651,3.6192,3.6608,3.6858,3.6899,3.6899,3.6873,3.6885,3.665,3.6095,3.5512,3.4718,3.4048,3.3572,3.3378,3.3368,3.3257,3.3138,3.2959,3.2663,3.2291,3.1913,3.1797,3.1886,3.237,3.266,3.3064,3.3185,3.3308,3.339,3.3378,3.3068,3.2801,3.2535,3.1846,3.1463,3.1153,3.0845,3.0563,3.028,3.0224,3.0224,3.028,3.0478,3.0775,3.0986,3.0885,3.0927,3.1536,3.2064,3.2469,3.2719,3.2813,3.2635,3.2336,3.2714,3.2846,3.2481,3.2647,3.3074,3.2617,3.0698,2.9657,2.9755,2.9759,2.9713,2.9713,2.9699,2.9742,2.9788,2.9788,2.9788,2.9788,2.9788,2.9788,2.9898,3.052,3.0955,3.111,3.1336,3.1635,3.1768,3.1695,3.126,3.4385,3.4608,3.5122,3.5387,3.5457,3.5484,3.5456,3.5345,3.5331,3.5247,3.5247,3.5275,3.5345,3.547,3.5956,3.6206,3.6359,3.6622,3.6872,3.6885,3.6899,3.6899,3.6872,3.679,3.6541,3.6151,3.5958,3.5749,3.561,3.5804,3.5887,3.6165,3.6608,3.683,3.6885,3.6899,3.6899,3.6899,3.6899,3.6747,3.6276,3.5692,3.4831,3.3908,3.3488,3.3392,3.3378,3.3356,3.3295,3.3102,3.3269,3.3138,3.2735,3.234,3.2232,3.3024,3.3062,3.3161,3.3294,3.3366,3.3378,3.3378,3.3376,3.318,3.2773,3.2479,3.2141,3.1846,3.1522,3.1254,3.0913,3.0842,3.0842,3.0913,3.1308,3.1592,3.1635,3.128,3.1432,3.1814,3.2523,3.3,3.3053,3.3086,3.2813,3.2677,3.3084,3.3266,3.2888,3.2773,3.3188,3.3172,3.1492,3.0245,3.0197,2.9792,2.9724,2.9702,2.9677,2.9731,2.9788,2.9788,2.9788,2.9788,2.9788,2.9788,2.9983,3.052,3.0828,3.0899,3.1107,3.1432,3.1373,3.1163,3.0681,3.4885,3.5818,3.5915,3.6192,3.6581,3.6608,3.633,3.5998,3.5956,3.5665,3.5345,3.572,3.5943,3.6081,3.6525,3.6747,3.672,3.6858,3.6899,3.6899,3.6899,3.6899,3.6899,3.6885,3.6608,3.622,3.6163,3.6107,3.5969,3.6054,3.6271,3.6274,3.6689,3.6953,3.6966,3.6913,3.6993,3.7019,3.6993,3.6909,3.6662,3.6053,3.5247,3.4146,3.3667,3.3454,3.3428,3.3404,3.338,3.3344,3.338,3.3346,3.3207,3.3058,3.3108,3.3228,3.3281,3.3318,3.3366,3.3378,3.3378,3.3378,3.3378,3.3378,3.3138,3.2815,3.2563,3.2324,3.193,3.1564,3.1466,3.1437,3.1437,3.1494,3.1646,3.1902,3.2212,3.2289,3.2272,3.2614,3.314,3.3442,3.335,3.3294,3.3122,3.3,3.3196,3.3378,3.3196,3.3124,3.3288,3.3078,3.2521,3.1499,3.0761,3.0128,2.9767,2.9724,2.971,2.9742,2.9788,2.9788,2.9788,2.9788,2.9788,2.9788,3.0111,3.052,3.0616,3.063,3.0908,3.1235,3.0993,3.0747,3.0463,3.5773,3.6331,3.6638,3.6796,3.6912,3.7101,3.6908,3.6552,3.6511,3.6359,3.6234,3.6387,3.6511,3.6581,3.6747,3.6899,3.6899,3.6899,3.6899,3.6899,3.6899,3.6899,3.6899,3.6899,3.6761,3.6634,3.6671,3.6569,3.6373,3.6652,3.676,3.7031,3.7283,3.7367,3.7367,3.7408,3.7368,3.7354,3.7354,3.7288,3.7043,3.6242,3.5177,3.445,3.3887,3.3638,3.3608,3.3622,3.3608,3.3571,3.3477,3.3402,3.3378,3.3378,3.3378,3.3378,3.3378,3.3378,3.3378,3.3378,3.3378,3.3378,3.3378,3.3378,3.3348,3.3152,3.2956,3.2829,3.2436,3.2057,3.2057,3.2057,3.2057,3.2127,3.2296,3.2605,3.2881,3.3087,3.318,3.3247,3.3366,3.3463,3.3467,3.3422,3.3388,3.3378,3.3378,3.3378,3.3378,3.339,3.3388,3.3122,3.2691,3.1793,3.0947,3.0357,2.9823,2.9735,2.9731,2.9778,2.9788,2.9788,2.9788,2.9788,2.9788,2.9927,3.0012,3.0351,3.0362,3.0437,3.0823,3.101,3.0639,3.032,3.0212,3.6635,3.6723,3.7266,3.7247,3.6979,3.7248,3.7194,3.6953,3.6885,3.6858,3.6899,3.6885,3.6872,3.6899,3.6885,3.6899,3.6899,3.6899,3.6899,3.6899,3.6899,3.6899,3.6913,3.6994,3.7005,3.7044,3.7258,3.7197,3.6906,3.7169,3.7539,3.7619,3.7768,3.7809,3.7769,3.7716,3.7809,3.7809,3.7796,3.7662,3.7129,3.6052,3.5085,3.4551,3.4136,3.3873,3.3885,3.3787,3.3777,3.3704,3.3573,3.3378,3.3378,3.3378,3.3378,3.3378,3.3378,3.3378,3.3378,3.3378,3.3378,3.3378,3.3378,3.3378,3.339,3.3336,3.3322,3.3306,3.3012,3.2675,3.2675,3.2675,3.2675,3.2745,3.3054,3.3376,3.3354,3.3427,3.3485,3.3511,3.3475,3.3487,3.3535,3.3438,3.339,3.3378,3.3378,3.3378,3.3378,3.3378,3.3348,3.3192,3.271,3.1797,3.1054,3.0511,3.0017,2.9702,2.9745,2.9774,2.9788,2.9788,2.9788,2.9803,3.0192,3.0319,3.0277,3.025,3.0397,3.0596,3.0853,3.1007,3.1003,3.084,3.0661,3.7031,3.731,3.7634,3.742,3.6993,3.7275,3.7221,3.6913,3.6899,3.6899,3.6899,3.6899,3.6899,3.6899,3.6899,3.6899,3.6899,3.6899,3.6899,3.6899,3.6899,3.6899,3.6939,3.7221,3.7261,3.7328,3.7623,3.7568,3.7428,3.7618,3.7768,3.7862,3.7902,3.7836,3.7929,3.7956,3.7809,3.7836,3.7836,3.7716,3.7307,3.6217,3.56,3.5226,3.4635,3.4151,3.4141,3.4006,3.3897,3.3837,3.3573,3.3416,3.3378,3.3378,3.3378,3.3378,3.3378,3.339,3.339,3.3426,3.3416,3.3402,3.3378,3.3378,3.3378,3.3378,3.3378,3.339,3.3264,3.3208,3.318,3.3236,3.3278,3.325,3.328,3.3378,3.3428,3.3453,3.3537,3.3537,3.3426,3.3547,3.3644,3.3499,3.3378,3.3378,3.339,3.339,3.3378,3.3378,3.3378,3.325,3.3064,3.223,3.1276,3.0722,3.0186,2.9773,2.9735,2.9788,2.9788,2.9788,2.9788,2.9912,3.0291,3.081,3.1061,3.0986,3.0736,3.0746,3.0985,3.134,3.1678,3.146,3.1298,3.79,3.7904,3.8024,3.7729,3.7247,3.7502,3.7354,3.6953,3.6899,3.6899,3.6899,3.6899,3.6899,3.6899,3.6899,3.6899,3.6899,3.6899,3.6899,3.6899,3.6899,3.6913,3.698,3.7221,3.7382,3.7543,3.7823,3.8051,3.7971,3.801,3.813,3.8276,3.8288,3.8343,3.8249,3.8288,3.8329,3.8289,3.8183,3.8038,3.7593,3.6653,3.5838,3.5794,3.4902,3.4508,3.438,3.4347,3.4248,3.4175,3.3887,3.3646,3.3583,3.3511,3.3453,3.362,3.3632,3.3561,3.3467,3.3561,3.3537,3.3428,3.3404,3.3378,3.3378,3.3378,3.3378,3.3378,3.3378,3.3378,3.3378,3.3378,3.3378,3.339,3.3402,3.3414,3.3414,3.339,3.3414,3.339,3.3414,3.3571,3.368,3.3561,3.3426,3.3378,3.339,3.3402,3.339,3.3378,3.3378,3.3364,3.3162,3.2811,3.1809,3.0989,3.0357,2.994,2.9756,2.9788,2.9788,2.9788,2.9788,2.9803,2.9997,3.0662,3.1506,3.1608,3.1227,3.1148,3.1117,3.1618,3.2111,3.2511,3.2542,3.8584,3.8412,3.8399,3.8051,3.7529,3.7782,3.7635,3.7153,3.7074,3.7047,3.6993,3.6939,3.6899,3.6899,3.6899,3.6899,3.6899,3.6899,3.6899,3.6913,3.698,3.7047,3.7194,3.7395,3.765,3.7637,3.8143,3.8345,3.8399,3.8411,3.8476,3.8689,3.8595,3.8635,3.8675,3.8635,3.8609,3.861,3.8385,3.828,3.7997,3.6824,3.6272,3.5821,3.5292,3.4682,3.4697,3.46,3.4576,3.4479,3.4042,3.3801,3.3849,3.3678,3.368,3.3861,3.3958,3.3909,3.3779,3.373,3.368,3.3561,3.3416,3.3378,3.3378,3.3378,3.3378,3.3378,3.3378,3.3378,3.3378,3.3378,3.3378,3.3414,3.3463,3.3475,3.3497,3.3499,3.3597,3.374,3.3728,3.3634,3.367,3.3573,3.3489,3.3402,3.339,3.3414,3.3449,3.3459,3.3553,3.3587,3.3402,3.3074,3.2137,3.1257,3.0615,3.0093,2.9898,2.9788,2.9788,2.9788,2.9788,2.9803,2.987,3.0324,3.1075,3.1407,3.1767,3.1844,3.1946,3.2145,3.2542,3.3044,3.3578,3.8703,3.8662,3.8663,3.8301,3.7782,3.8132,3.8051,3.7662,3.7448,3.7342,3.7275,3.7087,3.6966,3.6939,3.7007,3.7007,3.6953,3.6899,3.6979,3.7073,3.7181,3.7328,3.7516,3.781,3.8158,3.8198,3.8465,3.8596,3.865,3.8611,3.865,3.8689,3.8689,3.8689,3.8689,3.8689,3.8689,3.8663,3.8464,3.8346,3.7988,3.7159,3.6412,3.6159,3.5534,3.4963,3.4951,3.4757,3.4649,3.4636,3.4187,3.4006,3.4091,3.3909,3.3922,3.4127,3.432,3.4284,3.4202,3.3994,3.3827,3.373,3.3573,3.3378,3.3378,3.3378,3.3378,3.3402,3.3426,3.3428,3.3416,3.339,3.339,3.3499,3.3595,3.3704,3.3692,3.3637,3.3778,3.4045,3.4069,3.394,3.3851,3.3791,3.3549,3.3453,3.3428,3.344,3.3597,3.3653,3.382,3.3839,3.3679,3.3179,3.2319,3.1597,3.1058,3.0428,2.9998,2.9867,2.9788,2.9788,2.9788,2.9898,2.9983,3.0288,3.0623,3.1192,3.1794,3.2433,3.273,3.2669,3.313,3.3776,3.4247,3.8689,3.8689,3.8689,3.8492,3.8132,3.8239,3.8104,3.7822,3.7702,3.7543,3.7395,3.7435,3.7368,3.7274,3.7422,3.7461,3.7447,3.7461,3.7448,3.7488,3.7581,3.7649,3.7823,3.8038,3.8293,3.8359,3.8571,3.8689,3.869,3.8689,3.8689,3.8689,3.8689,3.8689,3.8689,3.8689,3.8689,3.869,3.8596,3.8544,3.8269,3.7359,3.6648,3.6572,3.5545,3.506,3.4975,3.4902,3.4854,3.4745,3.4441,3.4407,3.4383,3.4189,3.4214,3.4407,3.4562,3.461,3.4636,3.4392,3.4163,3.3789,3.3559,3.339,3.3404,3.3378,3.3499,3.3523,3.3487,3.3477,3.362,3.3511,3.3453,3.3593,3.3738,3.3885,3.3971,3.3955,3.4013,3.4303,3.4291,3.4213,3.4121,3.4042,3.3767,3.3501,3.3477,3.3499,3.3708,3.3911,3.4082,3.4226,3.4093,3.3711,3.2875,3.2186,3.1548,3.0831,3.0127,2.9959,2.9845,2.9788,2.9803,2.9941,2.9991,3.0069,3.0438,3.1135,3.1777,3.2383,3.2732,3.2879,3.3551,3.4238,3.4729,3.8689,3.8689,3.8689,3.8583,3.8439,3.8426,3.8277,3.8075,3.7983,3.7797,3.7529,3.7729,3.7716,3.7636,3.7689,3.7782,3.7742,3.7769,3.7782,3.7823,3.7848,3.7929,3.805,3.8238,3.8465,3.845,3.8571,3.8689,3.8689,3.8689,3.8689,3.8689,3.8689,3.8689,3.8689,3.8689,3.8689,3.8689,3.8689,3.8689,3.8516,3.7704,3.6905,3.6744,3.5822,3.5221,3.5087,3.4963,3.4975,3.489,3.4745,3.4661,3.4588,3.454,3.4489,3.4624,3.4733,3.4818,3.4866,3.4721,3.4344,3.3859,3.3668,3.3513,3.3428,3.339,3.3487,3.3728,3.362,3.3595,3.3787,3.3644,3.3597,3.374,3.3895,3.4054,3.4298,3.4381,3.4417,3.4552,3.4508,3.4525,3.4329,3.4238,3.4042,3.3875,3.3984,3.3962,3.396,3.4182,3.4389,3.4524,3.4588,3.4126,3.3576,3.2823,3.2029,3.1119,3.0476,3.0083,2.9941,2.9845,2.9788,2.9856,2.9849,2.9793,3.014,3.0701,3.15,3.2321,3.2628,3.2897,3.2843,3.3487,3.4591,3.8689,3.8689,3.8689,3.869,3.8663,3.869,3.8663,3.8556,3.8386,3.8118,3.785,3.7876,3.7863,3.7836,3.7902,3.7955,3.7956,3.7929,3.7916,3.7982,3.817,3.8265,3.8358,3.8504,3.8596,3.8676,3.8689,3.8689,3.8689,3.8689,3.8689,3.8689,3.8689,3.8689,3.8689,3.8689,3.8689,3.8689,3.8689,3.8689,3.8544,3.7992,3.7396,3.6915,3.626,3.5702,3.5292,3.519,3.516,3.498,3.4794,3.4769,3.4866,3.4709,3.4721,3.4914,3.4951,3.4975,3.4975,3.4745,3.4392,3.398,3.3837,3.3656,3.3489,3.344,3.3547,3.3825,3.3777,3.3789,3.3825,3.3813,3.3837,3.3946,3.4127,3.4284,3.4554,3.4711,3.4733,3.4733,3.4842,3.4866,3.4615,3.4407,3.4272,3.4248,3.4455,3.4446,3.4303,3.4185,3.432,3.4728,3.4829,3.4581,3.4014,3.3323,3.252,3.1554,3.0773,3.0318,2.9983,2.9828,2.9788,2.9788,2.9796,2.9789,2.995,3.0205,3.0987,3.174,3.2545,3.2834,3.2624,3.2724,3.3755,3.8689,3.8689,3.8689,3.8689,3.8689,3.8689,3.8689,3.8675,3.8583,3.8398,3.8225,3.8303,3.8277,3.8238,3.8303,3.8356,3.8369,3.8409,3.8396,3.8396,3.8504,3.8557,3.8596,3.8623,3.8689,3.8689,3.8689,3.8689,3.8689,3.8689,3.8689,3.8689,3.8689,3.8689,3.8689,3.8689,3.8689,3.8689,3.8689,3.8689,3.8616,3.8137,3.7701,3.7424,3.6799,3.6202,3.5661,3.5615,3.5453,3.5146,3.4927,3.4946,3.5001,3.4842,3.4902,3.4987,3.4999,3.4999,3.4987,3.4866,3.4721,3.4356,3.4016,3.3825,3.368,3.3475,3.3656,3.3897,3.3934,3.403,3.4236,3.4127,3.4151,3.432,3.4489,3.461,3.4794,3.4878,3.4938,3.4914,3.4975,3.4866,3.4661,3.46,3.4489,3.4405,3.4537,3.4564,3.4446,3.4024,3.3922,3.4641,3.4929,3.4827,3.4452,3.3685,3.299,3.2144,3.1198,3.0423,3.0125,2.9831,2.9788,2.9788,2.9788,2.981,2.9957,3.0144,3.0453,3.108,3.1885,3.2431,3.2317,3.2321,3.2732,3.8689,3.8689,3.8689,3.8689,3.8689,3.8689,3.8689,3.8689,3.8703,3.8583,3.8491,3.8638,3.8596,3.8517,3.8596,3.8689,3.8689,3.8703,3.8703,3.8689,3.8703,3.8676,3.869,3.8689,3.8689,3.8689,3.8689,3.8689,3.8689,3.8689,3.8689,3.8689,3.8689,3.8689,3.8689,3.8689,3.8689,3.8689,3.8689,3.8689,3.8587,3.8326,3.8035,3.7744,3.7309,3.6857,3.6419,3.6114,3.5937,3.5483,3.5263,3.5175,3.5087,3.4999,3.4999,3.4999,3.4999,3.4999,3.4987,3.4987,3.4869,3.4736,3.431,3.4066,3.3958,3.3813,3.397,3.4127,3.4115,3.4272,3.4465,3.4356,3.4429,3.4598,3.4634,3.4769,3.4902,3.4987,3.4999,3.4999,3.4951,3.483,3.4745,3.4769,3.4731,3.4658,3.461,3.46,3.4605,3.4279,3.3919,3.4423,3.4816,3.4653,3.4405,3.3975,3.3308,3.2669,3.1722,3.0726,3.01,2.9792,2.9788,2.9788,2.9788,2.9807,2.9911,3.0101,3.0374,3.0695,3.1203,3.1624,3.1871,3.2007,3.2103,3.8689,3.8689,3.8689,3.8689,3.8689,3.8689,3.8689,3.8689,3.8689,3.8689,3.869,3.869,3.8663,3.869,3.8689,3.8689,3.8689,3.8689,3.8689,3.8689,3.8689,3.8689,3.8689,3.8689,3.8689,3.8689,3.8689,3.8689,3.8689,3.8689,3.8689,3.8689,3.8689,3.8689,3.8689,3.8742,3.8729,3.8715,3.8689,3.8689,3.8631,3.8631,3.834,3.8064,3.7817,3.7453,3.7061,3.6813,3.6434,3.6068,3.582,3.5471,3.5219,3.5014,3.4999,3.4999,3.4999,3.4999,3.4999,3.4999,3.5001,3.4902,3.4721,3.4477,3.426,3.4127,3.4211,3.4395,3.4455,3.4528,3.4598,3.4598,3.4622,3.4658,3.4658,3.4794,3.4938,3.4999,3.4999,3.4989,3.4938,3.4866,3.483,3.4842,3.4806,3.4767,3.4694,3.4697,3.4724,3.4838,3.4496,3.4299,3.4556,3.4415,3.418,3.3931,3.3492,3.2824,3.2011,3.1085,3.0428,2.9795,2.9788,2.9788,2.9788,2.9817,2.9893,3.0037,3.0248,3.0579,3.0875,3.1132,3.1484,3.145,3.1515,3.8689,3.8689,3.8689,3.8689,3.8689,3.8703,3.8689,3.8689,3.8689,3.8689,3.8689,3.8689,3.8689,3.8689,3.8689,3.8689,3.8689,3.8689,3.8689,3.8717,3.8729,3.8702,3.8702,3.8702,3.8703,3.8689,3.8689,3.8689,3.8689,3.8689,3.8689,3.8689,3.8689,3.8689,3.8755,3.8889,3.8809,3.8755,3.8715,3.8715,3.8702,3.8689,3.8515,3.8413,3.8355,3.8006,3.7671,3.7526,3.7018,3.6141,3.5951,3.5615,3.5072,3.4999,3.4999,3.4999,3.4999,3.4999,3.4999,3.4999,3.4999,3.4999,3.4902,3.4743,3.454,3.4395,3.4395,3.4552,3.4661,3.4697,3.4781,3.4818,3.4803,3.4818,3.4806,3.4878,3.4999,3.4999,3.5014,3.4989,3.4926,3.4866,3.4842,3.4806,3.4769,3.4781,3.4794,3.4769,3.474,3.4815,3.4796,3.4541,3.4276,3.4143,3.4069,3.3861,3.3456,3.2942,3.2208,3.1367,3.0445,2.9937,2.9831,2.9788,2.9788,2.981,2.9842,3.0054,3.0327,3.0367,3.0604,3.083,3.1027,3.1154,3.1223,3.8689,3.8689,3.8689,3.8689,3.8732,3.895,3.9052,3.9008,3.8819,3.8689,3.8689,3.8689,3.8689,3.8689,3.8689,3.8689,3.8689,3.8689,3.8689,3.8715,3.881,3.8769,3.8755,3.8782,3.8795,3.8742,3.8689,3.8689,3.8689,3.8689,3.8689,3.8689,3.8689,3.8703,3.8729,3.8809,3.8822,3.8795,3.8782,3.8754,3.8729,3.8689,3.8689,3.8689,3.8689,3.8456,3.821,3.8137,3.7468,3.6478,3.6273,3.582,3.5248,3.4999,3.4999,3.4999,3.4999,3.4999,3.4999,3.4999,3.4999,3.4999,3.4999,3.4914,3.4806,3.4673,3.4697,3.4769,3.4781,3.4806,3.4914,3.4999,3.4987,3.4987,3.4987,3.4987,3.4999,3.4999,3.4987,3.4989,3.4914,3.483,3.4781,3.4757,3.4769,3.4854,3.4854,3.4808,3.4677,3.4574,3.4578,3.4454,3.4137,3.3878,3.3839,3.3872,3.3584,3.3193,3.2617,3.1728,3.0625,3.0131,3.0096,2.9941,2.9788,2.981,2.9821,3.0194,3.0461,3.0517,3.0767,3.1243,3.1416,3.1303,3.1328,3.8689,3.8703,3.8775,3.8935,3.8993,3.9428,3.9602,3.9602,3.908,3.8776,3.8805,3.8805,3.879,3.8747,3.8819,3.8877,3.8906,3.8921,3.8935,3.876,3.8862,3.8862,3.8809,3.8901,3.8822,3.8729,3.8689,3.8689,3.8689,3.8731,3.8746,3.8773,3.877,3.8855,3.9042,3.8974,3.893,3.8755,3.8876,3.8941,3.8755,3.8689,3.8689,3.8689,3.8689,3.8645,3.8673,3.8512,3.8149,3.7289,3.6676,3.6218,3.5409,3.5059,3.5059,3.4999,3.4999,3.5059,3.5047,3.5035,3.5047,3.5035,3.4999,3.4975,3.4902,3.4866,3.4878,3.489,3.489,3.4902,3.4975,3.4999,3.4999,3.4999,3.4999,3.4999,3.4999,3.4999,3.5001,3.5001,3.4963,3.489,3.489,3.4878,3.4866,3.4965,3.4953,3.4881,3.4728,3.452,3.4448,3.4423,3.4177,3.3966,3.4012,3.3994,3.3789,3.339,3.2935,3.2215,3.1237,3.0739,3.0384,3.0093,2.9788,2.9788,2.9867,3.029,3.0684,3.0888,3.1221,3.1779,3.1854,3.1584,3.14,3.8689,3.8747,3.9196,3.9905,4.0655,3.9934,3.992,4.0281,3.966,3.9428,3.9385,3.9356,3.9153,3.8906,3.9268,3.9385,3.9399,3.9399,3.9399,3.9195,3.9099,3.8922,3.873,3.8822,3.8811,3.8729,3.8689,3.8834,3.8819,3.886,3.9114,3.9625,3.9435,3.9305,3.9622,3.9495,3.9192,3.8823,3.8902,3.8942,3.8729,3.8689,3.8689,3.8689,3.8689,3.8689,3.8755,3.8844,3.8181,3.7354,3.7219,3.6398,3.5155,3.5222,3.518,3.5062,3.4999,3.5083,3.5144,3.512,3.5132,3.5168,3.5144,3.5047,3.5001,3.4999,3.4999,3.4999,3.4999,3.4999,3.4999,3.4999,3.4999,3.4999,3.4999,3.4999,3.4999,3.4999,3.4999,3.4999,3.4999,3.4999,3.4999,3.4999,3.4999,3.5014,3.5001,3.4938,3.483,3.4663,3.4552,3.4484,3.4303,3.4175,3.4247,3.4158,3.3972,3.3781,3.3414,3.265,3.1835,3.0891,3.0132,2.997,2.9792,3.0044,3.0308,3.0548,3.0904,3.1265,3.1678,3.2235,3.2041,3.175,3.1539,3.8863,3.9153,3.979,4.0494,4.1084,4.0654,4.074,4.1113,4.0942,4.0684,4.041,4.0165,3.9833,3.953,3.9905,4.0035,4.0035,4.005,3.979,3.9529,3.9392,3.9086,3.8942,3.8797,3.9045,3.9076,3.9413,3.953,3.9209,3.9528,3.9971,4.0405,4.011,4.0032,4.032,3.9974,3.9514,3.893,3.8982,3.8862,3.8715,3.8717,3.8703,3.8689,3.8689,3.8689,3.8782,3.8868,3.8284,3.7372,3.6831,3.6252,3.5405,3.5313,3.5226,3.5083,3.5011,3.5071,3.5168,3.5216,3.5231,3.5306,3.5286,3.5204,3.518,3.5168,3.5011,3.4999,3.4999,3.4999,3.4999,3.4999,3.4999,3.4999,3.4999,3.4999,3.4999,3.4999,3.4999,3.4999,3.4999,3.4999,3.4999,3.4999,3.4999,3.4999,3.4999,3.4999,3.4902,3.483,3.4719,3.4624,3.4482,3.4496,3.4621,3.445,3.4175,3.3991,3.3843,3.3294,3.2519,3.0916,2.9836,3.0394,3.0733,3.0785,3.1023,3.1213,3.1489,3.1908,3.2272,3.2675,3.2295,3.1852,3.1566,3.9095,3.979,4.0453,4.0939,4.1223,4.1387,4.1646,4.1963,4.215,4.1919,4.1417,4.0986,4.0785,4.0612,4.0699,4.0699,4.0713,4.0698,4.0338,3.996,3.9892,3.9331,3.8982,3.889,3.9144,3.964,4.0119,4.0075,3.9871,4.0316,4.0758,4.1116,4.1126,4.1034,4.0734,4.0354,3.9924,3.9291,3.9049,3.8836,3.877,3.873,3.8703,3.8689,3.8689,3.8689,3.8782,3.8739,3.8342,3.7597,3.6681,3.607,3.5659,3.5479,3.5325,3.518,3.5023,3.5133,3.5252,3.5287,3.5405,3.5477,3.5415,3.5334,3.5289,3.5192,3.5035,3.4999,3.4999,3.4999,3.4999,3.4999,3.4999,3.4999,3.4999,3.4999,3.4999,3.4999,3.4999,3.5014,3.5028,3.5028,3.5028,3.5028,3.5028,3.5028,3.5014,3.4999,3.5001,3.4938,3.4878,3.4847,3.4791,3.4859,3.4934,3.4762,3.4441,3.4325,3.4166,3.3811,3.3237,3.1926,3.1345,3.1772,3.2023,3.2084,3.1932,3.1997,3.229,3.2465,3.2741,3.289,3.2188,3.1778,3.148,3.9371,4.0468,4.1087,4.1791,4.2353,4.1805,4.1675,4.1919,4.1791,4.159,4.1647,4.1891,4.1618,4.0655,4.1144,4.1302,4.1317,4.1317,4.0957,4.051,4.0189,3.9454,3.9106,3.9319,3.9236,3.9756,4.0476,4.0789,4.0775,4.1144,4.1746,4.2413,4.1954,4.1789,4.1667,4.1168,4.0466,3.9803,3.9252,3.9034,3.8954,3.8889,3.873,3.8689,3.8689,3.8689,3.8769,3.8982,3.8621,3.8009,3.7179,3.6418,3.5895,3.5624,3.5506,3.5265,3.5096,3.5311,3.5431,3.531,3.5383,3.5759,3.5604,3.5192,3.5144,3.5093,3.5011,3.4999,3.4999,3.4999,3.4999,3.4999,3.4999,3.4999,3.4999,3.4999,3.4999,3.4999,3.4999,3.5043,3.5072,3.5102,3.5131,3.5131,3.5131,3.5102,3.5028,3.5028,3.4999,3.4999,3.4999,3.5007,3.5014,3.5009,3.4985,3.4968,3.4769,3.4658,3.445,3.4027,3.3618,3.3176,3.2909,3.2888,3.3311,3.3573,3.3361,3.2748,3.2662,3.2805,3.3104,3.3078,3.231,3.1646,3.1333]}]]